[[{"header":{"parameterUnit":"m.s-1","parameterCategory":1,"la1":30.6,"la2":28.766,"lo1":-90.7593,"lo2":-88.6598,"dy":0.0162,"dx":0.0183,"nx":116,"ny":114,"refTime":"2024-05-18T12:00:00:Z","depth":0,"parameterNumber":2,"parameterNumberName":"U-component_of_WINDS"},"data":[0.0,0.0,0.0,0.0,0.0,0.0,0.0,0.0,0.0,0.0,0.0,0.0,0.0,0.0,0.0,0.0,0.0,0.0,0.0,0.0,0.0,0.0,0.0,0.0,0.0,0.0,0.0,0.0,0.0,0.0,0.0,0.0,0.0,0.0,0.0,0.0,0.0,0.0,0.0,0.0,0.0,0.0,0.0,0.0,0.0,0.0,0.0,0.0,0.0,0.0,0.0,0.0,0.0,0.0,0.0,0.0,0.0,0.0,0.0,0.0,0.0,0.0,0.0,0.0,0.0,0.0,0.0,0.0,0.0,0.0,0.0,0.0,0.0,0.0,0.0,0.0,0.0,0.0,0.0,0.0,0.0,0.0,0.0,0.0,0.0,0.0,0.0,0.0,0.0,0.0,0.0,0.0,0.0,0.0,0.0,0.0,0.0,0.0,0.0,0.0,0.0,0.0,0.0,0.0,0.0,0.0,0.0,0.0,0.0,0.0,0.0,0.0,0.0,0.0,0.0,0.0,0.0,0.0,0.0,0.0,0.0,0.0,0.0,0.0,0.0,0.0,0.0,0.0,0.0,0.0,0.0,0.0,0.0,0.0,0.0,0.0,0.0,0.0,0.0,0.0,0.0,0.0,0.0,0.0,0.0,0.0,0.0,0.0,0.0,0.0,0.0,0.0,0.0,0.0,0.0,0.0,0.0,0.0,0.0,0.0,0.0,0.0,0.0,0.0,0.0,0.0,0.0,0.0,0.0,0.0,0.0,0.0,0.0,0.0,0.0,0.0,0.0,0.0,0.0,0.0,0.0,0.0,0.0,0.0,0.0,0.0,0.0,0.0,0.0,0.0,0.0,0.0,0.0,0.0,0.0,0.0,0.0,0.0,0.0,0.0,0.0,0.0,0.0,0.0,0.0,0.0,0.0,0.0,0.0,0.0,0.0,0.0,0.0,0.0,0.0,0.0,0.0,0.0,0.0,0.0,0.0,0.0,0.0,0.0,0.0,0.0,0.0,0.0,0.0,0.0,0.0,0.0,0.0,0.0,0.0,0.0,0.0,0.0,0.0,0.0,0.0,0.0,0.0,0.0,0.0,0.0,0.0,0.0,0.0,0.0,0.0,0.0,0.0,0.0,0.0,0.0,0.0,0.0,0.0,0.0,0.0,0.0,0.0,0.0,0.0,0.0,0.0,0.0,0.0,0.0,0.0,0.0,0.0,0.0,0.0,0.0,0.0,0.0,0.0,0.0,0.0,0.0,0.0,0.0,0.0,0.0,0.0,0.0,0.0,0.0,0.0,0.0,0.0,0.0,0.0,0.0,0.0,0.0,0.0,0.0,0.0,0.0,0.0,0.0,0.0,0.0,0.0,0.0,0.0,0.0,0.0,0.0,0.0,0.0,0.0,0.0,0.0,0.0,0.0,0.0,0.0,0.0,0.0,0.0,0.0,0.0,0.0,0.0,0.0,0.0,0.0,0.0,0.0,0.0,0.0,0.0,0.0,0.0,0.0,0.0,0.0,0.0,0.0,0.0,0.0,0.0,0.0,0.0,0.0,0.0,0.0,0.0,0.0,0.0,0.0,0.0,0.0,0.0,0.0,0.0,0.0,0.0,0.0,0.0,0.0,0.0,0.0,0.0,0.0,0.0,0.0,0.0,0.0,0.0,0.0,0.0,0.0,0.0,0.0,0.0,0.0,0.0,0.0,0.0,0.0,0.0,0.0,0.0,0.0,0.0,0.0,0.0,0.0,0.0,0.0,0.0,0.0,0.0,0.0,0.0,0.0,0.0,0.0,0.0,0.0,0.0,0.0,0.0,0.0,0.0,0.0,0.0,0.0,0.0,0.0,0.0,0.0,0.0,0.0,0.0,0.0,0.0,0.0,0.0,0.0,0.0,0.0,0.0,0.0,0.0,0.0,0.0,0.0,0.0,0.0,0.0,0.0,0.0,0.0,0.0,0.0,0.0,0.0,0.0,0.0,0.0,0.0,0.0,0.0,0.0,0.0,0.0,0.0,0.0,0.0,0.0,0.0,0.0,0.0,0.0,0.0,0.0,0.0,0.0,0.0,0.0,0.0,0.0,0.0,0.0,0.0,0.0,0.0,0.0,0.0,0.0,0.0,0.0,0.0,0.0,0.0,0.0,0.0,0.0,0.0,0.0,0.0,0.0,0.0,0.0,0.0,0.0,0.0,0.0,0.0,0.0,0.0,0.0,0.0,0.0,0.0,0.0,0.0,0.0,0.0,0.0,0.0,0.0,0.0,0.0,0.0,0.0,0.0,0.0,0.0,0.0,0.0,0.0,0.0,0.0,0.0,0.0,0.0,0.0,0.0,0.0,0.0,0.0,0.0,0.0,0.0,0.0,0.0,0.0,0.0,0.0,0.0,0.0,0.0,0.0,0.0,0.0,0.0,0.0,0.0,0.0,0.0,0.0,0.0,0.0,0.0,0.0,0.0,0.0,0.0,0.0,0.0,0.0,0.0,0.0,0.0,0.0,0.0,0.0,0.0,0.0,0.0,0.0,0.0,0.0,0.0,0.0,0.0,0.0,0.0,0.0,0.0,0.0,0.0,0.0,0.0,0.0,0.0,0.0,0.0,0.0,0.0,0.0,0.0,0.0,0.0,0.0,0.0,0.0,0.0,0.0,0.0,0.0,0.0,0.0,0.0,0.0,0.0,0.0,0.0,0.0,0.0,0.0,0.0,0.0,0.0,0.0,0.0,0.0,0.0,0.0,0.0,0.0,0.0,0.0,0.0,0.0,0.0,0.0,0.0,0.0,0.0,0.0,0.0,0.0,0.0,0.0,0.0,0.0,0.0,0.0,0.0,0.0,0.0,0.0,0.0,0.0,0.0,0.0,0.0,0.0,0.0,0.0,0.0,0.0,0.0,0.0,0.0,0.0,0.0,0.0,0.0,0.0,0.0,0.0,0.0,0.0,0.0,0.0,0.0,0.0,0.0,0.0,0.0,0.0,0.0,0.0,0.0,0.0,0.0,0.0,0.0,0.0,0.0,0.0,0.0,0.0,0.0,0.0,0.0,0.0,0.0,0.0,0.0,0.0,0.0,0.0,0.0,0.0,0.0,0.0,0.0,0.0,0.0,0.0,0.0,0.0,0.0,0.0,0.0,0.0,0.0,0.0,0.0,0.0,0.0,0.0,0.0,0.0,0.0,0.0,0.0,0.0,0.0,0.0,0.0,0.0,0.0,0.0,0.0,0.0,0.0,0.0,0.0,0.0,0.0,0.0,0.0,0.0,0.0,0.0,0.0,0.0,0.0,0.0,0.0,0.0,0.0,0.0,0.0,0.0,0.0,0.0,0.0,0.0,0.0,0.0,0.0,0.0,0.0,0.0,0.0,0.0,0.0,0.0,0.0,0.0,0.0,0.0,0.0,0.0,0.0,0.0,0.0,0.0,0.0,0.0,0.0,0.0,0.0,0.0,0.0,0.0,0.0,0.0,0.0,0.0,0.0,0.0,0.0,0.0,0.0,0.0,0.0,0.0,0.0,0.0,0.0,0.0,0.0,0.0,0.0,0.0,0.0,0.0,0.0,0.0,0.0,0.0,0.0,0.0,0.0,0.0,0.0,0.0,0.0,0.0,0.0,0.0,0.0,0.0,0.0,0.0,0.0,0.0,0.0,0.0,0.0,0.0,0.0,0.0,0.0,0.0,0.0,0.0,0.0,0.0,0.0,0.0,0.0,0.0,0.0,0.0,0.0,0.0,0.0,0.0,0.0,0.0,0.0,0.0,0.0,0.0,0.0,0.0,0.0,0.0,0.0,0.0,0.0,0.0,0.0,0.0,0.0,0.0,0.0,0.0,0.0,0.0,0.0,0.0,0.0,0.0,0.0,0.0,0.0,0.0,0.0,0.0,0.0,0.0,0.0,0.0,0.0,0.0,0.0,0.0,0.0,0.0,0.0,0.0,0.0,0.0,0.0,0.0,0.0,0.0,0.0,0.0,0.0,0.0,0.0,0.0,0.0,0.0,0.0,0.0,0.0,0.0,0.0,0.0,0.0,0.0,0.0,0.0,0.0,0.0,0.0,0.0,0.0,0.0,0.0,0.0,0.0,0.0,0.0,0.0,0.0,0.0,0.0,0.0,0.0,0.0,0.0,0.0,0.0,0.0,0.0,0.0,0.0,0.0,0.0,0.0,0.0,0.0,0.0,0.0,0.0,0.0,0.0,0.0,0.0,0.0,0.0,0.0,0.0,0.0,0.0,0.0,0.0,0.0,0.0,0.0,0.0,0.0,0.0,0.0,0.0,0.0,0.0,0.0,0.0,0.0,0.0,0.0,0.0,0.0,0.0,0.0,0.0,0.0,0.0,0.0,0.0,0.0,0.0,0.0,0.0,0.0,0.0,0.0,0.0,0.0,0.0,0.0,0.0,0.0,0.0,0.0,0.0,0.0,0.0,0.0,0.0,0.0,0.0,0.0,0.0,0.0,0.0,0.0,0.0,0.0,0.0,0.0,0.0,0.0,0.0,0.0,0.0,0.0,0.0,0.0,0.0,0.0,0.0,0.0,0.0,0.0,0.0,0.0,0.0,0.0,0.0,0.0,0.0,0.0,0.0,0.0,0.0,0.0,0.0,0.0,0.0,0.0,0.0,0.0,0.0,0.0,0.0,0.0,0.0,0.0,0.0,0.0,0.0,0.0,0.0,0.0,0.0,0.0,0.0,0.0,0.0,0.0,0.0,0.0,0.0,0.0,0.0,0.0,0.0,0.0,0.0,0.0,0.0,0.0,0.0,0.0,0.0,0.0,0.0,0.0,0.0,0.0,0.0,0.0,0.0,0.0,0.0,0.0,0.0,0.0,0.0,0.0,0.0,0.0,0.0,0.0,0.0,0.0,0.0,0.0,0.0,0.0,0.0,0.0,0.0,0.0,0.0,0.0,0.0,0.0,0.0,0.0,0.0,0.0,0.0,0.0,0.0,0.0,0.0,0.0,0.0,0.0,0.0,0.0,0.0,0.0,0.0,0.0,0.0,0.0,0.0,0.0,0.0,0.0,0.0,0.0,0.0,0.0,0.0,0.0,0.0,0.0,0.0,0.0,0.0,0.0,0.0,0.0,0.0,0.0,0.0,0.0,0.0,0.0,0.0,0.0,0.0,0.0,0.0,0.0,0.0,0.0,0.0,0.0,0.0,0.0,0.0,0.0,0.0,0.0,0.0,0.0,0.0,0.0,0.0,0.0,0.0,0.0,0.0,0.0,0.0,0.0,0.0,0.0,0.0,0.0,0.0,0.0,0.0,0.0,0.0,0.0,0.0,0.0,0.0,0.0,0.0,0.0,0.0,0.0,0.0,0.0,0.0,0.0,0.0,0.0,0.0,0.0,0.0,0.0,0.0,0.0,0.0,0.0,0.0,0.0,0.0,0.0,0.0,0.0,0.0,0.0,0.0,0.0,0.0,0.0,0.0,0.0,0.0,0.0,0.0,0.0,0.0,0.0,0.0,0.0,0.0,0.0,0.0,0.0,0.0,0.0,0.0,0.0,0.0,0.0,0.0,0.0,0.0,0.0,0.0,0.0,0.0,0.0,0.0,0.0,0.0,0.0,0.0,0.0,0.0,0.0,0.0,0.0,0.0,0.0,0.0,0.0,0.0,0.0,0.0,0.0,0.0,0.0,0.0,0.0,0.0,0.0,0.0,0.0,0.0,0.0,0.0,0.0,0.0,0.0,0.0,0.0,0.0,0.0,0.0,0.0,0.0,0.0,0.0,0.0,0.0,0.0,0.0,0.0,0.0,0.0,0.0,0.0,0.0,0.0,0.0,0.0,0.0,0.0,0.0,0.0,0.0,0.0,0.0,0.0,0.0,0.0,0.0,0.0,0.0,0.0,0.0,0.0,0.0,0.0,0.0,0.0,0.0,0.0,0.0,0.0,0.0,0.0,0.0,0.0,0.0,0.0,0.0,0.0,0.0,0.0,0.0,0.0,0.0,0.0,0.0,0.0,0.0,0.0,0.0,0.0,0.0,0.0,0.0,0.0,0.0,0.0,0.0,0.0,0.0,0.0,0.0,0.0,0.0,0.0,0.0,0.0,0.0,0.0,0.0,0.0,0.0,0.0,0.0,0.0,0.0,0.0,0.0,0.0,0.0,0.0,-1.2926,0.0,0.0,0.0,0.0,0.0,0.0,0.0,0.0,0.0,0.0,0.0,0.0,0.0,0.0,0.0,0.0,0.0,0.0,0.0,0.0,0.0,0.0,0.0,0.0,1.1552,1.219,1.4064,1.3818,1.3594,1.3701,0.0,0.0,0.0,0.0,0.0,1.0156,1.0089,0.9225,0.756,0.6166,0.4179,0.1744,0.2976,0.4018,0.4918,0.0,0.0,0.0,0.0,0.0,0.0,0.0,0.0,0.0,0.0,0.0,0.0,0.0,0.0,0.0,0.0,0.0,0.0,0.0,0.0,0.0,0.0,0.0,0.0,0.0,0.0,0.0,0.0,0.0,0.0,0.0,0.0,0.0,0.0,0.0,0.0,0.0,0.0,0.0,0.0,0.0,0.0,0.0,0.0,0.0,0.0,0.0,0.0,0.0,0.0,0.0,0.0,0.0,0.0,0.0,0.0,0.0,0.0,0.0,0.0,0.0,0.0,0.0,0.0,0.0,0.0,0.0,0.0,0.0,0.0,0.0,-1.5887,0.0,0.0,0.0,0.0,0.0,0.0,0.0,0.0,0.0,0.0,0.0,0.0,0.0,0.0,0.0,0.0,0.0,0.0,0.0,0.0,0.0,0.9743,1.0837,1.1123,1.1822,1.3201,1.318,1.3271,1.3744,1.2553,0.0,0.0,0.0,1.0041,0.9867,0.9299,0.7856,0.5541,0.379,0.108,-0.2498,-0.2748,-0.1871,-0.0,0.1734,0.0,0.0,0.0,0.0,0.0,0.0,0.0,0.0,0.0,0.0,0.0,0.0,0.0,0.0,0.0,0.0,0.0,0.0,0.0,0.0,0.0,0.0,0.0,0.0,0.0,0.0,0.0,0.0,0.0,0.0,0.0,0.0,0.0,0.0,0.0,0.0,0.0,0.0,0.0,0.0,0.0,0.0,0.0,0.0,0.0,0.0,0.0,0.0,0.0,0.0,0.0,0.0,0.0,0.0,0.0,0.0,0.0,0.0,0.0,0.0,0.0,0.0,0.0,-1.9147,-1.8873,-1.9231,-1.7992,-1.7964,-1.8837,-1.8298,-1.7785,-1.735,0.0,0.0,0.0,0.0,0.0,0.0,0.0,0.0,0.0,0.0,0.0,0.0,0.0,0.0,0.0,0.0,0.0,0.0,0.0,0.0,0.9117,1.0194,0.9593,1.0061,1.242,1.2346,1.2827,1.4368,1.3855,0.0,0.0,1.0897,0.9847,0.8907,0.6361,0.4597,0.3665,-0.2041,-0.5637,-0.7221,-0.7708,-0.7359,-0.6122,-0.1552,0.1161,0.2386,0.0,0.0,0.0,0.0,0.0,0.0,0.0,0.0,0.0,0.0,0.0,0.0,0.0,0.0,0.0,0.0,0.0,0.0,0.0,0.0,0.0,0.0,0.0,0.0,0.0,0.0,0.0,0.0,0.0,0.0,0.0,0.0,0.0,0.0,0.0,0.0,0.0,0.0,0.0,0.0,0.0,-1.0575,-1.4464,0.0,0.0,0.0,0.0,0.0,0.0,0.0,0.0,0.0,0.0,0.0,0.0,0.0,-2.0562,-2.0686,-2.0956,-2.1078,-2.1042,-2.1501,-2.1371,-2.0719,-2.0528,-2.0102,-1.9555,-1.9465,0.0,-1.8465,-1.8039,0.0,0.0,0.0,0.0,0.0,0.0,0.0,0.0,0.0,0.0,0.0,0.0,0.0,0.0,0.0,0.0,0.0,0.0,0.0,0.0,0.0,0.6347,0.588,0.6436,0.8072,0.9643,1.0969,1.1943,1.2228,1.1725,0.9362,0.7413,0.6027,0.3697,0.105,-0.1922,-0.6115,-0.8564,-0.9334,-0.9276,-0.8739,-0.7736,-0.5148,-0.2966,-0.1113,0.0408,0.0,0.0,0.0,0.0,0.0,0.0,0.0,0.0,0.0,0.0,0.0,0.0,0.0,0.0,0.0,0.0,0.0,0.0,0.0,0.0,0.0,0.0,0.0,0.0,0.0,0.0,0.0,0.0,0.0,0.0,0.0,0.0,0.0,0.0,0.0,0.0,0.0,0.0,0.0,-1.2244,-1.7555,-1.9263,-1.9719,-1.9685,0.0,0.0,0.0,0.0,0.0,0.0,0.0,0.0,0.0,-2.1099,-2.1545,-2.1711,-2.152,-2.1871,-2.1968,-2.182,-2.1881,-2.1584,-2.0991,-2.0731,-2.0261,-1.969,-1.969,-1.9525,-1.9256,-1.9064,-1.8608,-1.7949,0.0,0.0,0.0,0.0,-1.5841,-1.6019,0.0,0.0,0.0,0.0,0.0,0.0,0.0,0.0,0.0,0.0,0.0,0.0,0.481,0.3371,0.2298,0.1843,0.3843,0.5699,0.0,0.0,0.9088,0.9119,0.6329,0.4106,0.2699,0.0512,-0.2691,-0.6923,-0.8874,-0.9891,-0.9989,-0.9683,-0.8996,-0.7991,-0.7457,-0.6155,-0.4279,-0.2563,-0.0638,0.0,0.0,0.0,0.0,0.0,0.0,0.0,0.0,0.0,0.0,0.0,0.0,0.0,0.0,0.0,0.0,0.0,0.0,0.0,0.0,0.0,0.0,0.0,0.0,0.0,0.0,0.0,0.0,0.0,0.0,0.0,0.0,0.0,0.0,0.0,0.0,0.0,0.0,-1.9843,-2.1944,-2.208,-2.231,-2.2205,0.0,0.0,0.0,0.0,0.0,0.0,-2.1192,-2.121,-2.1426,-2.1904,-2.2419,-2.2557,-2.2293,-2.2511,-2.25,-2.2282,-2.1945,-2.1507,-2.1007,-2.0649,-2.0193,-1.969,-1.969,-1.969,-1.969,-1.969,-1.939,-1.8922,-1.8647,-1.7878,-1.6948,-1.6619,-1.673,-1.692,0.0,0.0,0.0,0.0,0.0,0.0,0.0,0.0,0.0,0.0,0.0,0.3879,0.3454,0.1521,0.067,0.1709,0.1082,0.1543,0.0,0.0,0.282,0.2935,0.1439,0.021,-0.0635,-0.3681,-0.6621,-0.9424,-1.0105,-1.0011,-0.9175,-0.9522,-0.9019,-0.7794,-0.7382,-0.6854,-0.6158,-0.4662,-0.3232,-0.1752,0.0,0.0,0.0,0.0,0.0,0.0,0.0,0.0,0.0,0.0,0.0,0.0,0.0,0.0,0.0,0.0,0.0,0.0,0.0,0.0,0.0,0.0,0.0,0.0,0.0,0.0,0.0,0.0,0.0,0.0,0.0,0.0,0.0,0.0,0.0,0.0,0.0,0.0,0.0,-2.3862,-2.3651,0.0,0.0,0.0,0.0,-2.1369,-2.1057,-2.1206,-2.2012,-2.2047,-2.2517,-2.3548,-2.332,-2.3159,-2.3136,-2.259,-2.2293,-2.231,-2.2282,-2.1811,-2.0991,-2.0959,-2.0499,-1.969,-1.969,-1.969,-1.969,-1.969,-1.966,-1.963,-1.963,-1.9259,-1.8754,-1.8754,-1.8754,-1.8668,0.0,0.0,0.0,0.0,0.0,0.9516,0.8648,0.7486,0.6295,0.5087,0.3162,0.1419,0.0,-0.2045,-0.3632,-0.4149,-0.3365,-0.2163,-0.0556,0.0,0.1173,0.1524,-0.0832,-0.3357,-0.5925,-0.7544,-0.9112,-1.0627,-1.064,-1.044,-1.0063,-0.9813,-0.9089,-0.7964,-0.729,-0.6883,-0.6583,-0.5497,-0.4688,-0.3942,-0.1667,0.0445,0.0,0.0,0.0,0.0,0.0,0.0,0.0,0.0,0.0,0.0,0.0,0.0,0.0,0.0,0.0,0.0,0.0,0.0,0.0,0.0,0.0,0.0,0.0,0.0,0.0,0.0,0.0,0.0,0.0,0.0,0.0,0.0,0.0,0.0,0.0,0.0,0.0,-2.4063,-2.4341,0.0,-2.436,-2.3849,-2.3435,-2.3215,-2.2679,-2.2589,-2.3092,-2.2936,-2.3315,-2.445,-2.4112,-2.3925,-2.3974,-2.3347,-2.2784,-2.231,-2.231,-2.1974,-2.1368,-2.1118,-2.0665,-2.0054,-1.9803,-1.969,-1.969,-1.969,-1.969,-1.969,-1.969,-1.9369,-1.8893,-1.8893,-1.8893,-1.8864,0.0,0.0,0.0,0.0,0.9833,0.9104,0.7821,0.6335,0.4735,0.3015,0.0957,-0.086,-0.2189,-0.4113,-0.5796,-0.7046,-0.6241,-0.5204,-0.4184,0.0,-0.2788,-0.2109,-0.4285,-0.6664,-0.9127,-0.9693,-1.0253,-1.0834,-1.0556,-1.0349,-1.0186,-0.9652,-0.8899,-0.7964,-0.7228,-0.6824,-0.6649,-0.5859,-0.5404,-0.5068,-0.3689,-0.1843,0.016,0.0,0.0,0.0,0.0,0.0,0.0,0.0,0.0,0.0,0.0,0.0,0.0,0.0,0.0,0.0,0.0,0.0,0.0,0.0,0.0,0.0,0.0,0.0,0.0,0.0,0.0,0.0,0.0,0.0,0.0,0.0,0.0,0.0,0.0,0.0,-2.427,-2.4482,-2.4803,-2.4941,-2.4799,-2.4561,-2.4339,-2.4209,-2.3945,-2.3871,-2.4089,-2.4144,-2.4521,-2.5262,-2.5052,-2.4864,-2.4772,-2.3984,-2.3283,-2.2682,-2.2429,-2.2032,-2.1598,-2.1581,-2.1229,-2.062,-2.0386,-2.0201,-2.0019,-1.9779,-1.969,-1.969,-1.969,-1.9479,-1.9169,-1.9169,-1.9169,-1.9169,0.0,0.0,0.0,1.0193,0.9537,0.8386,0.6547,0.4686,0.2715,0.061,-0.1395,-0.2835,-0.3364,-0.4416,-0.5452,-0.6371,-0.7131,-0.7326,-0.6761,-0.8587,-0.9216,-0.8196,-0.9021,-0.9637,-0.9901,-1.0025,-1.0092,-1.01,-0.9963,-0.9731,-0.9393,-0.8988,-0.8441,-0.778,-0.715,-0.6735,-0.6444,-0.5833,-0.5441,-0.521,-0.5247,-0.4152,-0.2371,0.0,0.0,0.0,0.0,0.0,0.0,0.0,0.0,0.0,0.0,0.0,0.0,0.0,0.0,0.0,0.0,0.0,0.0,0.0,0.0,0.0,0.0,0.0,0.0,0.0,0.0,0.0,0.0,0.0,0.0,0.0,0.0,0.0,-2.4209,-2.4224,-2.4505,-2.5226,-2.5019,-2.4804,-2.4842,-2.4445,-2.4246,-2.4263,-2.4678,-2.4924,-2.496,-2.5664,-2.6121,-2.6139,-2.6116,-2.5931,-2.5543,-2.4523,-2.3822,-2.3393,-2.2649,-2.2061,-2.1645,-2.2384,-2.2182,-2.1306,-2.1439,-2.1182,-2.0632,-1.9959,-1.969,-1.969,-1.969,-1.969,-1.969,-1.969,-1.969,-1.969,0.0,0.0,1.0177,1.0134,0.938,0.8093,0.603,0.4093,0.1873,-0.0832,-0.2402,-0.3448,-0.3986,-0.4503,-0.4896,-0.5092,-0.4787,-0.412,-0.3049,0.0,-0.761,-0.9053,-0.9542,-0.9831,-0.9903,-1.0025,-1.0091,-1.0095,-1.0005,-0.9806,-0.9463,-0.8867,-0.8309,-0.7766,-0.6816,-0.6272,-0.6043,-0.553,-0.5277,-0.5174,-0.4894,-0.4665,-0.4337,0.0,0.0,0.0,0.0,0.0,0.0,0.0,0.0,0.0,0.0,0.0,0.0,0.0,0.0,0.0,0.0,0.0,0.0,0.0,0.0,0.0,0.0,0.0,0.0,0.0,0.0,0.0,0.0,0.0,0.0,0.0,0.0,-2.4277,-2.4218,-2.4703,-2.5124,-2.5284,-2.5096,-2.5151,-2.562,-2.4897,-2.4838,-2.5862,-2.5296,-2.5266,-2.6081,-2.6105,-2.6486,-2.7309,-2.6799,-2.6508,-2.6437,-2.5046,-2.402,-2.3393,-2.2649,-2.2237,-2.2123,-2.2524,-2.2102,-2.1114,-2.1377,-2.0906,-1.9944,-1.9765,-1.969,-1.969,-1.969,-1.969,-1.969,-1.969,-1.969,-1.969,0.0,1.0194,1.0177,1.0115,0.9183,0.7652,0.5282,0.3273,0.1006,-0.1767,-0.2927,-0.3622,-0.3927,-0.398,-0.3961,-0.3902,-0.3199,-0.1926,0.0043,0.0,-0.6179,-0.9157,-0.961,-0.9788,-0.9813,-0.9977,-1.0066,-1.0098,-1.0025,-0.9803,-0.9393,-0.8791,-0.8135,-0.7474,-0.66,-0.5957,-0.553,-0.518,-0.4972,-0.4861,-0.4727,-0.4928,-0.5164,-0.4039,-0.3466,-0.3186,-0.2624,-0.1693,-0.0642,-0.0149,0.0,0.0,0.0,0.0,0.0,0.0,0.0,0.0,0.0,0.0,0.0,0.0,0.0,0.0,0.0,0.0,0.0,0.0,0.0,0.0,0.0,0.0,0.0,0.0,-2.4605,-2.4822,-2.4752,-2.5141,-2.542,-2.5313,-2.5072,-2.5186,-2.5925,-2.5312,-2.5355,-2.6502,-2.6297,-2.6385,-2.7071,-2.7228,-2.7629,-2.8282,-2.7888,-2.7539,-2.727,-2.6074,-2.4905,-2.3849,-2.3105,-2.2598,-2.2316,-2.2768,-2.2406,0.0,-2.1634,-2.1115,-2.0094,-1.9809,-1.969,0.0,0.0,0.0,0.0,0.0,-1.969,-1.969,0.0,1.0198,1.0186,1.0115,0.8976,0.7209,0.461,0.2569,0.0426,-0.2118,0.0,-0.3254,-0.3287,-0.2947,-0.2651,-0.2506,-0.1727,-0.0251,0.0,0.0,0.0,-0.8713,-0.9292,-0.9578,-0.9706,-0.9898,-1.002,-1.0097,-1.003,-0.9765,-0.9283,-0.8721,-0.796,-0.7068,-0.6414,-0.5745,-0.5078,-0.4858,-0.4611,-0.4359,-0.4623,-0.4937,-0.5199,-0.475,-0.4634,-0.4634,-0.4156,-0.3245,-0.2225,-0.2307,0.0,0.0,0.0,0.0,0.0,0.0,0.0,0.0,0.0,0.0,0.0,0.0,0.0,0.0,0.0,0.0,0.0,0.0,0.0,0.0,0.0,0.0,0.0,0.0,-2.5174,-2.5702,-2.5656,-2.5722,-2.5661,-2.5332,-2.4987,-2.5148,-2.6061,-2.569,-2.5805,-2.6814,-2.7457,-2.7842,-2.7934,0.0,0.0,0.0,0.0,-2.8601,-2.7897,-2.7108,-2.597,-2.4506,-2.3748,-2.3004,-2.2344,-2.3139,-2.2972,-2.2013,-2.2144,-2.1643,-2.0662,-1.9974,-1.969,-1.969,-1.969,-1.969,-1.969,-1.969,-1.969,-1.969,0.0,1.0208,1.018,1.0116,0.895,0.7301,0.5156,0.3355,0.1345,-0.1218,-0.1659,-0.1804,-0.2032,-0.1362,-0.0631,0.0021,0.174,0.2174,0.0,0.0,-0.2773,-0.7882,-0.8709,-0.9249,-0.9691,-0.9888,-1.0032,-1.0091,-1.0032,-0.9757,-0.9283,-0.8526,-0.7802,-0.7052,-0.6071,-0.544,-0.5078,-0.4647,-0.4301,-0.4012,-0.423,-0.4547,-0.4891,-0.4677,-0.4826,-0.5055,-0.428,-0.3821,-0.3593,-0.3344,-0.2936,-0.2316,-0.0869,0.0,0.0,0.0,0.0,0.0,0.0,0.0,0.0,0.0,0.0,0.0,0.0,0.0,0.0,0.0,0.0,0.0,0.0,0.0,0.0,-2.523,-2.603,-2.656,-2.6542,-2.7112,-2.697,-2.5486,-2.4987,-2.5374,-2.6836,-2.6024,-2.6264,-2.8393,-2.8081,-2.8081,-2.8741,-2.8925,0.0,-2.8994,-2.8682,-2.8316,-2.7897,-2.6854,-2.5708,-2.4506,0.0,0.0,-2.2361,-2.3663,-2.3468,-2.2045,-2.2708,-2.2117,-2.0662,-1.9974,-1.969,-1.969,-1.969,-1.969,-1.969,-1.969,-1.969,-1.969,1.0202,1.0206,1.0174,1.0105,0.9053,0.7565,0.5689,0.4094,0.2397,0.0452,0.0085,0.0,0.0,0.0624,0.1341,0.2088,0.4056,0.0,0.0,0.0625,-0.177,-0.6871,-0.7934,-0.869,-0.9291,-0.9725,-1.0003,-1.0109,-0.9958,-0.9638,-0.9135,-0.8394,-0.7605,-0.676,-0.5886,-0.5194,-0.4666,-0.4174,-0.3808,-0.3597,-0.3705,-0.3894,-0.4175,-0.4251,-0.4441,-0.4602,-0.4156,-0.3858,-0.3644,-0.3585,-0.3341,-0.3082,-0.299,-0.3394,-0.4279,0.0,0.0,0.0,0.0,0.0,0.0,0.0,0.0,0.0,0.0,0.0,0.0,0.0,0.0,-2.3987,0.0,0.0,-2.5681,-2.6094,-2.6855,-2.7391,-2.7391,-2.7756,-2.7644,-2.6709,-2.6247,-2.6472,-2.7681,-2.7063,-2.7276,-2.8865,-2.8631,-2.8594,-2.8975,-2.8994,-2.8994,-2.8994,-2.8815,-2.8438,-2.7897,-2.7338,-2.6189,-2.4506,-2.412,-2.3359,-2.2327,-2.3054,-2.2889,-2.2013,-2.208,-2.1581,-2.0662,-1.9974,-1.969,-1.969,-1.969,-1.969,-1.969,-1.969,-1.969,-1.969,1.0194,1.0196,1.0161,1.011,0.9213,0.7956,0.6369,0.501,0.3679,0.2351,0.1997,0.1939,0.2139,0.266,0.3326,0.0,0.0,0.0,0.0,0.1266,-0.1128,-0.5664,-0.6931,-0.7925,-0.8742,-0.945,-0.9902,-1.0071,-0.9896,-0.9496,-0.8899,-0.8232,-0.7356,-0.634,-0.5635,-0.4887,-0.414,-0.3634,-0.3325,-0.3179,-0.3215,-0.326,-0.3331,-0.3648,-0.3858,-0.3993,-0.3798,-0.3565,-0.3352,-0.3409,-0.3164,-0.306,-0.4143,-0.4938,-0.6055,-0.9047,-1.0428,0.0,0.0,0.0,0.0,0.0,0.0,0.0,0.0,0.0,-2.3525,-2.4449,-2.4616,-2.4799,-2.541,-2.6226,-2.6784,-2.6737,-2.7569,-2.8239,-2.8223,-2.8364,-2.8435,-2.8332,-2.7646,-2.7536,-2.8324,-2.8027,-2.814,-2.892,-2.8994,-2.8994,-2.8994,-2.8994,-2.8994,-2.8994,-2.8994,-2.8651,-2.7897,-2.7897,-2.6778,-2.4506,-2.4506,-2.3714,-2.231,-2.2462,-2.2327,-2.1947,-2.1256,-2.076,-2.0468,-1.9914,-1.969,-1.969,-1.969,-1.969,-1.969,-1.969,-1.969,-1.969,0.0,1.0144,1.011,1.0098,0.9401,0.8487,0.7472,0.6424,0.5297,0.4086,0.3885,0.3851,0.384,0.4369,0.531,0.0,0.0,0.0,0.3505,0.2047,-0.0405,-0.4086,-0.5523,-0.6861,-0.8242,-0.9108,-0.9702,-1.0013,-0.9867,-0.9411,-0.8631,-0.7969,-0.7017,-0.5844,-0.4984,-0.4305,-0.3737,-0.3328,-0.3012,-0.2783,-0.2884,-0.2826,-0.2618,-0.2784,-0.334,-0.3896,-0.3121,-0.3121,-0.3423,-0.2948,-0.2767,-0.2838,-0.3456,-0.5245,-0.7506,-0.9412,0.0,-1.4414,-1.5431,-1.6828,-1.8355,-1.9715,-2.0874,-2.1894,0.0,0.0,-2.4405,-2.5283,-2.5424,-2.5429,-2.5553,-2.6256,-2.6797,-2.6792,-2.8074,-2.9078,-2.9078,-2.969,-3.0049,-2.9791,-2.8252,-2.7509,-2.8315,-2.804,-2.8136,-2.892,-2.8994,-2.8994,-2.8994,-2.8994,-2.8994,-2.8994,-2.8994,-2.8651,-2.7897,-2.7897,-2.6778,-2.4506,-2.4506,-2.3714,-2.2327,-2.2987,-2.2806,-2.1945,-2.1105,-2.0399,-1.9794,-1.972,-1.969,-1.969,-1.969,-1.969,-1.969,-1.969,-1.969,-1.969,0.0,1.0154,1.0156,1.0113,0.9659,0.9042,0.8272,0.7255,0.6323,0.5621,0.5303,0.5225,0.5462,0.6244,0.7027,0.0,0.0,0.0,0.4083,0.273,0.0612,-0.2537,-0.4102,-0.5649,-0.7231,-0.8433,-0.9285,-0.9817,-0.9292,-0.8699,-0.8,-0.7095,-0.6098,-0.5095,-0.4729,-0.4193,-0.3555,-0.3245,-0.3031,-0.2901,-0.2612,-0.2544,-0.2634,-0.2666,-0.2922,-0.3187,-0.283,-0.2486,0.0,0.0,-0.187,-0.2085,-0.3173,-0.4624,-0.6512,-0.9485,-1.1912,0.0,-1.5723,-1.7509,-1.89,0.0,-2.0332,-2.198,-2.289,-2.3717,-2.4556,-2.5461,-2.5643,-2.5604,-2.5559,-2.6646,-2.753,0.0,-2.8821,-2.989,-2.9892,-3.0186,-3.0349,-3.0242,-2.8984,-2.8398,-2.9083,-2.8891,-2.8883,-2.9206,-2.9225,-2.916,-2.9017,-2.8994,-2.8994,-2.8994,-2.8994,-2.8725,-2.821,-2.801,-2.6876,-2.4849,-2.4628,-2.3714,-2.2327,-2.2632,-2.2258,-2.1389,-2.1162,-2.0531,-1.969,-1.969,-1.969,-1.969,-1.969,-1.969,-1.969,-1.969,-1.969,-1.969,0.0,1.0147,1.0157,1.0102,0.9896,0.9501,0.8792,0.7945,0.7213,0.6754,0.6391,0.6355,0.6808,0.7649,0.8211,0.8253,0.0,0.0,0.0,0.3636,0.1901,-0.0652,-0.2146,-0.3676,-0.5321,-0.6171,-0.7336,-0.8835,-0.7568,-0.6834,-0.6583,-0.5682,-0.4697,-0.3714,-0.3564,-0.3182,-0.2629,-0.235,-0.2235,-0.2196,-0.1757,-0.174,-0.1942,-0.1942,-0.1945,-0.1947,-0.1947,-0.1507,0.0,0.0,-0.0791,-0.1203,-0.2573,-0.4178,-0.6153,-0.9479,-1.2018,-1.4151,-1.6112,-1.7738,0.0,-1.8379,-2.0069,-2.1971,-2.2626,-2.338,-2.4222,-2.5156,-2.5332,-2.5351,-2.551,-2.6723,-2.7755,-2.7903,-2.9113,-3.014,-3.0359,-3.0398,-3.0367,-3.0299,-2.9598,-2.9292,-2.9754,-2.9176,-2.8896,-2.9119,-2.906,-2.8957,-2.8762,-2.8911,-2.8994,-2.8994,-2.8994,-2.8815,-2.8402,-2.7879,-2.6767,-2.509,-2.4496,-2.3528,-2.2282,-2.2049,-2.1584,-2.0991,-2.0911,-2.0421,-1.969,-1.969,-1.969,-1.969,-1.969,-1.969,-1.969,-1.969,-1.969,-1.969,0.0,0.0,1.0098,1.0098,1.009,0.982,0.9022,0.8576,0.8071,0.7284,0.7164,0.7314,0.7711,0.8307,0.8683,0.8684,0.0,0.0,0.5734,0.4893,0.3583,0.1677,0.0625,-0.0649,-0.2211,-0.1635,-0.3097,-0.669,-0.4268,-0.3423,-0.4099,-0.3612,-0.2716,-0.1474,-0.0951,-0.0643,-0.0466,-0.0219,-0.0099,-0.0099,-0.0066,-0.0066,-0.0066,-0.0066,-0.0066,-0.0067,-0.0067,0.0,0.0,0.0,0.0446,-0.0262,-0.1481,-0.4249,0.0,-0.9499,-1.2816,-1.6069,-1.7242,0.0,-1.8144,-1.9043,-2.0542,-2.1823,-2.1914,-2.2569,-2.3378,-2.4257,-2.4394,-2.4609,-2.5449,-2.6212,-2.7017,-2.7851,-2.8647,-2.9429,-3.0294,-3.0398,-3.0311,-3.0028,-2.998,-2.998,0.0,-2.8342,-2.7589,-2.8378,-2.826,-2.8144,-2.8124,-2.8691,-2.8994,-2.8994,-2.8994,-2.8815,-2.8402,-2.7371,-2.6239,-2.5073,-2.3984,-2.3038,-2.2282,-2.1415,-2.1039,-2.0959,-2.01,-1.9741,-1.969,-1.969,-1.969,-1.969,-1.969,-1.969,-1.969,-1.969,-1.969,-1.969,0.0,0.0,0.0,1.0166,1.0175,0.9982,0.9449,0.8936,0.8398,0.7857,0.7679,0.0,0.0,0.0,0.0,0.0,0.0,0.7544,0.6371,0.5624,0.4657,0.3345,0.2275,0.1283,0.0305,0.0635,0.0132,-0.1295,0.0482,0.1246,0.1048,0.1258,0.1676,0.2215,0.1469,0.1174,0.1325,0.227,0.2656,0.2656,0.2656,0.298,0.3436,0.3436,0.345,0.3497,0.0,0.0,0.0,0.2873,0.2291,0.1016,-0.1517,0.0,0.0,-1.0909,-1.3446,-1.5234,-1.5795,0.0,-1.7855,-1.8267,-1.9626,-2.1026,-2.1625,-2.2018,-2.2647,-2.4106,-2.4372,-2.4629,-2.5449,-2.6286,-2.7095,-2.7935,-2.8722,-2.9532,-3.0413,-3.0529,-3.0488,-3.0344,-2.9822,0.0,0.0,0.0,0.0,-2.8654,-2.8449,-2.8015,-2.7345,-2.788,-2.797,-2.7438,-2.742,-2.7336,-2.721,-2.6573,-2.574,-2.4611,-2.3299,-2.2547,-2.2282,-2.1991,-2.1554,-2.0991,-2.0698,-2.0243,-1.969,-1.969,-1.969,-1.969,-1.969,-1.969,-1.969,-1.969,-1.969,-1.969,0.0,0.0,0.0,0.0,0.0,0.0,0.0,0.0,0.0,0.0,0.0,0.0,0.0,0.0,0.0,0.0,0.0,0.0,0.0,0.0,0.5983,0.5182,0.4428,0.375,0.3115,0.3792,0.4301,0.4573,0.628,0.68,0.6215,0.6221,0.5975,0.5499,0.4526,0.4065,0.4034,0.4715,0.5017,0.4979,0.4884,0.513,0.5619,0.5714,0.5769,0.0,0.0,0.0,0.0,0.4417,0.3483,0.2036,-0.147,-0.5152,-0.8882,-1.2395,-1.4028,-1.4719,-1.4955,-1.6314,-1.7699,-1.7808,-1.9118,-2.0521,-2.1091,-2.1278,-2.1708,-2.3166,-2.3728,-2.4199,-2.5019,-2.5863,-2.6704,-2.755,-2.8355,-2.918,-3.0016,-3.0405,-3.0587,-3.0545,-3.0032,-2.9896,0.0,0.0,0.0,-2.8919,-2.8384,-2.777,-2.7062,-2.7303,-2.7193,-2.6631,-2.6612,-2.6612,-2.6612,-2.5832,-2.4828,-2.3658,-2.272,-2.231,-2.2282,-2.2135,-2.1735,-2.1213,-2.1055,-2.0599,-1.9909,-1.9909,-1.9854,-1.969,-1.969,-1.969,-1.969,-1.969,-1.969,-1.969,0.0,0.0,0.0,0.0,0.0,0.0,0.0,0.0,0.0,0.0,0.0,0.0,0.0,0.0,0.0,0.0,0.0,0.0,0.0,0.0,0.0,0.7083,0.6934,0.666,0.6219,0.7758,0.9195,1.0474,1.261,1.2774,1.107,1.0979,1.0026,0.8346,0.8171,0.7903,0.7576,0.7159,0.6966,0.6916,0.6608,0.6478,0.6507,0.6848,0.0,0.0,0.0,0.0,0.0,0.0,0.0,0.0,0.0,0.0,-1.186,-1.3835,-1.4499,-1.4648,-1.4886,-1.6251,-1.7613,-1.7703,-1.9024,-2.0299,-2.0366,-2.041,-2.0729,-2.1618,-2.2539,-2.3418,0.0,0.0,-2.5905,-2.6813,-2.7601,-2.8403,-2.9255,-3.0077,-3.0598,0.0,0.0,0.0,0.0,0.0,0.0,-2.9193,0.0,-2.7438,-2.7164,-2.6988,-2.6784,-2.6484,-2.6484,-2.6484,-2.6484,-2.5075,-2.3667,-2.2321,-2.231,-2.231,-2.2282,-2.1823,-2.1612,-2.1582,-2.1181,-2.0764,-2.0348,-2.0314,-2.007,-1.9726,-1.9726,-1.969,-1.969,-1.969,-1.969,-1.969,0.0,0.0,0.0,0.0,0.0,0.0,0.0,0.0,0.0,0.0,0.0,0.0,0.0,0.0,0.0,0.0,0.0,0.0,0.0,0.0,0.0,0.0,0.0,0.8153,0.9111,1.0319,0.0,0.0,0.0,1.4224,1.357,1.3038,1.2466,1.1809,1.1097,1.0573,1.0187,0.9747,0.9304,0.8873,0.0,0.8862,0.9007,0.0,0.0,0.0,0.0,0.0,0.0,0.0,0.0,0.0,0.0,-0.7142,-1.2549,-1.4149,0.0,-1.4688,-1.5438,-1.6457,-1.7461,-1.8127,-1.9182,-2.0084,-2.0099,-2.0753,-2.1439,-2.1672,-2.2985,-2.412,0.0,0.0,0.0,-2.7543,-2.7975,0.0,-3.0069,-3.0499,0.0,-3.0619,0.0,-3.0657,-3.0581,-3.038,0.0,0.0,-2.9097,-2.7832,-2.6371,-2.6686,-2.6247,-2.487,-2.4814,-2.4814,-2.4814,-2.3939,-2.3207,-2.2599,-2.2415,-2.231,-2.2282,-2.218,-2.1928,-2.1582,-2.1491,-2.1213,-2.0781,-2.0449,-2.0246,-2.0124,-1.9818,-1.969,-1.969,-1.969,-1.969,-1.969,0.0,0.0,0.0,0.0,0.0,0.0,0.0,0.0,0.0,0.0,0.0,0.0,0.0,0.0,0.0,0.0,0.0,0.0,0.0,0.0,0.0,0.0,0.0,0.9278,1.0511,1.0878,0.0,0.0,0.0,0.0,0.0,1.438,1.4064,1.3775,1.3146,1.2689,1.2389,1.1797,0.0,0.0,0.0,0.0,0.0,0.0,0.0,0.0,0.0,0.0,0.0,0.0,0.0,-0.1579,-0.2882,-0.7712,-1.3099,-1.4164,0.0,-1.4538,-1.5538,-1.6515,-1.7442,-1.8335,-1.9275,-2.0022,-2.0115,-2.0911,-2.1662,-2.1698,-2.3093,0.0,-2.4199,-2.4864,0.0,0.0,0.0,0.0,-2.9355,-2.9885,-3.0155,0.0,-3.0175,0.0,-3.0131,-3.0438,-3.0456,0.0,-2.934,-2.8268,-2.6647,-2.6524,-2.5798,-2.4246,-2.419,-2.4132,-2.3976,-2.3459,-2.3021,-2.2695,-2.2426,-2.231,-2.231,-2.231,-2.2163,-2.1899,0.0,-2.1675,-2.1244,-2.0781,-2.0483,-2.0246,-1.9874,-1.969,-1.969,-1.969,-1.969,-1.969,0.0,0.0,0.0,0.0,0.0,0.0,0.0,0.0,0.0,0.0,0.0,0.0,0.0,0.0,0.0,0.0,0.0,0.0,0.0,0.0,0.0,0.0,0.0,1.0273,1.1352,1.0871,0.0,0.0,0.0,0.0,0.0,0.0,0.0,0.0,0.0,0.0,0.0,0.0,0.0,0.0,0.0,0.0,0.0,0.0,0.0,0.0,0.0,0.0,0.0,0.0,0.602,-0.1613,-0.3074,-0.8024,-1.3405,-1.4018,-1.4185,-1.4423,-1.5594,-1.6571,-1.7506,-1.8496,-1.9359,-2.0012,-2.0205,-2.1034,-2.1764,-2.1705,0.0,-2.4258,-2.4033,-2.4613,-2.5194,-2.5329,0.0,-2.7718,-2.8035,-2.8788,-2.9292,-2.9318,-2.9484,-2.957,-2.9513,-3.0135,-3.0182,-2.9303,-2.9117,-2.8502,-2.7233,-2.6439,-2.5448,-2.4246,-2.419,-2.4036,-2.3692,-2.3414,-2.3069,-2.2695,-2.2463,-2.2321,-2.231,-2.231,-2.231,-2.231,0.0,0.0,-2.1658,-2.1244,-2.0846,-2.0449,-1.9965,-1.9782,-1.9782,-1.9711,-1.969,-1.969,0.0,0.0,0.0,0.0,0.0,0.0,0.0,0.0,0.0,0.0,1.101,1.0683,0.0,0.0,0.0,0.0,0.0,0.0,0.0,0.0,0.0,0.0,0.0,0.0,0.0,0.0,0.0,0.0,0.0,0.0,0.0,0.0,0.0,0.0,0.0,0.0,0.0,0.0,0.0,0.0,0.0,0.0,0.0,0.0,0.0,0.0,0.0,0.0,0.0,0.0,0.6878,0.0569,-0.1495,-0.6984,-1.2854,-1.3904,-1.4398,-1.4942,-1.6499,-1.7044,-1.7496,-1.9039,-1.9644,-1.985,-1.9955,-2.1363,0.0,0.0,-2.3473,-2.4798,-2.4039,-2.4427,-2.5138,-2.596,-2.6374,-2.6891,-2.7807,0.0,-2.8282,0.0,0.0,0.0,0.0,0.0,0.0,0.0,0.0,-2.776,-2.6543,-2.6176,-2.5448,-2.4246,-2.419,-2.4036,-2.3692,-2.3649,-2.3323,-2.2695,-2.266,-2.2527,-2.231,-2.231,-2.231,-2.231,-2.231,0.0,-2.2135,-2.1688,-2.146,-2.129,-2.0516,-2.0193,-2.0158,-1.9818,-1.969,-1.969,0.0,0.0,0.0,0.0,0.0,0.0,0.0,1.114,1.1402,1.2209,1.2238,1.2153,1.2016,1.2304,1.2502,0.0,0.0,0.0,0.0,0.0,0.0,0.0,0.0,0.0,0.0,0.0,0.0,0.0,0.0,0.0,0.0,0.0,0.0,0.0,0.0,0.0,0.0,0.0,0.0,0.0,0.0,0.0,0.0,0.0,0.0,0.0,0.0,0.0,0.0,0.0,0.7625,0.2484,-0.081,-0.638,-1.2015,-1.3494,-1.4497,-1.5431,-1.6865,-1.7604,-1.8293,-1.9545,-1.9892,-1.9956,-2.012,0.0,0.0,0.0,-2.3836,-2.4956,-2.4451,-2.4518,0.0,-2.528,-2.5802,-2.6363,-2.6967,0.0,0.0,0.0,0.0,0.0,0.0,0.0,0.0,0.0,0.0,-2.7115,-2.6381,-2.5617,-2.4903,-2.4227,-2.419,-2.4113,-2.3958,-2.3795,-2.3544,-2.323,-2.2873,-2.2634,-2.25,-2.236,-2.231,-2.231,-2.231,0.0,-2.2254,-2.1794,-2.146,-2.1213,-2.055,-2.0193,-1.9965,-1.9782,-1.969,-1.969,0.0,0.0,0.0,0.0,0.0,0.0,0.0,1.1694,1.2031,1.2678,1.3116,1.337,1.3256,1.3444,1.3616,0.0,0.0,0.0,0.0,0.0,0.0,0.0,0.0,0.0,0.0,0.0,0.0,0.0,0.0,0.0,0.0,0.0,0.0,0.0,0.0,0.0,0.0,0.0,0.0,0.0,0.0,0.0,0.0,0.0,0.0,0.0,0.0,0.0,0.0,0.0,0.8346,0.3965,-0.0441,-0.5881,-1.1007,-1.2953,-1.4429,-1.5706,-1.6918,-1.7913,-1.8826,-1.9738,-1.992,-1.9993,-2.0495,-2.1753,0.0,0.0,-2.4147,-2.4898,-2.4727,-2.4557,-2.4426,0.0,-2.5113,-2.5763,-2.5984,0.0,0.0,0.0,0.0,0.0,0.0,0.0,0.0,0.0,0.0,0.0,-2.6066,-2.5102,-2.4444,-2.4209,-2.419,-2.419,-2.419,-2.3937,-2.3774,-2.3692,-2.3093,-2.2772,-2.2695,-2.2426,-2.231,-2.231,-2.231,0.0,0.0,-2.1899,-2.1568,-2.1229,-2.0682,-2.0261,-1.996,-1.9782,-1.969,-1.969,0.0,0.0,0.0,0.0,0.0,0.0,0.0,1.2093,1.2234,1.344,1.3484,1.3545,1.3956,1.365,1.3684,0.0,0.0,0.0,0.0,0.0,0.0,0.0,0.0,0.0,0.0,0.0,0.0,0.0,0.0,0.0,0.0,0.0,0.0,0.0,0.0,0.0,0.0,0.0,0.0,0.0,0.0,0.0,0.0,0.0,0.0,0.0,0.0,0.0,0.0,0.0,0.0,0.4671,-0.0134,-0.5189,-0.9841,-1.2196,0.0,0.0,-1.6693,-1.7497,-1.8222,-1.9223,-1.9451,-1.9782,-2.1013,0.0,-2.302,-2.3836,-2.4441,-2.4718,-2.4404,-2.4282,-2.4191,-2.4062,0.0,-2.4748,0.0,0.0,0.0,0.0,0.0,0.0,0.0,0.0,0.0,0.0,0.0,0.0,-2.4964,-2.4842,-2.4591,-2.4209,-2.419,-2.419,-2.419,-2.417,-2.3996,-2.3692,-2.3346,-2.2996,-2.2695,-2.2426,-2.231,-2.231,-2.231,0.0,0.0,-2.2237,-2.2209,-2.2106,-2.126,-2.0894,-2.0764,-1.998,-1.969,-1.969,0.0,0.0,0.0,0.0,0.0,0.0,1.1702,1.1532,1.1724,1.3056,1.2967,1.3343,1.4796,1.4433,1.4178,1.4469,0.0,0.0,0.0,0.0,0.0,0.0,0.0,0.0,0.0,0.0,0.0,0.0,0.0,0.0,0.0,0.0,0.0,0.0,0.0,0.0,0.0,0.0,0.0,0.0,0.0,0.0,0.0,0.0,0.0,0.0,0.0,0.0,0.0,0.0,0.0,0.0,0.1768,-0.2955,0.0,0.0,-1.4016,-1.5742,-1.6588,-1.7346,-1.8128,-1.9041,-1.907,-1.9348,-2.1165,0.0,-2.3058,-2.3918,-2.4468,-2.4756,-2.4625,-2.4391,-2.4171,-2.4116,-2.4338,-2.4591,-2.4836,0.0,0.0,0.0,0.0,0.0,0.0,0.0,0.0,0.0,0.0,0.0,-2.5004,-2.4858,-2.467,-2.4393,-2.4247,-2.419,-2.419,-2.419,-2.4113,-2.3996,-2.3671,-2.3323,-2.2996,-2.2678,-2.2436,-2.231,-2.231,0.0,0.0,-2.231,-2.2135,-2.1823,-2.1507,-2.1039,-2.055,-2.0193,-1.9909,-1.969,0.0,0.0,0.0,0.0,0.0,1.0392,1.1274,1.1347,1.1715,1.2806,1.3123,1.385,1.5401,1.5402,1.5244,1.5163,1.4744,0.0,0.0,0.0,0.0,0.0,0.0,0.0,0.0,0.0,0.0,0.0,0.0,0.0,0.0,0.0,0.0,0.0,0.0,0.0,0.0,0.0,0.0,0.0,0.0,0.0,0.0,0.0,0.0,0.0,0.0,0.0,0.0,0.0,0.0,0.0,0.0,0.0,0.0,0.0,-1.347,-1.5558,-1.6066,-1.6968,-1.7913,-1.8588,-1.8548,-1.895,0.0,-2.2313,-2.3026,-2.4146,-2.4555,-2.4697,-2.4659,-2.4408,-2.417,-2.4074,-2.4266,-2.4512,-2.476,-2.4877,0.0,0.0,0.0,0.0,0.0,0.0,0.0,0.0,0.0,0.0,0.0,-2.4972,-2.4756,-2.4512,-2.4357,-2.4247,-2.419,-2.419,-2.419,-2.4208,-2.3876,-2.3566,-2.3346,-2.2898,-2.2599,-2.2398,0.0,0.0,0.0,-2.231,-2.2106,-2.1794,-2.1538,-2.1039,-2.0483,-2.0227,-1.9929,-1.969,0.0,0.0,0.0,0.0,0.0,0.0,1.1263,1.1901,1.2472,1.3028,1.4374,1.5382,1.5677,1.653,1.6965,1.6697,1.535,0.0,0.0,0.0,0.0,0.0,0.0,0.0,0.0,0.0,0.0,0.0,0.0,0.0,0.0,0.0,0.0,0.0,0.0,0.0,0.0,0.0,0.0,0.0,0.0,0.0,0.0,0.0,0.0,0.0,0.0,0.0,0.0,0.0,0.0,0.0,0.0,0.0,0.0,0.0,-1.2104,-1.4673,-1.4942,-1.6201,-1.7463,-1.7665,-1.7818,-1.8669,-2.1621,-2.2398,-2.2985,-2.4648,-2.4718,-2.4456,-2.4325,-2.4265,-2.4094,-2.3774,-2.3996,-2.4339,-2.4746,-2.4804,0.0,0.0,0.0,0.0,0.0,0.0,0.0,0.0,0.0,0.0,0.0,-2.5137,-2.4845,-2.4512,-2.4495,-2.441,-2.419,-2.419,-2.419,-2.4208,-2.3876,-2.3692,-2.3671,-2.2996,-2.2695,0.0,0.0,0.0,0.0,-2.231,-2.231,-2.2209,-2.1354,-2.0991,-2.0894,-2.0015,-1.9711,-1.969,0.0,0.0,0.0,0.0,0.0,0.0,0.0,1.1146,1.1864,1.2605,1.389,1.5106,1.6015,1.6701,1.7199,1.7429,1.6555,0.0,0.0,0.0,0.0,0.0,0.0,0.0,0.0,0.0,1.629,1.7491,1.775,1.8231,0.0,0.0,0.0,0.0,0.0,0.0,0.0,0.0,0.0,0.0,0.0,0.0,0.0,0.0,0.0,0.0,0.0,0.0,0.0,0.0,0.0,0.0,0.0,0.0,0.0,-0.739,0.0,0.0,-1.4448,-1.5935,-1.7411,-1.8296,-1.836,-1.8929,-2.1773,-2.246,-2.2951,-2.4542,-2.4666,-2.4476,-2.4456,-2.4302,-2.417,-2.4074,-2.4113,0.0,0.0,0.0,0.0,0.0,0.0,0.0,0.0,0.0,0.0,0.0,0.0,0.0,0.0,-2.529,-2.5049,-2.4716,-2.4559,-2.441,-2.419,-2.419,-2.419,-2.419,-2.4094,-2.3795,-2.3346,-2.3141,0.0,0.0,0.0,0.0,0.0,-2.231,-2.2106,-2.1794,-2.1538,-2.1039,-2.0483,-2.0227,-1.9945,-1.969,0.0,0.0,0.0,0.0,0.0,0.0,0.0,1.1099,1.2044,1.2504,1.4053,1.5435,1.6273,1.6883,1.7378,1.7772,1.747,0.0,0.0,0.0,0.0,0.0,0.0,0.0,0.0,1.5945,1.6957,1.8388,1.8681,1.9165,1.9794,1.9676,1.9354,0.0,0.0,0.0,0.0,0.0,0.0,0.0,0.0,0.0,0.0,0.0,0.0,0.0,0.0,0.0,0.0,0.0,0.0,0.0,0.0,0.0,0.0,0.0,-0.9658,-1.2471,0.0,-1.5618,-1.725,-1.8106,-1.8206,-1.8778,-2.1449,-2.2124,-2.2614,-2.4179,-2.4441,-2.441,-2.4495,-2.4339,-2.419,-2.419,-2.4247,0.0,0.0,0.0,0.0,0.0,0.0,0.0,0.0,0.0,0.0,0.0,0.0,0.0,0.0,-2.5398,-2.5205,-2.4896,-2.4697,-2.4528,-2.4321,-2.4247,-2.419,-2.419,-2.419,-2.3976,-2.3566,-2.3323,0.0,0.0,0.0,0.0,0.0,-2.231,-2.2135,-2.1823,-2.1491,-2.1039,-2.0516,-2.0193,-1.9909,-1.969,0.0,0.0,0.0,0.0,0.0,0.0,0.0,1.1592,1.2773,1.2715,1.4681,1.6168,1.6403,1.6991,1.7485,1.7738,0.0,0.0,0.0,0.0,0.0,0.0,0.0,0.0,0.0,1.7233,1.8254,1.9186,1.9955,2.041,2.0586,2.0405,2.0369,2.0446,0.0,0.0,0.0,0.0,0.0,0.0,0.0,0.0,0.0,0.0,0.0,0.0,0.0,0.0,0.0,0.0,0.0,0.0,0.0,0.0,0.0,0.0,0.0,0.0,0.0,-1.5325,-1.7049,-1.7415,-1.7636,-1.8382,-2.0684,-2.1403,0.0,-2.3565,-2.4061,-2.4266,-2.4444,-2.4339,-2.419,-2.419,-2.4375,0.0,0.0,0.0,0.0,0.0,0.0,0.0,0.0,0.0,0.0,0.0,0.0,0.0,0.0,-2.5434,-2.529,-2.5027,-2.4891,-2.4716,-2.4512,-2.4303,-2.419,-2.419,-2.419,-2.419,-2.4151,-2.3522,0.0,0.0,0.0,0.0,0.0,-2.231,-2.2282,-2.218,-2.1323,-2.0959,-2.0829,-2.0015,-1.969,-1.969,0.0,0.0,0.0,0.0,0.0,0.0,0.0,0.0,0.0,0.0,1.4604,1.5872,1.5673,1.6567,1.7199,0.0,0.0,0.0,0.0,0.0,0.0,0.0,0.0,0.0,0.0,1.7473,1.8185,1.9128,1.9357,1.9837,2.0527,2.041,2.0395,2.0408,2.015,0.0,0.0,0.0,0.0,0.0,0.0,0.0,0.0,0.0,0.0,0.0,0.0,1.0775,0.0,0.0,0.0,0.0,0.0,0.0,0.0,0.0,-0.9692,-1.1763,-1.3656,0.0,-1.7672,-1.831,-1.8509,-1.8847,0.0,-2.0973,-2.1861,-2.2753,-2.3597,-2.4209,-2.4247,-2.4228,-2.419,-2.419,-2.4375,-2.4559,0.0,0.0,0.0,0.0,0.0,0.0,0.0,0.0,0.0,0.0,0.0,0.0,0.0,-2.5451,-2.5372,-2.5305,-2.5072,-2.4823,-2.4512,-2.4303,-2.419,-2.419,-2.419,-2.4074,-2.3816,-2.3649,0.0,0.0,0.0,0.0,-2.231,-2.231,-2.2106,-2.1718,-2.1181,-2.0797,-2.0382,-1.9874,-1.969,-1.969,0.0,0.0,0.0,0.0,0.0,0.0,0.0,0.0,0.0,0.0,0.0,1.536,1.5402,1.6094,0.0,0.0,0.0,0.0,0.0,0.0,0.0,0.0,0.0,0.0,1.7789,1.806,1.8626,1.9477,1.9599,1.9899,2.0371,2.0336,2.0293,2.0255,2.0184,0.0,0.0,0.0,0.0,0.0,0.0,0.0,0.0,0.0,0.0,0.0,0.8975,0.8352,0.0,0.4098,0.1723,-0.054,0.0,0.0,0.0,0.0,-1.1126,-1.2764,-1.4194,-1.6076,-1.7829,-1.8599,-1.8779,-1.9012,-1.9957,-2.0388,-2.0777,-2.1494,0.0,0.0,-2.3231,-2.3622,0.0,0.0,-2.4284,0.0,0.0,0.0,0.0,0.0,0.0,0.0,0.0,0.0,0.0,0.0,0.0,0.0,0.0,-2.5493,-2.5434,-2.5406,-2.5137,-2.4885,-2.4639,-2.4445,-2.4284,-2.419,-2.419,-2.4094,-2.3917,-2.3774,-2.3414,0.0,0.0,0.0,-2.231,-2.231,-2.2135,-2.1869,-2.126,-2.0829,-2.055,-1.9909,-1.969,-1.969,0.0,0.0,0.0,0.0,0.0,0.0,0.0,0.0,0.0,0.0,0.0,0.0,0.0,0.0,0.0,0.0,0.0,0.0,0.0,0.0,0.0,0.0,0.0,1.7937,1.857,1.8788,1.921,1.9868,2.0049,2.0134,2.0188,2.0188,2.0151,2.004,2.0005,2.0136,0.0,0.0,0.0,0.0,0.0,0.0,0.0,0.0,0.0,0.0,0.0,0.0,0.0,0.1413,-0.0969,-0.3304,-0.6663,0.0,0.0,0.0,0.0,0.0,-1.4668,-1.6158,-1.7686,-1.8444,-1.8725,-1.905,-2.0021,0.0,0.0,0.0,0.0,0.0,0.0,-2.3052,0.0,0.0,0.0,0.0,0.0,0.0,0.0,0.0,0.0,0.0,0.0,0.0,0.0,0.0,0.0,0.0,0.0,-2.5558,-2.5473,-2.5427,-2.5168,-2.4986,-2.4828,-2.4607,-2.4409,-2.4247,-2.4209,-2.419,-2.419,-2.3917,-2.3588,0.0,0.0,0.0,-2.2377,-2.2338,-2.231,-2.2209,-2.1323,-2.0991,-2.0894,-2.0015,-1.969,-1.969,0.0,0.0,0.0,0.0,0.0,0.0,0.0,0.0,0.0,0.0,0.0,0.0,0.0,0.0,0.0,0.0,0.0,0.0,0.0,0.0,0.0,0.0,1.9198,1.93,1.9408,1.9331,1.9481,1.9824,1.9787,1.9893,2.0132,2.0132,2.0025,1.9859,1.9948,2.0055,2.0133,0.0,0.0,0.0,0.0,0.0,0.0,0.0,0.0,0.0,0.0,0.0,0.0,-0.004,-0.2038,-0.3856,-0.6799,0.0,0.0,0.0,0.0,0.0,-1.4443,-1.5932,-1.7309,-1.7829,-1.8643,-1.9332,-1.9502,-2.0425,0.0,0.0,0.0,0.0,0.0,-2.3388,-2.3692,0.0,0.0,0.0,0.0,0.0,0.0,0.0,0.0,0.0,0.0,0.0,0.0,0.0,0.0,0.0,0.0,-2.5581,-2.5554,-2.5498,-2.5388,-2.5226,-2.4974,-2.4666,-2.4478,-2.4444,-2.4284,-2.419,-2.419,-2.4151,-2.3937,0.0,0.0,-2.2947,-2.2625,-2.2371,-2.231,-2.2209,-2.1323,-2.0991,-2.0894,-2.0015,-1.969,-1.969,0.0,0.0,0.0,0.0,0.0,0.0,0.0,0.0,0.0,0.0,0.0,0.0,0.0,0.0,0.0,0.0,0.0,0.0,0.0,0.0,0.0,1.9127,1.8822,1.873,1.895,1.8638,1.8618,1.887,1.885,1.9149,1.9719,1.9868,1.9894,1.9798,1.99,2.0002,2.0036,1.9087,0.0,0.0,0.0,0.0,0.0,0.0,0.0,0.0,0.0,0.0,0.0,0.0,-0.4256,-0.582,-0.8556,0.0,0.0,0.0,0.0,0.0,-1.4406,-1.5592,-1.6716,-1.6949,-1.8146,-1.9365,-1.9618,-1.9897,0.0,0.0,0.0,0.0,0.0,0.0,0.0,0.0,0.0,0.0,0.0,0.0,0.0,0.0,0.0,0.0,0.0,0.0,0.0,0.0,0.0,0.0,0.0,0.0,-2.4411,-2.4788,-2.473,-2.4844,-2.5163,-2.4898,-2.4678,-2.4495,-2.441,-2.4303,-2.419,-2.419,-2.4016,-2.3692,0.0,-2.3021,-2.2669,-2.2398,-2.2073,-2.1653,-2.1176,-2.0783,-2.0337,-1.9878,-1.969,-1.969,0.0,0.0,0.0,0.0,0.0,0.0,0.0,0.0,0.0,0.0,0.0,0.0,0.0,0.0,0.0,0.0,0.0,0.0,0.0,0.0,1.9305,1.8913,1.801,1.761,1.7805,1.7453,1.7253,1.7227,1.7524,1.8163,1.9156,1.984,2.0002,1.9781,2.0055,1.9921,1.9366,1.789,1.6,0.0,0.0,0.0,0.0,0.0,0.0,0.0,0.0,0.0,0.0,0.0,0.0,0.0,0.0,0.0,0.0,-1.3353,-1.3735,-1.3828,-1.4291,-1.5148,-1.5976,-1.6126,0.0,-1.919,-1.9718,-1.9434,0.0,0.0,0.0,0.0,0.0,0.0,0.0,0.0,0.0,0.0,0.0,0.0,0.0,0.0,0.0,0.0,0.0,0.0,0.0,0.0,0.0,0.0,0.0,0.0,-2.3454,-2.4202,-2.4152,-2.4505,-2.5312,-2.5163,-2.4898,-2.4559,-2.4528,-2.4393,-2.419,-2.419,-2.4074,-2.3795,-2.3459,-2.3117,-2.278,-2.2312,-2.1868,-2.1427,-2.0933,-2.0385,-1.9844,-1.9743,-1.969,-1.969,0.0,0.0,0.0,0.0,0.0,0.0,0.0,0.0,0.0,0.0,0.0,0.0,0.0,0.0,0.0,0.0,0.0,0.0,0.0,0.0,1.9633,1.8666,1.7381,1.6492,1.61,1.6056,1.5578,1.4665,1.5796,1.7045,1.8417,2.0318,2.0629,1.9668,2.0593,1.9745,1.7504,1.6217,1.411,0.0,0.0,0.0,0.0,0.0,0.0,0.0,0.0,0.0,0.0,0.0,0.0,0.0,0.0,0.0,-1.1993,-1.2978,-1.3267,-1.338,-1.3955,-1.4527,-1.5052,-1.5598,-1.7213,-1.8796,-1.9481,-1.976,0.0,-2.1226,0.0,0.0,0.0,0.0,0.0,0.0,0.0,0.0,0.0,0.0,0.0,0.0,0.0,0.0,0.0,0.0,0.0,0.0,0.0,0.0,0.0,0.0,0.0,-2.4271,-2.4222,-2.458,-2.5391,-2.5321,-2.5115,-2.4775,-2.4575,-2.4393,-2.419,-2.419,-2.419,-2.4151,-2.3816,-2.3459,-2.3088,-2.2073,-2.1876,-2.2074,-2.0562,-1.9871,-1.9722,-1.9696,-1.969,-1.969,0.0,0.0,0.0,0.0,0.0,0.0,0.0,0.0,0.0,0.0,0.0,0.0,0.0,0.0,0.0,0.0,0.0,0.0,0.0,0.0,1.7169,1.6041,1.4384,1.2889,1.1569,1.2862,1.365,1.3849,1.6047,1.7891,1.9376,2.0659,2.1061,2.0784,2.0737,1.8345,1.4208,1.2102,0.851,0.4112,0.0,0.0,0.0,0.0,0.0,0.0,0.0,0.0,0.0,0.0,-0.8638,-0.8905,0.0,-1.068,-1.1439,-1.2138,-1.2535,-1.2875,-1.3413,-1.4181,-1.4927,-1.5145,-1.6444,0.0,0.0,-1.9275,-1.9986,-2.0652,-2.0797,0.0,0.0,0.0,0.0,0.0,0.0,0.0,0.0,0.0,0.0,0.0,0.0,0.0,0.0,0.0,0.0,0.0,0.0,0.0,0.0,0.0,0.0,-2.2651,-2.2663,-2.3037,-2.385,-2.3769,-2.3619,-2.3385,-2.4266,-2.4575,-2.4375,-2.4266,-2.3933,-2.3437,-2.2929,-2.2349,-2.1715,-2.0942,-2.0705,-2.08,-2.0143,-1.9822,-1.9639,-1.9332,-1.9406,-1.9639,0.0,0.0,0.0,0.0,0.0,0.0,0.0,0.0,0.0,0.0,0.0,0.0,0.0,0.0,0.0,0.0,0.0,0.0,1.4945,1.5128,1.4739,1.3582,1.1969,1.0372,0.8786,1.0122,1.1153,1.1838,1.5343,1.7838,1.9372,2.0985,2.1441,2.0839,1.9399,1.5741,1.0412,0.6985,0.2721,-0.1823,-0.2924,-0.3704,0.0,0.0,0.0,0.0,0.0,0.0,0.0,0.0,-0.96,0.0,0.0,0.0,0.0,0.0,-1.2118,-1.2615,-1.3116,-1.3801,-1.4438,-1.4828,0.0,0.0,-1.7719,-1.8628,-1.9562,-2.0165,-2.0516,0.0,0.0,0.0,0.0,0.0,0.0,0.0,0.0,0.0,0.0,0.0,0.0,0.0,0.0,0.0,0.0,0.0,0.0,0.0,0.0,0.0,0.0,0.0,-2.17,-2.2111,-2.292,-2.2871,-2.2746,-2.2611,-2.3556,-2.3915,-2.3715,-2.3563,-2.318,-2.2593,-2.2118,-2.1512,-2.0866,-2.0366,-2.0077,-1.9965,-1.9999,-1.977,-1.934,-1.8826,-1.8863,-1.903,0.0,0.0,0.0,0.0,0.0,0.0,0.0,0.0,0.0,0.0,0.0,0.0,0.0,0.0,0.0,0.0,0.0,0.0,1.2625,1.2955,1.2677,1.1599,1.0519,0.9497,0.8505,0.8185,0.8101,0.8236,1.3241,1.646,1.7994,2.1327,2.1698,1.9404,1.6343,1.1824,0.6171,0.1023,-0.2763,-0.5426,-0.6904,-0.7216,0.0,0.0,0.0,0.0,0.0,0.0,0.0,0.0,-1.0397,-0.9705,0.0,0.0,0.0,-1.1519,-1.2138,-1.2615,-1.3138,-1.324,-1.3461,-1.4639,0.0,0.0,-1.7181,-1.8028,-1.9019,-2.0088,0.0,-2.1582,-2.1582,0.0,0.0,0.0,0.0,0.0,0.0,0.0,0.0,0.0,0.0,0.0,0.0,0.0,0.0,0.0,0.0,0.0,0.0,0.0,0.0,0.0,-2.1718,-2.2096,-2.2959,-2.2906,-2.2832,-2.2774,-2.2441,-2.2173,-2.199,-2.2009,-2.1914,-2.1767,-2.1498,-2.1175,-2.087,-2.0598,-2.0252,-1.9924,-2.0184,-1.9642,-1.8668,-1.8241,-1.8014,-1.777,0.0,0.0,0.0,0.0,0.0,0.0,0.0,0.0,0.0,0.0,0.0,0.0,0.0,0.0,0.0,0.0,0.0,0.0,0.7097,0.795,0.8298,0.784,0.7372,0.723,0.7454,0.8733,1.0097,1.1497,1.4326,1.6913,1.9274,2.1274,1.9838,1.5522,1.3796,0.7743,-0.1413,-0.434,-0.8035,-1.1943,-1.2623,-1.2732,0.0,0.0,0.0,0.0,0.0,0.0,0.0,0.0,0.0,0.0,0.0,0.0,0.0,-1.072,-1.1397,-1.21,-1.2578,-1.3264,0.0,-1.4727,0.0,0.0,0.0,-1.8642,0.0,0.0,-2.033,-2.0781,0.0,0.0,0.0,0.0,0.0,0.0,0.0,0.0,0.0,0.0,0.0,0.0,0.0,0.0,0.0,0.0,0.0,0.0,0.0,0.0,0.0,0.0,-2.0795,-2.0908,-2.1169,-2.1103,-2.1062,-2.1043,-2.0946,-2.135,-2.2192,-2.198,-2.1487,-2.0853,-2.0461,-1.9909,-1.9306,-1.9593,-1.9783,-1.9876,-1.9717,-1.9259,-1.8574,-1.7592,-1.7466,-1.7636,0.0,0.0,0.0,0.0,0.0,0.0,0.0,0.0,0.0,0.0,0.0,0.0,0.0,0.0,0.0,0.0,0.0,0.0,0.0,0.3972,0.4728,0.5187,0.5262,0.6161,0.7985,0.9772,1.1629,1.355,1.5175,1.702,1.9061,2.0183,1.7677,1.2113,0.9513,0.2804,-0.6739,-0.9486,-1.2705,-1.5972,-1.6303,-1.6033,-1.5475,0.0,0.0,0.0,0.0,0.0,0.0,0.0,0.0,0.0,-1.0273,0.0,-1.0333,-1.0557,-1.1159,-1.191,-1.2643,-1.3273,0.0,-1.5239,-1.6113,-1.6982,-1.8145,0.0,0.0,0.0,0.0,0.0,0.0,0.0,0.0,0.0,0.0,0.0,0.0,0.0,0.0,0.0,0.0,0.0,0.0,0.0,0.0,0.0,0.0,0.0,0.0,0.0,0.0,0.0,-2.0366,-2.041,-2.0402,-2.0359,-2.0338,-2.0306,-2.0211,-2.0604,-2.1384,-2.112,-2.0659,-1.9991,-1.9542,-1.9107,-1.871,-1.875,-1.9215,-1.9828,-1.9027,-1.8465,-1.7969,-1.7253,-1.6904,-1.6766,0.0,0.0,0.0,0.0,0.0,0.0,0.0,0.0,0.0,0.0,0.0,0.0,0.0,0.0,0.0,0.0,0.0,0.0,0.0,0.0,0.1839,0.3406,0.4375,0.6445,0.9795,1.1239,1.2812,1.453,1.5794,1.6928,1.7903,1.8683,1.5477,0.8834,0.4008,-0.2653,-1.0508,-1.4056,-1.6425,-1.7829,-1.8176,-1.7535,-1.6433,-1.706,0.0,0.0,0.0,0.0,0.0,0.0,0.0,0.0,-1.1805,-1.116,-1.0563,-1.0882,-1.1313,-1.1874,-1.2958,-1.3196,-1.3638,-1.5823,-1.6097,0.0,-1.8356,-1.9244,-1.9639,-1.969,0.0,0.0,0.0,0.0,0.0,0.0,0.0,0.0,0.0,0.0,0.0,0.0,0.0,0.0,0.0,0.0,0.0,0.0,0.0,0.0,0.0,0.0,0.0,-2.01,-2.0277,-2.0386,-2.0391,-2.0402,-2.037,0.0,-2.0099,-2.0003,-1.9983,-1.9847,-1.9612,-1.9243,-1.8807,-1.8728,-1.8894,-1.8107,-1.8598,-1.9654,-1.8187,-1.7349,-1.7002,-1.6987,-1.6355,-1.5517,0.0,0.0,0.0,0.0,0.0,0.0,0.0,0.0,0.0,0.0,0.0,0.0,0.0,0.0,0.0,0.0,0.0,0.0,0.0,0.0,-0.0442,0.174,0.5979,0.941,1.1758,1.3341,1.4309,1.4673,1.5883,1.694,1.7863,1.9475,1.4418,0.3768,-0.0911,-0.7302,-1.4661,-1.6238,-1.7232,-1.7826,-1.8186,-1.7649,-1.6739,-1.713,-1.6676,0.0,0.0,0.0,0.0,0.0,0.0,0.0,-1.2506,-1.1772,-1.132,-1.1057,-1.1082,-1.1271,-1.1893,-1.2659,0.0,0.0,-1.6065,-1.7197,-1.8076,-1.8688,-1.9207,-1.9603,0.0,0.0,0.0,0.0,0.0,0.0,0.0,0.0,0.0,0.0,0.0,0.0,0.0,0.0,0.0,0.0,0.0,0.0,0.0,0.0,0.0,0.0,0.0,-2.01,-2.0145,-2.024,-2.0391,-2.0408,-2.0377,0.0,-2.0257,-2.0099,-1.9836,-1.9688,-1.9423,-1.9052,-1.8752,-1.8831,-1.9138,-1.8186,-1.8323,-1.8967,-1.7486,-1.6686,-1.6304,-1.6272,-1.5862,-1.5351,0.0,0.0,0.0,0.0,0.0,0.0,0.0,0.0,0.0,0.0,0.0,0.0,0.0,0.0,0.0,0.0,0.0,0.0,0.0,0.0,-0.1171,0.2515,0.6989,1.0333,1.241,1.3768,1.4435,1.4346,1.4982,1.6011,1.7261,1.447,0.8839,0.0794,-0.5293,-1.1463,-1.7337,-1.7441,-1.7608,-1.7822,-1.7983,-1.7658,-1.705,-1.7056,-1.6639,-1.6011,-1.5856,0.0,0.0,0.0,0.0,0.0,0.0,0.0,-1.2227,-1.182,-1.1497,-1.1407,-1.1699,0.0,0.0,-1.3765,0.0,-1.6236,-1.677,-1.7161,-1.7571,0.0,0.0,0.0,0.0,0.0,0.0,0.0,0.0,0.0,0.0,0.0,0.0,0.0,0.0,0.0,0.0,0.0,0.0,0.0,0.0,0.0,0.0,-1.9032,-1.9484,-1.9651,-1.9953,-2.0179,-2.0311,-2.0366,-2.0401,-2.0387,-2.0327,-2.0131,-1.9778,-1.9545,-1.9292,-1.9002,-1.8715,-1.8678,-1.8694,-1.7715,-1.7748,-1.8235,-1.6801,-1.62,-1.6146,-1.635,-1.6135,-1.5819,0.0,0.0,0.0,0.0,0.0,0.0,0.0,0.0,0.0,0.0,0.0,0.0,0.0,0.0,0.0,0.0,0.0,0.0,0.0,-0.3659,-0.0905,0.3944,0.736,1.0215,1.2552,1.3603,1.3939,1.357,1.3297,1.3766,1.4806,0.8383,0.2947,-0.1742,-0.9497,-1.5088,-1.8674,-1.7997,-1.7743,-1.7811,-1.7811,-1.7595,-1.7272,-1.6942,-1.6581,-1.6274,-1.5926,-1.5799,-1.5799,-1.5799,0.0,0.0,0.0,0.0,-1.3128,-1.2659,-1.2084,-1.1617,-1.1821,0.0,-1.2044,-1.3006,-1.388,0.0,-1.5224,-1.5479,-1.5765,0.0,0.0,0.0,0.0,0.0,0.0,0.0,0.0,0.0,0.0,0.0,0.0,0.0,0.0,0.0,0.0,0.0,0.0,0.0,0.0,0.0,-1.7276,-1.82,-1.8764,-1.8809,-1.9341,-1.9653,-1.9753,-1.9892,-2.0078,-2.0277,-2.0245,-2.0071,-1.9778,-1.9462,-1.9214,-1.9035,-1.8716,-1.8469,-1.8208,-1.7256,-1.7203,-1.7588,-1.6351,-1.5951,-1.6079,-1.6598,-1.6453,-1.6077,0.0,0.0,0.0,0.0,0.0,0.0,0.0,0.0,0.0,0.0,0.0,-1.0885,-1.1819,-1.1228,0.0,0.0,0.0,0.0,-0.5679,0.0,0.0,0.388,0.6846,0.9922,1.3044,1.3752,1.338,1.191,1.0459,0.8976,0.7522,0.6808,0.2224,-0.5787,-1.3894,-1.7688,-1.7946,-1.7845,-1.7794,-1.7811,-1.7811,-1.7595,-1.7272,-1.6942,-1.6581,-1.6274,-1.5926,-1.5799,-1.5799,-1.5799,-1.577,0.0,0.0,0.0,0.0,-1.3128,-1.2103,-1.1197,-1.1606,0.0,-1.253,0.0,-1.3504,-1.3702,0.0,0.0,0.0,0.0,0.0,0.0,0.0,0.0,0.0,0.0,0.0,0.0,0.0,0.0,0.0,0.0,0.0,0.0,0.0,0.0,0.0,0.0,0.0,0.0,-1.622,-1.6695,-1.7034,-1.7209,-1.7498,-1.7753,-1.7953,-1.8146,-1.8615,-1.9372,-1.9767,-1.9897,-1.9778,-1.9462,-1.9289,-1.9227,-1.8789,-1.8566,-1.8489,-1.7608,-1.7273,-1.7281,-1.6532,-1.5996,-1.5728,-1.6061,-1.5662,-1.499,0.0,0.0,0.0,0.0,0.0,0.0,0.0,0.0,0.0,0.0,0.0,-1.1122,-1.1842,-1.1434,0.0,0.0,0.0,0.0,-0.5725,-0.3917,0.0,0.0,0.5198,0.8252,1.2257,1.2681,1.2153,1.0748,0.8175,0.5158,0.1785,-0.1223,-0.4377,-0.7903,-1.6132,-1.9377,-1.8701,-1.8665,-1.8324,-1.7811,-1.7811,-1.7956,-1.81,-1.7388,-1.7117,-1.7101,-1.6357,-1.5955,-1.5799,-1.5799,-1.5799,-1.577,-1.5551,0.0,0.0,0.0,-1.2681,-1.1664,-1.1077,-1.1267,-1.1685,0.0,-1.221,-1.2494,-1.2725,0.0,0.0,0.0,0.0,0.0,0.0,0.0,0.0,0.0,0.0,0.0,0.0,0.0,0.0,0.0,0.0,0.0,0.0,0.0,0.0,0.0,0.0,-1.56,-1.5171,-1.5853,-1.6299,-1.6393,-1.6846,-1.7122,-1.7215,-1.7555,-1.8214,-1.9147,-1.9815,-2.0019,-1.9809,-1.9645,-1.9419,-1.9117,-1.8753,-1.8508,-1.833,-1.7608,-1.7199,-1.6977,-1.6501,-1.6065,-1.5727,-1.5669,-1.5586,-1.5414,0.0,0.0,0.0,0.0,0.0,0.0,0.0,0.0,0.0,0.0,0.0,0.0,-1.1367,0.0,0.0,0.0,0.0,0.0,-0.576,0.0,0.0,0.0,0.0,0.662,1.0978,1.1396,1.0952,0.9677,0.6188,0.2192,-0.2394,-0.7672,-1.0203,-1.0654,-1.7451,-1.9981,-1.9157,-1.9056,-1.8671,-1.8082,-1.8082,-1.8403,-1.8819,-1.812,-1.8042,-1.8178,-1.7085,-1.6493,-1.6182,0.0,-1.5885,0.0,0.0,0.0,0.0,0.0,0.0,0.0,0.0,0.0,-1.0539,-1.0539,-1.0854,-1.1175,0.0,0.0,0.0,0.0,0.0,0.0,0.0,0.0,0.0,0.0,0.0,0.0,0.0,0.0,0.0,0.0,0.0,0.0,0.0,0.0,0.0,0.0,0.0,-1.4596,-1.4043,-1.4845,-1.5314,-1.5314,-1.5868,-1.6202,-1.6265,-1.6946,-1.78,-1.8808,-1.9561,-1.9904,-1.9863,-1.979,-1.9472,-1.8948,-1.8698,-1.8489,-1.8249,-1.7585,-1.715,-1.6876,-1.6336,-1.5966,-1.5683,-1.5296,-1.5302,-1.5389,0.0,0.0,0.0,0.0,0.0,0.0,0.0,0.0,0.0,0.0,0.0,0.0,0.0,0.0,0.0,0.0,0.0,0.0,0.0,0.0,0.0,0.0,0.0,0.0,0.9261,1.0399,1.0134,0.8481,0.4569,0.0218,-0.4554,-0.8759,-1.233,-1.5267,-1.8057,-1.896,-1.8449,-1.8391,-1.8543,-1.8843,-1.8843,-1.886,-1.8937,-1.9249,-1.9409,-1.9289,-1.8195,-1.7599,0.0,0.0,0.0,0.0,0.0,-1.5477,-1.5013,0.0,0.0,0.0,0.0,-0.9932,0.0,-0.9594,-0.9585,0.0,0.0,0.0,0.0,0.0,0.0,0.0,0.0,0.0,0.0,0.0,0.0,0.0,0.0,0.0,0.0,0.0,0.0,0.0,0.0,0.0,0.0,0.0,0.0,-1.2745,-1.2713,-1.3172,-1.3447,-1.3447,-1.3963,-1.4332,-1.4533,-1.5819,-1.6965,-1.7967,-1.8582,-1.9306,-2.0057,-1.9748,-1.9324,-1.8803,-1.8662,-1.8585,-1.8508,-1.7636,-1.7296,-1.7158,-1.6068,-1.5649,-1.555,-1.4951,-1.4417,-1.402,0.0,0.0,0.0,0.0,0.0,0.0,0.0,0.0,0.0,0.0,0.0,0.0,0.0,-1.0482,-1.0746,-1.0033,0.0,0.0,0.0,0.0,0.0,0.0,0.0,0.0,0.0,0.8119,0.8413,0.6278,0.2757,-0.0972,-0.4889,-0.8965,-1.2157,-1.4612,-1.7512,-1.8659,-1.8408,-1.8868,-1.9128,0.0,-1.9504,-1.9925,-2.0331,-1.9967,-1.9967,-2.0075,-1.9241,0.0,0.0,0.0,0.0,0.0,-1.5885,-1.5477,-1.4831,-1.3557,-1.2248,0.0,0.0,0.0,0.0,-0.9518,-0.9239,-0.9119,0.0,0.0,0.0,0.0,0.0,0.0,0.0,0.0,0.0,0.0,0.0,0.0,0.0,0.0,0.0,0.0,0.0,0.0,0.0,0.0,0.0,0.0,0.0,0.0,-1.261,-1.2746,-1.2928,-1.3087,-1.3409,-1.3856,-1.44,-1.5602,-1.6426,-1.69,-1.832,-1.91,-1.9277,-1.9724,-1.9703,-1.9295,-1.889,-1.8364,-1.7726,-1.7422,-1.7052,-1.6591,-1.5874,-1.5462,-1.5196,-1.4477,-1.4073,-1.3861,0.0,0.0,0.0,0.0,0.0,0.0,0.0,0.0,0.0,-0.7139,0.0,0.0,0.0,0.0,-1.1668,-1.0885,-0.9317,-0.8098,-0.7386,0.0,0.0,0.0,0.0,0.0,0.0,0.5308,0.5914,0.4207,0.1368,-0.1808,-0.5262,-0.8725,-1.1539,-1.3754,-1.6227,-1.7724,-1.8484,-1.8936,0.0,-1.9789,0.0,-2.0581,-2.1187,-2.0889,-2.1005,-2.121,0.0,0.0,0.0,0.0,0.0,0.0,-1.5847,-1.5003,-1.3899,-1.236,-1.1355,0.0,-1.039,0.0,0.0,0.0,0.0,-0.8513,0.0,0.0,0.0,0.0,0.0,0.0,0.0,0.0,0.0,0.0,0.0,0.0,0.0,0.0,0.0,0.0,0.0,0.0,0.0,0.0,0.0,0.0,0.0,0.0,-1.2336,-1.2416,-1.2626,-1.2995,-1.321,-1.3598,-1.4186,-1.5083,-1.5763,-1.6247,-1.7844,-1.8709,-1.892,-1.9417,-1.9592,-1.9494,-1.8683,-1.8099,-1.7704,-1.7304,-1.6876,-1.6394,-1.5549,-1.5107,-1.4783,-1.3967,-1.3568,-1.3399,0.0,0.0,0.0,0.0,0.0,0.0,0.0,0.0,-0.7365,-0.7869,0.0,0.0,0.0,0.0,0.0,-1.2929,-1.1699,-1.0827,-1.0463,-0.9251,0.0,0.0,0.0,0.0,0.0,0.1906,0.2515,0.2173,0.0276,-0.2427,-0.587,-0.8119,-1.0612,-1.3227,-1.4224,-1.609,-1.8534,-1.8401,-1.9183,-2.0467,0.0,-2.08,-2.1295,0.0,-2.2463,0.0,-2.1564,-2.1179,0.0,-1.9418,0.0,0.0,0.0,-1.3994,-1.2213,-1.1251,-1.0599,-1.0186,0.0,0.0,0.0,0.0,0.0,0.0,0.0,0.0,0.0,0.0,0.0,0.0,0.0,0.0,0.0,0.0,0.0,0.0,0.0,0.0,0.0,0.0,0.0,0.0,0.0,0.0,0.0,0.0,0.0,-1.247,-1.1813,-1.2045,-1.2431,-1.2961,-1.3192,-1.3441,-1.3782,-1.4186,-1.4951,-1.6062,-1.7085,-1.8082,-1.9012,-1.8783,-1.8923,-1.9266,-1.794,-1.7843,-1.8473,-1.7287,-1.6789,-1.6617,-1.5077,-1.4501,-1.4374,-1.3514,-1.2908,-1.2508,0.0,0.0,0.0,0.0,0.0,-0.1588,-0.3347,-0.5579,-0.7533,0.0,0.0,0.0,-1.3689,-1.4291,-1.4463,-1.4059,-1.3082,-1.2241,-1.1668,-1.1775,-1.1479,-1.0596,-0.831,-0.7074,-0.7118,-0.3951,-0.2483,-0.2821,-0.3479,-0.4769,-0.6626,-0.8041,-1.017,-1.2772,-1.3404,-1.4915,-1.6951,-1.7161,0.0,-1.9766,-2.0339,-2.0941,0.0,0.0,0.0,0.0,0.0,-2.1644,-2.1022,0.0,-1.9079,-1.7926,0.0,-1.3753,-1.213,-1.0798,-1.0089,-0.9628,-0.9239,0.0,0.0,0.0,0.0,0.0,0.0,0.0,0.0,0.0,0.0,0.0,0.0,0.0,0.0,0.0,0.0,0.0,0.0,0.0,0.0,0.0,0.0,0.0,0.0,0.0,0.0,0.0,-1.19,-1.184,-1.1452,-1.1924,-1.2271,-1.2412,-1.2804,-1.316,-1.3442,-1.3886,-1.4366,-1.4893,-1.6144,-1.6875,-1.7162,-1.776,-1.8011,-1.7926,-1.7312,-1.7297,-1.768,-1.7073,-1.6454,-1.5834,-1.4864,-1.431,-1.3954,-1.3022,-1.2615,-1.2389,0.0,0.0,0.0,0.0,-0.1599,-0.2309,-0.4188,-0.6653,-0.8903,0.0,0.0,0.0,-1.577,-1.6486,-1.6677,-1.6203,-1.5179,-1.4395,-1.399,-1.3599,-1.3301,-1.316,-1.1505,-1.0783,-1.121,-0.885,-0.7512,-0.7303,-0.7051,-0.7459,-0.8498,-0.9166,-1.058,-1.2577,-1.3034,-1.4027,-1.5319,-1.5702,0.0,0.0,-2.0485,0.0,0.0,-2.2209,-2.236,0.0,0.0,0.0,-2.1674,-2.0749,-1.9294,0.0,0.0,0.0,0.0,-1.0107,-0.9323,0.0,-0.8757,0.0,0.0,0.0,0.0,0.0,0.0,-0.6735,0.0,0.0,0.0,0.0,0.0,0.0,0.0,0.0,0.0,0.0,0.0,0.0,0.0,0.0,0.0,0.0,0.0,0.0,0.0,-1.1776,-1.1966,-1.182,-1.116,-1.1327,-1.16,-1.1978,-1.2258,-1.2606,-1.3001,-1.3467,-1.3799,-1.3987,-1.5433,-1.6157,-1.6249,-1.6894,-1.7271,-1.7405,-1.6694,-1.6615,-1.6939,-1.6237,-1.5902,-1.5747,-1.4679,-1.3973,-1.3483,-1.2766,-1.2079,-1.1424,0.0,0.0,-0.0721,-0.2207,-0.2863,-0.3736,-0.5298,-0.8309,-1.1125,0.0,-1.5141,-1.7054,-1.861,-1.9483,-1.9707,-1.9036,-1.7754,-1.7026,-1.7075,-1.5315,-1.4483,-1.4984,-1.4113,-1.3559,-1.3452,-1.3047,-1.2342,-1.1302,-1.0427,-1.033,-1.0912,-1.0893,-1.1486,-1.2603,-1.2943,-1.3412,-1.3934,-1.4479,0.0,-1.9714,-2.0479,-2.1346,0.0,0.0,-2.2436,-2.2608,-2.2388,-2.2436,-2.2485,-2.1366,-1.9061,0.0,0.0,0.0,0.0,0.0,-0.8782,0.0,-0.8658,-0.7496,0.0,0.0,0.0,0.0,-0.5288,-0.5599,0.0,0.0,0.0,0.0,0.0,0.0,0.0,0.0,0.0,0.0,0.0,0.0,0.0,0.0,0.0,0.0,0.0,-1.162,-1.2083,-1.1733,-1.2184,-1.1994,-1.084,-1.0487,-1.0688,-1.1512,-1.1534,-1.1849,-1.2459,-1.2914,-1.321,-1.3317,-1.4745,-1.5554,-1.5765,-1.5974,-1.6474,-1.7136,-1.6026,-1.5836,-1.6184,-1.498,-1.5081,-1.5836,-1.4304,-1.3385,-1.2889,-1.233,-1.1324,-1.0079,0.0,-0.2992,-0.2511,-0.3757,-0.3958,-0.4874,-0.7715,-1.0592,-1.3374,-1.5993,-1.8807,-2.0854,-2.1677,-2.1315,-2.1259,-2.1911,-2.0361,-1.9532,-2.0033,-1.8934,-1.824,-1.8197,-1.8,-1.7788,-1.7545,-1.7107,-1.6055,-1.4408,-1.3595,-1.2904,-1.2295,-1.1732,-1.1989,-1.2982,-1.2731,-1.3126,-1.3987,-1.5469,0.0,-1.7546,-1.8858,0.0,-2.1323,-2.202,-2.2321,-2.236,-2.2338,-2.2321,-2.2231,-2.1306,-1.928,-1.691,0.0,0.0,0.0,-1.088,-1.0105,-0.9572,-0.8743,0.0,0.0,0.0,0.0,0.0,-0.5168,-0.4909,-0.4604,0.0,0.0,0.0,0.0,0.0,0.0,0.0,0.0,0.0,0.0,0.0,0.0,0.0,0.0,0.0,0.0,-1.149,-1.1652,-1.1125,-1.103,-1.0737,-1.0137,-1.0294,-1.043,-1.0575,-1.0572,-1.088,-1.1564,-1.202,-1.2361,-1.2606,-1.3382,-1.393,-1.4243,-1.4482,-1.4837,-1.5214,-1.483,-1.4981,-1.5393,-1.3815,-1.3811,-1.4616,-1.3156,-1.2362,-1.1818,-1.0411,-1.005,-0.9913,-0.684,-0.5709,-0.5237,-0.6375,-0.663,-0.7688,-1.0579,-1.3462,-1.607,-1.8223,-2.0898,-2.2572,-2.2469,-2.259,-2.2719,-2.2793,-2.1941,-2.1349,-2.1272,-2.0776,-2.027,-1.9769,-1.9788,-1.9687,-1.9497,-1.9171,-1.8389,-1.7147,-1.6022,-1.502,-1.4093,-1.3166,-1.306,-1.3559,-1.3076,-1.3288,-1.4055,0.0,-1.5753,-1.6837,-1.8842,0.0,-2.088,-2.1661,-2.2106,-2.231,-2.231,-2.1814,-2.1088,-2.0619,-1.8812,0.0,0.0,-1.4411,-1.2732,0.0,-1.0517,-1.0071,-0.9136,0.0,0.0,-0.6787,0.0,0.0,0.0,-0.4148,-0.3489,-0.353,0.0,0.0,0.0,0.0,0.0,0.0,0.0,0.0,0.0,0.0,0.0,0.0,0.0,0.0,0.0,-1.0278,-1.047,-1.0118,-0.986,-0.9686,-0.9611,-0.9186,-0.9321,-1.0073,-0.971,-0.9831,-1.0545,-1.0929,-1.1256,-1.155,-1.2255,-1.2807,-1.3214,-1.3768,-1.4043,-1.4123,-1.4488,-1.455,-1.4331,-1.3498,-1.3075,-1.2884,-1.1628,-1.0656,-0.9824,-0.9334,-0.8343,-0.6997,-0.9708,-0.8776,-0.8503,-0.958,-1.0041,-1.1055,-1.3644,-1.6363,-1.8713,-2.0381,-2.241,-2.3474,-2.2867,-2.3556,-2.3851,-2.3331,-2.2992,-2.2617,-2.2127,-2.1952,-2.159,-2.0951,-2.0806,-2.0698,-2.0589,-2.0225,-1.9779,-1.9231,-1.7778,-1.6659,-1.5805,-1.4602,-1.4083,-1.4205,-1.3619,0.0,0.0,0.0,0.0,-1.6536,0.0,-2.0144,-2.0629,-2.1231,-2.1681,-2.1928,-2.1894,-2.1014,-1.9879,-1.9759,-1.8241,-1.6267,-1.5621,-1.4327,0.0,0.0,0.0,0.0,0.0,0.0,0.0,0.0,0.0,-0.5439,0.0,0.0,0.0,-0.2573,0.0,0.0,0.0,0.0,0.0,0.0,0.0,0.0,0.0,0.0,0.0,0.0,0.0,0.0,0.0,-0.869,-0.8941,-0.8994,-0.8769,-0.8729,-0.9018,-0.8082,-0.8096,-0.9396,-0.8755,-0.8709,-0.9383,-0.9667,-0.9878,-1.0085,-1.079,-1.1363,-1.1794,-1.2305,-1.2537,-1.2565,-1.3134,-1.2687,-1.1529,-1.1423,-1.0433,-0.8994,-0.9369,-0.8649,-0.741,-0.7474,-0.5777,-0.3265,-1.3376,-1.2319,-1.2121,-1.3416,-1.3572,-1.4304,-1.673,-1.8792,-2.0915,-2.3213,-2.4025,-2.4463,-2.4664,0.0,0.0,0.0,0.0,0.0,-2.3863,0.0,-2.2831,-2.2789,-2.2051,-2.1659,-2.1633,-2.0682,-2.0135,-2.0062,-1.8461,-1.7496,-1.7067,-1.5258,-1.4492,-1.462,-1.419,0.0,0.0,0.0,-1.5538,0.0,-1.7612,-1.9151,0.0,-2.0894,-2.0917,-2.0659,-2.037,-1.991,-1.9421,0.0,-1.799,-1.6529,0.0,-1.431,-1.3477,0.0,0.0,0.0,0.0,0.0,0.0,0.0,-0.7885,0.0,0.0,0.0,-0.3735,-0.2725,0.0,0.0,0.0,0.0,0.0,0.0,0.0,0.0,0.0,0.0,0.0,0.0,0.0,0.0,0.0,0.0,-0.7402,-0.7931,-0.7931,-0.7968,-0.8148,-0.7798,-0.7646,-0.7753,-0.7384,-0.7396,-0.7855,-0.8167,-0.8159,-0.7783,-0.8171,-0.849,-0.8764,-0.8263,-0.8418,-0.9038,-0.824,-0.6583,-0.4415,-0.3942,-0.2018,0.0077,-0.5629,-0.6612,-0.4601,-0.2752,-0.1398,-0.0259,-1.5367,-1.4802,-1.494,-1.5662,-1.6309,-1.7279,-1.8966,-2.0969,-2.2746,-2.3964,-2.4338,0.0,0.0,0.0,0.0,0.0,0.0,-2.4303,0.0,0.0,-2.3569,-2.3121,-2.275,-2.2294,-2.175,-2.1117,-2.0667,-2.0426,-1.8941,-1.7862,-1.7164,-1.5738,-1.4971,-1.48,-1.3902,0.0,-1.4833,0.0,-1.4853,0.0,0.0,0.0,0.0,-1.9807,-2.0012,-1.9855,-1.9496,-1.8983,-1.8508,0.0,-1.7165,0.0,0.0,0.0,0.0,0.0,0.0,0.0,0.0,0.0,0.0,0.0,0.0,0.0,-0.8047,0.0,-0.4416,0.0,0.0,0.0,0.0,0.0,0.0,0.0,0.0,0.0,0.0,0.0,0.0,0.0,0.0,0.0,0.0,0.0,0.0,0.0,0.0,-0.6145,-0.6868,-0.6245,-0.6118,-0.6677,-0.5995,-0.5815,-0.6203,-0.6063,-0.6024,-0.6059,-0.6121,-0.6321,-0.6593,-0.6179,-0.5936,-0.5828,-0.4825,-0.3137,-0.0937,0.108,0.4715,0.8666,0.5404,0.2447,0.0187,0.1108,0.2299,0.3708,-1.7426,0.0,-1.7646,-1.7906,-1.8831,-1.9941,-2.1102,-2.2667,-2.3816,-2.4151,0.0,0.0,-2.4775,-2.4877,0.0,0.0,-2.5387,-2.5175,0.0,0.0,-2.4427,-2.3848,-2.3574,-2.3139,-2.2449,-2.1687,-2.1141,-2.0862,-1.9321,-1.8188,-1.7391,-1.6118,-1.5383,-1.507,-1.4034,-1.4034,-1.4784,0.0,-1.4542,-1.5107,-1.5917,-1.6954,-1.8106,-1.8814,-1.9088,-1.9088,-1.8643,-1.8095,-1.7578,-1.754,-1.6517,0.0,-1.4607,0.0,0.0,0.0,0.0,0.0,-1.3435,0.0,0.0,0.0,0.0,0.0,0.0,0.0,0.0,0.0,0.0,0.0,0.0,0.0,0.0,0.0,0.0,0.0,0.0,0.0,0.0,0.0,0.0,0.0,0.0,0.0,0.0,0.0,0.0,0.0,-0.5562,-0.4695,-0.461,-0.5492,-0.4582,-0.4125,-0.432,-0.3977,-0.3789,-0.3713,-0.3588,-0.363,-0.3739,-0.3166,-0.2665,-0.216,-0.0905,0.0957,0.3286,0.561,0.9524,1.3929,1.3021,0.9888,0.5869,0.574,0.6197,0.7156,-2.0143,-2.0365,0.0,-2.0575,-2.1204,-2.2125,-2.3388,-2.3653,-2.3816,-2.4151,0.0,0.0,0.0,0.0,0.0,0.0,0.0,-2.5489,-2.545,0.0,-2.5644,-2.5625,-2.4805,-2.4334,0.0,-2.2459,-2.1472,-2.1477,-1.9672,-1.8593,-1.8207,-1.6366,-1.5544,-1.5657,-1.5108,-1.4836,-1.4808,-1.4796,-1.5057,-1.558,-1.5612,-1.6544,-1.7942,0.0,-1.8254,-1.8173,-1.7571,0.0,0.0,-1.6821,-1.6293,0.0,0.0,0.0,0.0,0.0,0.0,0.0,0.0,0.0,0.0,-1.53,0.0,0.0,0.0,0.0,-0.7356,0.0,0.0,0.0,0.0,0.0,0.0,0.0,0.0,0.0,0.0,0.0,0.0,0.0,0.0,0.0,0.0,0.0,0.0,0.0,0.0,0.0,-0.4366,-0.361,-0.3433,-0.4054,-0.3147,-0.2469,-0.209,-0.209,-0.1432,-0.0162,-0.0162,0.0032,0.0447,0.1756,0.2336,0.2405,0.425,0.6805,0.9728,1.0152,1.1886,1.4199,1.3256,1.268,1.2336,1.1758,1.0626,0.9545,0.0,0.0,0.0,0.0,0.0,-2.2656,-2.3846,-2.4016,-2.4074,0.0,0.0,0.0,0.0,-2.4877,-2.503,0.0,0.0,-2.5493,-2.5493,-2.5631,0.0,0.0,0.0,-2.4998,0.0,-2.3573,-2.2956,-2.2562,-2.1326,-2.0401,-1.9723,-1.7837,-1.6637,-1.6058,0.0,-1.4506,0.0,0.0,0.0,0.0,0.0,-1.6334,-1.7468,0.0,0.0,-1.7539,-1.7109,-1.6892,0.0,-1.6789,-1.647,-1.5877,-1.4843,-1.4578,-1.4496,-1.3596,-1.3954,0.0,0.0,0.0,-1.5197,-1.5552,0.0,0.0,0.0,0.0,0.0,0.0,0.0,0.0,0.0,0.0,0.0,0.0,0.0,0.0,0.0,0.0,0.0,0.0,0.0,0.0,0.0,0.0,0.0,0.0,0.0,0.0,0.0,-0.1123,-0.1235,-0.1937,-0.1159,-0.072,-0.0692,-0.0099,0.0426,0.0887,0.1724,0.2203,0.236,0.3951,0.4801,0.5132,0.7474,0.9394,1.1027,1.2282,1.3448,1.4418,1.4289,1.4008,1.3532,1.2162,1.1925,1.2455,-2.2842,0.0,0.0,0.0,0.0,-2.3584,-2.43,0.0,0.0,0.0,-2.441,0.0,-2.4795,0.0,-2.5065,0.0,-2.5406,-2.5463,-2.5508,-2.5603,0.0,-2.5703,-2.5703,0.0,0.0,-2.4397,-2.3862,-2.3274,-2.2299,-2.1462,-2.0745,-1.8817,-1.7518,-1.6746,0.0,-1.4627,-1.3851,-1.4451,-1.4155,0.0,0.0,-1.6137,0.0,0.0,-1.7178,-1.7378,0.0,-1.6607,-1.6633,-1.6763,-1.6659,-1.6336,-1.5602,-1.5403,-1.5316,-1.4479,-1.4615,-1.5017,-1.477,-1.4919,0.0,-1.5583,-1.4975,0.0,-1.4217,0.0,0.0,0.0,0.0,0.0,0.0,0.0,0.0,0.0,0.0,0.0,0.0,0.0,0.0,0.0,0.0,0.0,0.0,0.0,0.5292,0.4142,0.0,0.0,0.0,0.0,0.0931,-0.0077,0.0773,0.1222,0.1188,0.1716,0.2237,0.2687,0.3524,0.4066,0.4434,0.5778,0.6693,0.7263,0.9391,1.0861,1.1878,1.3302,1.4146,1.4563,1.4863,1.4768,1.433,1.321,1.3551,1.4723,0.0,0.0,0.0,0.0,-2.4238,0.0,0.0,0.0,-2.4575,0.0,-2.4461,-2.4391,-2.4858,-2.4905,-2.501,-2.5274,-2.5354,-2.5415,-2.5484,-2.5561,0.0,0.0,-2.5703,-2.5703,-2.5703,-2.4874,-2.4207,0.0,0.0,0.0,-2.1357,-1.9386,-1.8192,-1.7753,-1.6612,0.0,-1.3836,-1.4482,-1.4376,-1.3862,-1.5096,-1.5884,-1.6338,-1.6144,-1.6732,-1.755,-1.6611,-1.6301,-1.6382,-1.6712,-1.6815,-1.6747,-1.6349,-1.6184,-1.6018,-1.5211,-1.497,-1.4996,-1.5022,-1.5068,-1.5151,-1.5469,0.0,0.0,0.0,0.0,-1.3469,0.0,0.0,0.0,0.0,0.0,0.0,0.0,0.0,0.0,0.0,0.0,0.0,0.0,0.0,0.0,0.0,0.0,0.7762,0.5598,0.5439,0.0,0.0,0.0,0.2952,0.1464,0.2573,0.3251,0.3371,0.3399,0.4039,0.523,0.5269,0.5736,0.6579,0.7384,0.8122,0.8817,1.0151,1.1358,1.2493,1.3344,1.4057,1.4631,1.4961,1.5058,1.498,1.5063,1.5567,1.6347,-2.4667,-2.4523,-2.4464,0.0,-2.452,-2.4623,0.0,0.0,0.0,0.0,-2.4693,-2.4747,-2.4828,-2.5049,-2.5233,-2.5284,-2.5313,0.0,0.0,0.0,0.0,-2.5611,-2.5662,-2.5703,-2.5703,-2.5381,0.0,-2.4784,0.0,0.0,-2.2901,-2.1174,-1.9886,0.0,0.0,0.0,-1.5134,-1.5255,-1.447,-1.3238,-1.4468,-1.5252,0.0,0.0,-1.6261,-1.6982,-1.6219,-1.6246,-1.6722,-1.7011,-1.7126,-1.7085,-1.665,-1.6191,-1.5684,-1.4916,-1.4688,-1.4639,-1.436,-1.4374,-1.4534,-1.4914,-1.4589,-1.4294,0.0,0.0,0.0,0.0,0.0,0.0,0.0,0.0,0.0,0.0,0.0,0.0,0.0,0.0,0.0,0.0,0.0,0.0,0.0,0.0,1.0399,0.9015,0.0,0.0,0.0,0.0,0.0,0.3124,0.4164,0.4584,0.4279,0.4865,0.5328,0.5652,0.6303,0.6892,0.7413,0.8163,0.8881,0.9575,1.0674,1.1722,1.2681,1.3405,1.4069,1.4705,1.4998,1.5479,1.6039,1.6207,1.6381,1.6761,-2.505,0.0,0.0,-2.479,0.0,0.0,-2.485,0.0,0.0,-2.4896,-2.4883,0.0,-2.5019,-2.5201,-2.5303,-2.5303,-2.5303,0.0,-2.5406,0.0,0.0,-2.5601,-2.5634,-2.5659,-2.5659,-2.5554,0.0,-2.5297,0.0,0.0,-2.3308,-2.1949,0.0,0.0,0.0,-1.778,-1.5966,-1.5629,-1.4824,-1.3752,-1.4687,0.0,0.0,-1.5504,-1.5951,-1.6459,-1.575,-1.6065,-1.6841,-1.6978,-1.7239,-1.7415,-1.6838,-1.6409,-1.5922,-1.4864,-1.4549,-1.4443,-1.3897,-1.3832,-1.3991,-1.4227,-1.4086,-1.4094,-1.4757,-1.4945,-1.4896,0.0,0.0,0.0,0.0,0.0,0.0,0.0,0.0,0.0,0.0,0.0,0.0,0.0,0.0,0.0,0.0,0.0,0.0,0.0,0.0,0.0,0.0,0.0,0.0,0.5053,0.5866,0.6034,0.5425,0.5883,0.6182,0.6364,0.6862,0.7413,0.7984,0.854,0.9242,1.007,1.079,1.1713,1.2689,1.3159,1.3782,1.4476,1.492,1.5438,1.6037,1.6894,1.7283,1.7479,-2.4972,0.0,0.0,0.0,0.0,0.0,0.0,-2.5022,0.0,-2.5274,0.0,-2.4981,-2.5264,-2.5303,-2.5303,-2.5303,0.0,-2.5321,-2.5383,-2.5459,-2.5503,-2.5567,-2.5573,-2.5595,-2.5595,-2.5511,0.0,0.0,0.0,-2.4043,-2.3228,-2.2182,0.0,0.0,0.0,0.0,0.0,-1.6005,-1.5351,-1.4869,-1.5443,-1.5676,-1.56,-1.5517,-1.5768,-1.6003,-1.5329,-1.5838,-1.6799,-1.6728,-1.714,-1.7507,-1.6723,-1.6431,-1.6157,-1.4766,-1.436,-1.4225,-1.3583,-1.3509,-1.363,-1.363,-1.3824,-1.4194,-1.4963,-1.5329,-1.5656,-1.6185,-1.6588,-1.6416,0.0,0.0,0.0,0.0,0.0,0.0,0.0,0.0,0.0,0.0,0.0,0.0,0.0,0.0,0.0,0.0,0.0,0.0,0.0,0.0,0.0,0.6943,0.7424,0.0,0.6693,0.0,0.682,0.7178,0.7178,0.7589,0.8365,0.8662,0.9348,1.0332,1.0774,1.1571,1.2597,1.286,1.3418,1.4199,1.4794,1.5125,1.5475,1.7109,1.7898,1.821,0.0,0.0,0.0,0.0,0.0,-2.4716,-2.4898,-2.5118,-2.5264,-2.5303,-2.5243,-2.5233,-2.5284,-2.5303,-2.5303,-2.5303,-2.5303,0.0,0.0,0.0,0.0,-2.5441,-2.5498,-2.5526,-2.5526,-2.5459,-2.5408,0.0,-2.4941,-2.4512,-2.4048,0.0,0.0,0.0,0.0,0.0,-1.817,-1.7263,0.0,-1.5428,-1.6034,-1.6003,-1.56,-1.5517,-1.5768,-1.6003,-1.5329,-1.5838,-1.6744,-1.6352,-1.6531,-1.6706,-1.5555,-1.5052,-1.4716,-1.3836,-1.3599,-1.3566,-1.3447,-1.362,-1.3856,-1.3856,-1.4203,-1.4603,-1.4743,-1.4914,-1.5066,-1.523,-1.5869,-1.6369,-1.6208,0.0,0.0,0.0,0.0,0.0,0.0,0.0,0.0,0.0,0.0,0.0,0.0,0.0,0.0,0.0,0.0,0.0,0.0,0.0,0.0,0.0,0.8031,0.0,0.0,0.0,0.7539,0.7598,0.7598,0.7994,0.8706,0.8761,0.9387,1.0421,1.0992,1.1692,1.2485,1.3004,1.3669,1.4375,1.4592,1.4865,1.526,1.6356,1.722,1.8081,0.0,0.0,0.0,0.0,0.0,0.0,0.0,-2.5115,0.0,-2.5303,-2.5303,-2.5303,-2.5303,-2.5303,-2.5303,-2.5303,-2.5303,-2.5303,-2.5303,-2.5363,-2.5406,-2.5406,-2.5434,0.0,-2.5453,-2.5383,-2.5292,-2.5197,-2.4943,-2.4456,-2.3768,0.0,0.0,-2.1201,0.0,-2.0279,0.0,0.0,0.0,-1.6876,-1.7164,-1.7136,-1.6798,-1.6157,-1.6154,-1.6389,-1.5424,-1.5724,-1.6444,-1.5878,-1.601,-1.6218,-1.4902,-1.448,-1.436,-1.3633,-1.3396,-1.3396,-1.3396,-1.3573,-1.3766,-1.3867,-1.4183,-1.4501,-1.4756,-1.4841,-1.4936,-1.5087,-1.5479,-1.5895,-1.6218,-1.5796,0.0,0.0,0.0,0.0,0.0,0.0,0.0,0.0,0.0,0.0,0.0,0.0,0.0,0.0,0.0,0.0,0.0,0.0,0.0,0.0,0.0,0.0,0.0,0.0,0.0,0.7695,0.7695,0.8004,0.8551,0.8706,0.928,1.0146,1.0818,1.1461,1.2095,1.2951,1.3532,1.3899,1.4221,1.456,1.5011,1.6447,1.7273,1.7898,0.0,-2.419,0.0,0.0,-2.4321,0.0,-2.4855,-2.5126,-2.5303,-2.5303,-2.5303,-2.5303,-2.5303,-2.5303,-2.5303,-2.5303,-2.5303,-2.5303,-2.5303,-2.5357,-2.5387,-2.5387,-2.5376,-2.5376,-2.5376,-2.5321,-2.5203,0.0,0.0,0.0,0.0,0.0,0.0,0.0,0.0,0.0,0.0,0.0,-1.9317,-1.843,-1.843,-1.8218,-1.7788,-1.6784,-1.6543,-1.6594,-1.5599,-1.5667,-1.6083,-1.5406,-1.5542,-1.5726,-1.4318,-1.4059,-1.4157,-1.3583,-1.3396,-1.3396,-1.3396,-1.3493,-1.3648,-1.3813,-1.4051,-1.4332,-1.4699,-1.4867,-1.4968,-1.5121,-1.5199,-1.5399,-1.5898,-1.6075,0.0,0.0,0.0,0.0,0.0,0.0,0.0,0.0,0.0,0.0,0.0,0.0,0.0,0.0,0.0,0.0,0.0,0.0,0.0,0.0,0.0,0.8936,0.8516,0.0,0.7793,0.0,0.7695,0.7928,0.8319,0.8578,0.9066,0.9753,1.0383,1.1061,1.177,1.2662,1.3177,1.343,1.3813,1.4168,1.4722,1.6614,1.739,1.765,0.0,0.0,0.0,0.0,0.0,0.0,-2.5243,-2.5274,-2.5303,-2.5303,-2.5303,-2.5303,-2.5303,-2.5303,-2.5303,-2.5303,-2.5303,-2.5303,-2.5303,-2.5313,-2.5303,-2.5303,-2.5303,-2.5303,-2.5303,-2.5293,-2.5203,0.0,0.0,0.0,0.0,0.0,0.0,0.0,0.0,0.0,0.0,-2.1133,-2.0317,-1.9462,-1.9462,-1.8526,-1.7184,-1.6952,-1.6513,-1.6038,-1.5832,-1.5799,-1.5751,-1.5061,-1.5008,-1.4948,-1.3538,-1.3291,-1.3498,-1.343,-1.3396,-1.3396,-1.3396,-1.3493,-1.36,-1.3615,-1.3998,-1.4389,-1.4434,-1.4728,-1.5007,-1.5002,-1.5016,-1.5147,-1.5577,-1.4928,-1.4938,0.0,0.0,0.0,0.0,0.0,0.0,0.0,0.0,0.0,0.0,0.0,0.0,0.0,0.0,0.0,0.0,0.0,0.0,1.0244,0.0,0.933,0.8945,0.8535,0.8115,0.7695,0.7695,0.7928,0.829,0.8336,0.8745,0.9437,0.9753,1.0593,1.1728,1.2061,1.2662,1.3328,1.3415,1.3736,1.4387,1.6332,1.7049,1.7337,0.0,0.0,0.0,0.0,0.0,0.0,0.0,-2.4651,-2.4651,-2.4651,-2.5037,-2.5243,-2.5077,-2.5065,-2.5077,-2.513,-2.5111,-2.5163,-2.5284,-2.5303,-2.5303,-2.5303,-2.5303,-2.5303,-2.5303,-2.5173,-2.5041,0.0,0.0,-2.4528,-2.4303,0.0,0.0,0.0,0.0,-2.2237,-2.2068,-2.1579,-2.0991,-2.0434,-2.0112,-1.9632,-1.8901,-1.7806,-1.7243,-1.6922,-1.6084,-1.5799,-1.5722,-1.5263,-1.5252,-1.5289,-1.4325,-1.4338,-1.4631,-1.4191,-1.395,-1.376,-1.3481,-1.3312,-1.3295,-1.3539,-1.3849,-1.416,-1.4354,-1.4622,-1.4839,-1.4925,-1.4774,-1.4697,-1.4846,-1.4777,-1.5074,0.0,0.0,0.0,0.0,0.0,0.0,0.0,0.0,0.0,0.0,0.0,0.0,0.0,0.0,0.0,0.0,0.0,0.0,1.0351,0.0,0.918,0.9004,0.833,0.79,0.7695,0.7695,0.7783,0.7947,0.8205,0.8789,0.9636,0.9741,1.0343,1.1259,1.1679,1.2061,1.2399,1.2953,1.3342,1.3861,1.5796,1.6693,1.7207,-2.4247,0.0,-2.419,0.0,-2.419,-2.419,-2.419,-2.419,-2.419,-2.419,-2.4648,-2.4904,-2.4718,-2.4762,-2.4845,-2.4924,-2.4974,-2.5046,-2.5203,-2.5264,-2.5303,-2.5303,-2.5303,0.0,-2.5303,-2.5099,-2.4924,-2.4804,-2.4591,0.0,-2.419,0.0,0.0,0.0,-2.3392,-2.2905,-2.2398,-2.1994,-2.1477,-2.0959,-2.0649,-2.0224,-1.9691,-1.8443,-1.7742,-1.7279,-1.6383,-1.5963,-1.5781,-1.5637,-1.5728,-1.5756,-1.5059,-1.5134,-1.5358,-1.4836,-1.4327,-1.3877,-1.3551,-1.3234,-1.3069,-1.3345,-1.3661,-1.3965,-1.4197,-1.4493,-1.4698,-1.4747,-1.4561,-1.4336,-1.4192,-1.4392,-1.4808,-1.5545,0.0,0.0,0.0,0.0,0.0,0.0,-0.7897,-0.4956,-0.2374,0.0,0.0,0.0,0.0,0.0,0.0,0.0,0.0,0.0,0.0,0.0,0.0,0.7819,0.7534,0.7539,0.7539,0.7598,0.7725,0.8119,0.8695,0.9377,0.9572,1.0021,1.0616,1.1102,1.1468,1.1749,1.2368,1.2915,1.3593,1.5384,1.6349,1.7044,-2.419,-2.419,-2.419,-2.419,-2.419,-2.419,-2.419,-2.419,-2.419,-2.419,-2.4209,-2.4209,-2.4209,-2.4445,-2.4657,-2.479,-2.4911,-2.501,-2.4991,-2.5192,-2.5303,0.0,0.0,-2.5303,-2.5303,-2.5099,-2.4924,-2.4804,0.0,0.0,-2.419,0.0,-2.419,-2.417,-2.35,-2.3189,-2.3159,-2.2561,-2.1781,-2.0991,-2.0991,-2.0075,-1.8717,-1.8702,-1.7861,-1.6726,-1.6697,-1.6323,-1.5856,-1.6191,-1.6285,-1.6144,-1.544,-1.5155,-1.5096,-1.5117,-1.4383,-1.361,-1.361,-1.3313,-1.3013,-1.3013,-1.3459,-1.3913,-1.3913,-1.4332,-1.4629,-1.4453,-1.44,-1.4241,-1.3721,-1.3443,-1.3715,-1.4912,0.0,0.0,0.0,0.0,0.0,0.0,-1.0913,-0.9055,-0.7285,0.0,0.0,0.0,0.0,0.0,0.0,0.0,0.0,0.8248,0.8206,0.0,0.7123,0.7114,0.7121,0.7118,0.7118,0.7305,0.7725,0.8119,0.8308,0.8365,0.9101,0.9557,0.9843,1.0259,1.0931,1.1685,1.1707,1.2488,1.3758,1.5112,1.603,1.6864,-2.419,-2.419,-2.419,-2.419,-2.419,-2.419,-2.419,-2.419,-2.419,-2.419,-2.419,-2.419,-2.419,-2.4284,-2.4393,0.0,-2.4636,-2.4708,0.0,-2.5005,-2.5053,-2.4949,-2.5061,-2.5041,-2.4949,-2.4752,-2.4636,-2.461,0.0,0.0,0.0,-2.419,-2.4074,-2.3837,-2.3392,-2.3069,-2.2822,-2.2108,-2.1658,-2.1368,-2.0748,-2.0224,-1.9722,-1.9004,-1.8164,-1.7324,-1.6876,-1.6323,-1.5856,-1.6191,-1.6301,-1.6305,-1.6287,-1.629,-1.6169,-1.5662,-1.4842,-1.3996,-1.3675,-1.3034,-1.253,-1.2906,-1.3244,-1.3539,-1.3661,-1.3938,-1.4139,-1.4069,-1.3832,-1.3598,-1.3427,-1.3089,-1.3255,-1.4594,-1.4475,0.0,0.0,0.0,0.0,0.0,-1.2705,-1.1422,0.0,-0.8119,0.0,0.0,0.0,0.0,0.0,0.0,0.0,0.0,0.7928,0.0,0.7114,0.684,0.6688,0.6691,0.6691,0.691,0.7305,0.7705,0.8033,0.8319,0.88,0.9197,0.9583,1.0172,1.0796,1.1435,1.2097,1.3008,1.4115,1.5501,1.6403,1.7132,-2.419,-2.419,-2.419,-2.419,-2.419,-2.419,-2.419,-2.419,-2.419,-2.419,-2.419,-2.419,-2.419,-2.419,0.0,-2.4375,-2.4444,-2.4543,-2.4685,-2.4836,-2.4891,-2.4804,-2.4877,-2.4877,-2.4804,0.0,0.0,-2.4495,-2.4303,-2.419,-2.419,-2.419,-2.4016,-2.3692,-2.3346,-2.293,-2.2441,-2.1861,-2.1413,-2.1054,-2.0516,-2.0227,-2.0008,-1.9316,-1.8672,-1.7981,-1.7309,-1.6667,-1.6143,-1.6268,-1.6219,-1.6163,-1.6501,-1.6528,-1.6369,-1.6034,-1.523,-1.4375,-1.3814,-1.3131,-1.2598,-1.2687,-1.3,-1.3361,-1.3646,-1.3795,-1.3885,-1.3795,-1.3539,-1.3278,-1.321,-1.2781,-1.2894,-1.43,-1.4256,-1.446,-1.5672,0.0,0.0,0.0,0.0,0.0,0.0,-1.0822,0.0,0.0,0.0,0.0,0.0,0.0,0.0,0.6959,0.6926,0.0,0.6437,0.6412,0.6408,0.6435,0.6484,0.6721,0.7118,0.7373,0.7705,0.8091,0.8606,0.8953,0.9247,1.0146,1.0899,1.156,1.2388,1.3371,1.4504,1.5638,1.6442,1.7122,-2.419,-2.419,0.0,0.0,-2.419,0.0,-2.419,-2.419,-2.419,-2.419,-2.419,-2.417,-2.4151,-2.4132,-2.4151,-2.417,0.0,0.0,0.0,-2.467,-2.4775,-2.476,-2.4775,-2.4775,-2.476,-2.4559,-2.4478,-2.4478,-2.4284,-2.419,-2.419,-2.417,-2.3996,-2.3649,-2.3305,-2.2762,-2.204,-2.1715,-2.1054,-2.0314,-2.028,-2.0035,-1.969,-1.969,-1.9271,-1.8612,-1.7921,-1.7279,-1.6668,-1.6366,-1.6067,-1.5841,-1.6163,-1.6039,-1.5827,-1.6163,-1.5567,-1.4648,-1.4049,-1.3539,-1.3034,-1.2422,-1.2759,-1.3345,-1.3721,-1.381,-1.3766,-1.3569,-1.3378,-1.3176,-1.2979,-1.2558,-1.2657,-1.392,-1.3975,-1.4119,-1.4932,0.0,0.0,0.0,0.0,0.0,0.0,-1.2982,-1.0815,0.0,0.0,0.0,0.0,0.0,0.4728,0.4908,0.5389,0.555,0.5303,0.5856,0.6185,0.6297,0.6411,0.6703,0.7095,0.7098,0.7314,0.7754,0.8484,0.8811,0.8962,1.0192,1.12,1.1974,1.2513,1.3584,1.4881,1.5546,1.6223,1.6952,0.0,0.0,-2.419,-2.419,-2.419,-2.419,-2.419,-2.419,-2.419,-2.419,-2.419,-2.3996,-2.3482,-2.3455,-2.3544,-2.3795,-2.4095,-2.4266,-2.4266,-2.4461,-2.4512,-2.4339,-2.4495,-2.4495,-2.4358,-2.4303,-2.4266,-2.4266,-2.4228,-2.419,-2.419,-2.3937,-2.3649,-2.3282,-2.2972,-2.2415,-2.1685,-2.1306,-2.0813,-2.028,-1.9965,-1.9782,-1.969,-1.969,-1.9271,-1.8612,-1.7921,-1.7279,-1.6607,-1.6111,-1.5885,-1.5799,-1.587,-1.5624,-1.5344,-1.5784,-1.539,-1.4752,-1.4603,-1.3765,-1.2909,-1.2944,-1.2871,-1.2783,-1.2895,-1.2913,-1.2878,-1.284,-1.2633,-1.2435,-1.2392,-1.2537,-1.2831,-1.3352,-1.3772,-1.4184,-1.4578,-1.4627,0.0,0.0,-1.4564,-1.4528,-1.4612,-1.3214,-1.1567,0.0,0.0,0.0,0.0,0.0768,0.2797,0.4822,0.502,0.5156,0.5303,0.5447,0.5744,0.6219,0.6311,0.6568,0.694,0.7063,0.7314,0.7754,0.8484,0.9029,0.9464,1.0351,1.1311,1.2324,1.275,1.376,1.5009,1.5465,1.6292,1.7231,-2.419,-2.419,-2.4014,-2.3445,-2.3312,-2.3535,-2.4094,-2.3707,-2.3312,-2.3312,-2.3312,-2.3312,-2.3212,-2.294,-2.2982,-2.3414,-2.3774,-2.4054,-2.419,-2.4303,-2.4247,-2.3996,-2.4078,-2.402,-2.3735,-2.3735,-2.3816,-2.3976,-2.3816,-2.3816,-2.3958,-2.3628,-2.3282,-2.2972,-2.26,-2.2029,-2.1306,-2.0846,-2.0431,-2.0,-1.9782,-1.969,-1.969,-1.969,-1.9465,-1.9076,-1.8403,-1.7712,-1.7024,-1.6201,-1.5728,-1.5448,-1.5255,-1.5043,-1.4876,-1.5134,-1.4949,-1.4602,-1.4299,-1.368,-1.3107,-1.2968,-1.2553,-1.2249,-1.2537,-1.261,-1.261,-1.261,-1.2643,-1.2669,-1.2669,-1.2847,-1.3111,-1.3523,-1.3742,-1.3917,-1.4196,-1.4214,0.0,-1.4214,-1.4214,-1.4159,-1.399,-1.3017,-1.1597,-0.9617,0.0,0.0,-0.2299,-0.0478,0.1546,0.3814,0.4409,0.4739,0.4909,0.5286,0.5718,0.6189,0.6236,0.638,0.6628,0.686,0.7317,0.7953,0.851,0.9199,0.9995,1.0833,1.1765,1.271,1.3211,1.4077,1.5107,1.5461,1.6231,1.7126,-2.419,-2.4054,-2.358,-2.2497,-2.231,-2.2651,-2.375,-2.2993,-2.231,-2.231,-2.231,-2.248,-2.3014,-2.2624,-2.2535,-2.3069,-2.3392,-2.3692,-2.4016,-2.4054,-2.3917,-2.3649,-2.361,-2.35,-2.3212,-2.3189,-2.3346,-2.361,-2.3346,-2.3346,-2.3628,-2.3277,-2.2947,-2.2574,-2.2207,-2.1606,-2.0862,-2.0483,-2.007,-1.969,-1.969,-1.9639,-1.9566,-1.9566,-1.953,-1.9353,-1.8702,-1.8091,-1.7449,-1.643,-1.5727,-1.5191,-1.4828,-1.4644,-1.4543,-1.4543,-1.441,-1.4201,-1.3789,-1.3583,-1.3342,-1.2748,-1.2211,-1.194,-1.2479,-1.2582,-1.2582,-1.2582,-1.2851,-1.3084,-1.3084,-1.3249,-1.35,-1.3842,-1.3801,-1.3709,-1.3782,0.0,-1.3802,-1.3802,-1.3657,-1.3439,-1.3039,-1.2459,-1.1151,-0.8813,-0.7113,-0.5178,0.0,-0.1111,0.0586,0.2268,0.3507,0.4231,0.4387,0.5251,0.5836,0.6107,0.6179,0.6271,0.6382,0.6663,0.7293,0.8236,0.8537,0.9345,1.0506,1.1335,1.2242,1.308,1.3605,1.4246,1.4968,1.5316,1.5973,1.6747,-2.419,-2.3312,-2.2525,-2.2338,-2.231,-2.2366,-2.2561,-2.2432,-2.231,-2.231,-2.231,-2.2338,-2.2415,-2.2349,-2.2426,-2.2746,-2.2822,-2.2996,-2.3346,-2.3369,-2.3346,-2.3277,-2.3277,-2.3236,-2.3189,-2.3189,-2.323,-2.3277,-2.323,-2.323,-2.3259,-2.2947,-2.2574,-2.218,-2.1816,-2.1212,-2.0416,-2.0348,-2.007,-1.969,-1.969,-1.9442,-1.9006,-1.9006,-1.8727,-1.8257,-1.7604,-1.7288,-1.7084,-1.6366,-1.6033,-1.5915,-1.588,-1.5294,-1.4663,-1.4663,-1.4059,-1.3535,-1.4169,-1.3929,-1.3336,-1.2678,-1.2457,-1.2414,-1.2481,-1.2507,-1.2507,-1.2507,-1.2564,-1.2607,-1.2607,-1.3452,-1.3901,-1.3218,-1.3881,-1.4227,-1.3408,0.0,-1.3288,-1.3288,-1.2626,-1.2246,-1.2555,-1.1453,-1.0313,-0.9331,-0.7992,-0.6225,-0.4036,-0.2144,-0.0589,0.0558,0.2154,0.3436,0.4387,0.5251,0.5733,0.5772,0.6046,0.6382,0.6715,0.6767,0.7293,0.8236,0.8537,0.9552,1.1024,1.1487,1.2289,1.3175,1.3263,1.3648,1.4117,1.4519,1.5374,1.6343,-2.3188,-2.2703,-2.231,-2.231,-2.231,-2.231,-2.231,-2.231,-2.231,-2.231,-2.231,-2.231,-2.231,-2.231,-2.2349,-2.249,-2.2231,-2.2169,-2.2334,-2.288,-2.3117,-2.2947,-2.2923,-2.2865,-2.2738,-2.2712,-2.2798,-2.2923,-2.2798,-2.2781,-2.2923,-2.2361,-2.2017,-2.1816,-2.118,-2.0667,-2.028,-1.9743,-1.9434,-1.9244,-1.8968,-1.8688,-1.8458,-1.8458,-1.8341,-1.8064,-1.7749,-1.7408,-1.7016,-1.6504,-1.6059,-1.5731,-1.5522,-1.5166,-1.4747,-1.4439,-1.3647,-1.2896,-1.3306,-1.2999,-1.25,-1.2329,-1.2252,-1.2201,-1.2131,-1.2315,-1.2428,-1.2188,-1.2599,-1.3046,-1.3046,-1.3857,-1.4279,-1.3565,-1.3981,0.0,0.0,-1.3198,-1.3198,-1.3198,-1.2572,-1.2165,-1.2115,-1.0877,-0.9714,-0.8802,-0.7258,-0.5764,-0.438,-0.2707,-0.1418,-0.0638,0.1532,0.3082,0.3895,0.4968,0.5556,0.5711,0.6335,0.6657,0.6691,0.6852,0.747,0.8485,0.8619,0.9598,1.1093,1.1569,1.2177,1.2838,1.3094,1.3615,1.4246,1.4438,1.5256,1.6309,-2.231,-2.231,-2.231,-2.231,-2.231,-2.231,-2.231,-2.231,-2.231,-2.231,-2.218,-2.2077,-2.2077,-2.1991,-2.1915,-2.1991,-2.1675,-2.146,-2.146,-2.2218,-2.2565,-2.2334,-2.2289,-2.2258,-2.2135,-2.2135,-2.2298,-2.2599,-2.2398,-2.2343,-2.2432,-2.1861,-2.1491,-2.1259,-2.0601,-2.0177,-1.9919,-1.9214,-1.8817,-1.8688,-1.8263,-1.8027,-1.7907,-1.7907,-1.7827,-1.7747,-1.7747,-1.7423,-1.6914,-1.6613,-1.6166,-1.5698,-1.5372,-1.5087,-1.4821,-1.4399,-1.3335,-1.2325,-1.2317,-1.2037,-1.1754,-1.1977,-1.1987,-1.192,-1.1833,-1.2078,-1.223,-1.1864,-1.2499,-1.3093,-1.3093,-1.371,-1.4072,-1.3646,0.0,0.0,0.0,-1.3094,-1.306,-1.306,-1.2542,-1.2047,-1.1653,-1.037,-0.9235,-0.8362,-0.6795,-0.5462,-0.4546,-0.3192,-0.2061,-0.1177,0.1228,0.2761,0.3327,0.4417,0.5188,0.551,0.6315,0.6678,0.66,0.6887,0.7641,0.8716,0.8716,0.9579,1.1046,1.159,1.2066,1.2544,1.3012,1.3682,1.4374,1.447,1.5181,1.6203,-2.231,-2.231,-2.231,-2.231,-2.231,-2.231,-2.231,-2.231,-2.231,-2.231,-2.1811,-2.1477,-2.1477,-2.1039,-2.0812,-2.1055,-2.1055,-2.1023,-2.1023,-2.1102,-2.1165,-2.115,-2.1118,-2.1306,-2.1642,-2.1658,-2.1882,-2.2321,-2.231,-2.2106,-2.1672,-2.1612,-2.1165,-2.0366,-2.0348,-1.9814,-1.9006,-1.893,-1.8612,-1.8185,-1.8145,-1.7787,-1.7353,-1.7353,-1.7034,-1.6637,-1.6637,-1.657,-1.6532,-1.6502,-1.6464,-1.6439,-1.6396,-1.5654,-1.4791,-1.4755,-1.332,-1.1762,-1.1823,-1.1825,-1.1791,-1.1827,-1.183,-1.1807,-1.1807,-1.1843,-1.1832,-1.1807,-1.1866,-1.1925,-1.1925,-1.237,-1.2715,-1.2615,0.0,0.0,-1.3169,-1.2838,-1.2544,-1.2544,-1.1757,-1.1153,-1.1089,-0.9742,-0.88,-0.869,-0.7561,-0.6295,-0.4931,-0.3833,-0.2468,-0.0812,0.0935,0.2176,0.2766,0.3641,0.4377,0.4979,0.5527,0.6089,0.66,0.6887,0.7641,0.8716,0.8716,0.9579,1.1046,1.159,1.2066,1.2544,1.3012,1.348,1.4,1.4374,1.4972,1.5796,-2.231,-2.231,-2.231,-2.231,-2.2003,-2.1764,-2.1853,-2.1645,-2.1493,-2.1493,-2.1291,-2.115,-2.115,-2.0959,-2.0878,-2.0991,-2.0715,-2.055,-2.055,-2.033,-2.0447,-2.0959,-2.0991,-2.1055,-2.1213,-2.1213,-2.1323,-2.1493,-2.1493,-2.1415,-2.1213,-2.0943,-2.0601,-2.028,-1.9671,-1.9236,-1.8855,-1.8185,-1.7787,-1.7585,-1.7229,-1.6993,-1.6795,-1.6795,-1.668,-1.6522,-1.6522,-1.6522,-1.6522,-1.6522,-1.6522,-1.6423,-1.6051,-1.5644,-1.5112,-1.4048,-1.2968,-1.2017,-1.1768,-1.1499,-1.1319,-1.1319,-1.1542,-1.17,-1.1394,-1.1542,-1.17,-1.1356,-1.1579,-1.1811,-1.1811,-1.2253,-1.246,-1.211,0.0,-1.2526,-1.2364,-1.2174,-1.2066,-1.2066,-1.145,-1.0893,-1.056,-0.9243,-0.8295,-0.7921,-0.6334,-0.5151,-0.4624,-0.2973,-0.1767,-0.1106,0.0792,0.1923,0.2125,0.3545,0.4542,0.5139,0.5733,0.6323,0.686,0.7349,0.7987,0.8716,0.9039,0.9707,1.0611,1.1479,1.192,1.2138,1.2908,1.3648,1.4278,1.4438,1.5151,1.6194,-2.2106,-2.2209,-2.2209,-2.1945,-2.1628,-2.146,-2.143,-2.1181,-2.0991,-2.0991,-2.0862,-2.0797,-2.0797,-2.0665,-2.0599,-2.0599,-2.0296,-2.0124,-2.0124,-1.9839,-1.998,-2.0581,-2.0599,-2.0632,-2.0797,-2.0797,-2.0862,-2.0991,-2.0991,-2.0926,-2.0748,-2.0449,-2.0212,-2.0089,-1.9251,-1.8817,-1.8574,-1.7666,-1.7188,-1.7034,-1.6637,-1.6522,-1.6522,-1.6522,-1.638,-1.6238,-1.6238,-1.6107,-1.5976,-1.6151,-1.6107,-1.5876,-1.5676,-1.5365,-1.4744,-1.3436,-1.2669,-1.2189,-1.1901,-1.1348,-1.0895,-1.096,-1.1134,-1.118,-1.0629,-1.0943,-1.1169,-1.0629,-1.0943,-1.133,-1.133,-1.1627,-1.1823,-1.156,-1.1752,-1.185,-1.1819,-1.1664,-1.1553,-1.1553,-1.0994,-1.0467,-1.0021,-0.8746,-0.778,-0.7324,-0.5714,-0.4499,-0.3906,-0.2245,-0.1238,-0.1106,0.0776,0.1792,0.1792,0.3366,0.4526,0.5308,0.5701,0.6301,0.7021,0.7614,0.8193,0.8724,0.9279,0.9804,1.04,1.1404,1.1811,1.1884,1.2826,1.3735,1.4501,1.4501,1.5326,1.6578,-2.1688,-2.1957,-2.202,-2.1166,-2.1337,-2.146,-2.1071,-2.0991,-2.0991,-2.0991,-2.0583,-2.0314,-2.0314,-1.9929,-1.969,-1.969,-1.969,-1.969,-1.969,-1.969,-1.969,-1.969,-1.969,-1.9874,-2.028,-2.0314,-2.0516,-2.0991,-2.0991,-2.0764,-2.0314,-2.0314,-2.0089,-1.969,-1.9132,-1.8612,-1.8066,-1.7504,-1.6993,-1.6522,-1.6522,-1.6522,-1.6466,-1.6466,-1.6139,-1.5588,-1.5588,-1.5231,-1.4789,-1.541,-1.5186,-1.4789,-1.541,-1.4767,-1.3684,-1.3065,-1.2568,-1.219,-1.219,-1.1397,-1.0658,-1.0849,-1.0596,-1.0166,-0.9607,-0.9932,-1.0137,-0.9607,-0.9922,-1.0283,-1.0283,-1.0283,-1.0467,-1.0905,-1.0611,-1.0659,-1.1627,-1.1319,-1.0981,-1.0981,-1.027,-0.9701,-0.9521,-0.8211,-0.7277,-0.7009,-0.6038,-0.466,-0.2782,-0.1804,-0.1107,-0.0707,0.0926,0.1794,0.1794,0.2998,0.4188,0.5303,0.5303,0.5905,0.7021,0.7621,0.8193,0.8716,0.9279,0.9795,1.039,1.1404,1.1811,1.1884,1.2838,1.3735,1.4501,1.4501,1.543,1.6801,-2.1628,-2.1477,-2.1291,-2.1039,-2.0813,-2.0634,-2.0516,-2.0261,-2.0085,-2.0085,-1.998,-1.9874,-1.9874,-1.9782,-1.969,-1.969,-1.969,-1.969,-1.969,-1.969,-1.969,-1.969,-1.969,-1.9747,-1.9874,-1.9874,-1.9945,-2.0085,-2.0085,-2.0015,-1.9874,-1.9874,-1.9609,-1.9132,-1.8574,-1.8027,-1.7504,-1.6951,-1.6637,-1.6522,-1.6522,-1.6238,-1.5864,-1.5864,-1.5499,-1.4971,-1.4971,-1.4835,-1.4744,-1.4926,-1.4835,-1.4652,-1.4411,-1.3779,-1.3045,-1.2335,-1.2046,-1.1895,-1.1895,-1.1125,-1.0365,-1.0623,-1.0616,-1.0351,-0.9638,-1.0039,-1.0355,-0.9897,-0.9926,-1.009,-1.0254,-1.0,-0.9795,-0.9942,-0.9834,-0.9834,-1.0128,-1.006,-0.9942,-0.9942,-0.94,-0.8862,-0.8423,-0.7628,-0.6942,-0.6459,-0.4892,-0.3282,-0.1799,-0.1196,-0.0636,-0.0075,0.1151,0.2007,0.2422,0.3218,0.4188,0.5303,0.5303,0.5905,0.7021,0.8021,0.8561,0.8756,0.9677,1.0341,1.0829,1.1516,1.1993,1.2389,1.3331,1.4019,1.4533,1.4814,1.586,1.721,-2.1134,-2.1039,-2.0894,-2.0548,-2.0398,-2.0246,-2.0089,-1.9839,-1.969,-1.969,-1.969,-1.969,-1.969,-1.969,-1.969,-1.969,-1.969,-1.9603,-1.9406,-1.9369,-1.9281,-1.908,-1.908,-1.9281,-1.969,-1.969,-1.969,-1.969,-1.969,-1.969,-1.969,-1.9479,-1.9207,-1.8855,-1.8145,-1.7585,-1.7271,-1.671,-1.6522,-1.6522,-1.6522,-1.6139,-1.5588,-1.5588,-1.5096,-1.4329,-1.4329,-1.4201,-1.4025,-1.4236,-1.4329,-1.4236,-1.3647,-1.319,-1.2774,-1.203,-1.1814,-1.1765,-1.1466,-1.0756,-1.0057,-1.0227,-1.0233,-0.9976,-0.9336,-0.9694,-1.0088,-0.9856,-0.9761,-0.9822,-1.0152,-0.9745,-0.9293,-0.9185,-0.9199,-0.9199,-0.9199,-0.9199,-0.9199,-0.9199,-0.8583,-0.811,-0.7904,-0.7031,-0.6079,-0.5114,-0.375,-0.2409,-0.1136,-0.0625,-0.0078,0.0469,0.1553,0.2345,0.2686,0.3497,0.4399,0.5303,0.5524,0.6124,0.7021,0.8177,0.8716,0.8756,0.9843,1.0582,1.1046,1.159,1.2066,1.2567,1.3331,1.4,1.456,1.5065,1.618,1.7578,-2.0382,-2.0632,-2.0632,-1.9854,-2.0,-2.0124,-1.9747,-1.969,-1.969,-1.969,-1.969,-1.969,-1.969,-1.969,-1.969,-1.969,-1.9639,-1.9406,-1.8855,-1.8817,-1.8612,-1.8145,-1.8106,-1.8574,-1.953,-1.9566,-1.9566,-1.9566,-1.9566,-1.9566,-1.9566,-1.9043,-1.8817,-1.8688,-1.7747,-1.7271,-1.7188,-1.6667,-1.6423,-1.6423,-1.638,-1.5964,-1.5454,-1.5454,-1.4732,-1.3732,-1.3732,-1.3372,-1.2968,-1.3552,-1.3732,-1.3637,-1.3065,-1.2832,-1.2666,-1.1922,-1.1665,-1.1466,-1.0864,-1.0218,-0.9718,-0.9762,-0.9604,-0.9291,-0.883,-0.9151,-0.9554,-0.966,-0.956,-0.9592,-0.9968,-0.9512,-0.8966,-0.87,-0.8643,-0.8676,-0.8643,-0.8643,-0.8643,-0.8643,-0.7897,-0.7472,-0.7716,-0.6366,-0.4867,-0.3293,-0.2644,-0.1821,-0.0635,-0.004,0.0515,0.1029,0.2145,0.2741,0.2867,0.3921,0.4739,0.5308,0.5916,0.6477,0.7021,0.8177,0.8716,0.8756,0.9873,1.0611,1.1132,1.1653,1.2138,1.2615,1.3082,1.3775,1.4607,1.5305,1.6469,1.7894,-2.0314,-2.0139,-1.9909,-1.9711,-1.9782,-1.9818,-1.9711,-1.969,-1.969,-1.969,-1.969,-1.969,-1.969,-1.969,-1.969,-1.969,-1.9332,-1.8855,-1.8302,-1.8263,-1.8224,-1.8106,-1.8106,-1.8224,-1.8458,-1.8458,-1.8458,-1.8458,-1.8458,-1.8458,-1.8458,-1.8341,-1.8066,-1.7626,-1.7394,-1.7076,-1.6625,-1.6051,-1.582,-1.5764,-1.5287,-1.4744,-1.4179,-1.4179,-1.3732,-1.3113,-1.3113,-1.3017,-1.2929,-1.3065,-1.3113,-1.3065,-1.2929,-1.2501,-1.1873,-1.1216,-1.0669,-1.0218,-1.0064,-0.951,-0.9159,-0.9666,-0.9357,-0.8913,-0.8817,-0.9256,-0.968,-0.9373,-0.9272,-0.9358,-0.96,-0.918,-0.8716,-0.8427,-0.8374,-0.8326,-0.8116,-0.8077,-0.8077,-0.8077,-0.7507,-0.6947,-0.6598,-0.4986,-0.345,-0.2238,-0.1585,-0.0703,0.0479,0.0697,0.1216,0.2296,0.2582,0.3116,0.403,0.476,0.5173,0.5308,0.5916,0.6477,0.7021,0.8177,0.8716,0.8797,1.0205,1.1132,1.1653,1.2138,1.2615,1.3082,1.3568,1.4111,1.4761,1.5656,1.6776,1.8109,-2.0,-1.9839,-1.969,-1.969,-1.969,-1.969,-1.969,-1.969,-1.9603,-1.9369,-1.9332,-1.9207,-1.8968,-1.893,-1.9046,-1.931,-1.8821,-1.8428,-1.8166,-1.7869,-1.7585,-1.7353,-1.7353,-1.7353,-1.7353,-1.7353,-1.7585,-1.8106,-1.8106,-1.8106,-1.8106,-1.7827,-1.7585,-1.7312,-1.7034,-1.6752,-1.6479,-1.5864,-1.5588,-1.5543,-1.4926,-1.4329,-1.3815,-1.3815,-1.342,-1.2881,-1.2881,-1.2881,-1.2881,-1.2881,-1.2881,-1.2822,-1.2501,-1.2129,-1.1616,-1.061,-1.0064,-0.971,-0.9413,-0.9061,-0.891,-0.9211,-0.9061,-0.8804,-0.8804,-0.9061,-0.9363,-0.9452,-0.922,-0.9077,-0.9414,-0.8978,-0.8461,-0.8151,-0.8102,-0.7948,-0.7455,-0.7315,-0.7141,-0.6787,-0.641,-0.5947,-0.5389,-0.4248,-0.3017,-0.1873,-0.0981,-0.0089,0.0851,0.1429,0.2051,0.2672,0.3246,0.3818,0.4387,0.5303,0.5739,0.5744,0.6301,0.6894,0.7447,0.8308,0.8837,0.9159,1.0215,1.1105,1.1811,1.2066,1.2579,1.3257,1.3787,1.4289,1.4862,1.6187,1.7693,1.9241,-1.969,-1.9566,-1.9442,-1.9566,-1.9479,-1.9442,-1.9442,-1.9442,-1.9281,-1.8817,-1.8765,-1.8616,-1.8284,-1.8354,-1.8535,-1.8876,-1.8454,-1.8085,-1.8066,-1.7486,-1.7002,-1.666,-1.666,-1.6616,-1.6473,-1.6473,-1.6914,-1.7827,-1.7827,-1.7827,-1.7827,-1.7394,-1.7105,-1.7008,-1.6527,-1.6293,-1.6151,-1.5543,-1.5309,-1.5219,-1.4652,-1.4107,-1.3637,-1.3637,-1.3334,-1.2881,-1.2881,-1.2822,-1.2715,-1.2715,-1.2618,-1.2412,-1.1823,-1.1566,-1.1266,-1.0115,-0.971,-0.9517,-0.8956,-0.8804,-0.8804,-0.8804,-0.8804,-0.8804,-0.8804,-0.8804,-0.8956,-0.951,-0.9211,-0.8881,-0.922,-0.884,-0.835,-0.8056,-0.7859,-0.7586,-0.6888,-0.6614,-0.6252,-0.5604,-0.5355,-0.5007,-0.4349,-0.3674,-0.2773,-0.1561,-0.049,0.0446,0.1162,0.214,0.2763,0.2854,0.3862,0.4434,0.4565,0.5653,0.6313,0.6477,0.6943,0.7405,0.7912,0.8439,0.8999,0.9518,1.0157,1.0995,1.1934,1.1918,1.2531,1.3546,1.3946,1.4405,1.5076,1.6797,1.8608,2.023,-1.9603,-1.8968,-1.8458,-1.893,-1.8612,-1.8341,-1.8341,-1.8341,-1.8302,-1.8224,-1.8224,-1.8379,-1.8742,-1.9249,-1.9432,-1.9038,-1.8508,-1.8,-1.7543,-1.6954,-1.6822,-1.725,-1.7262,-1.7012,-1.6404,-1.6404,-1.6504,-1.671,-1.671,-1.671,-1.671,-1.6637,-1.6312,-1.584,-1.5764,-1.541,-1.488,-1.4318,-1.4039,-1.4003,-1.3382,-1.3113,-1.3017,-1.3017,-1.2968,-1.2881,-1.2881,-1.2501,-1.1972,-1.1972,-1.1575,-1.1074,-1.0965,-1.0517,-1.0012,-0.9865,-0.9413,-0.891,-0.8804,-0.8804,-0.8804,-0.8804,-0.8804,-0.8804,-0.8804,-0.8804,-0.8804,-0.891,-0.8857,-0.8791,-0.8856,-0.8797,-0.8651,-0.8363,-0.7797,-0.7256,-0.6863,-0.6272,-0.5871,-0.5775,-0.5277,-0.467,-0.3944,-0.2861,-0.1667,-0.0357,0.0401,0.1251,0.2406,0.2627,0.2943,0.3442,0.4089,0.4648,0.5173,0.5873,0.6689,0.7663,0.7746,0.7829,0.7912,0.8439,0.8999,0.9558,1.0485,1.1518,1.2494,1.2433,1.3301,1.4651,1.4236,1.4702,1.5771,1.7381,1.8726,1.9763,-1.8765,-1.8419,-1.8185,-1.8419,-1.8263,-1.8106,-1.8106,-1.8106,-1.7987,-1.7706,-1.7963,-1.8118,-1.8083,-1.8558,-1.8949,-1.899,-1.8503,-1.8231,-1.8279,-1.7777,-1.7368,-1.7216,-1.7229,-1.692,-1.6173,-1.6173,-1.6215,-1.6232,-1.5704,-1.5478,-1.5478,-1.5478,-1.5332,-1.5096,-1.5096,-1.4971,-1.4663,-1.405,-1.3815,-1.3732,-1.3152,-1.2881,-1.2881,-1.2881,-1.2881,-1.2832,-1.2452,-1.208,-1.1765,-1.1366,-1.1065,-1.0712,-1.0364,-1.0064,-0.9718,-0.9361,-0.9008,-0.8804,-0.8804,-0.8804,-0.8804,-0.8804,-0.8804,-0.8804,-0.8804,-0.8804,-0.8804,-0.8804,-0.8804,-0.8804,-0.8804,-0.848,-0.8171,-0.8053,-0.7396,-0.6718,-0.6137,-0.577,-0.5362,-0.4857,-0.4204,-0.3636,-0.3329,-0.2157,-0.0974,0.0048,0.1003,0.1893,0.2774,0.3204,0.3681,0.4331,0.4973,0.5525,0.603,0.6611,0.7102,0.7405,0.7965,0.8422,0.8805,0.9254,0.9762,1.0302,1.0735,1.1699,1.2912,1.2647,1.349,1.4916,1.4979,1.5827,1.7117,1.7851,1.875,1.9702]},{"header":{"parameterUnit":"m.s-1","parameterCategory":1,"la1":30.6,"la2":28.766,"lo1":-90.7593,"lo2":-88.6598,"dy":0.0162,"dx":0.0183,"nx":116,"ny":114,"refTime":"2024-05-18T12:00:00:Z","depth":0,"parameterNumber":3,"parameterNumberName":"V-component_of_WINDS"},"data":[0.0,0.0,0.0,0.0,0.0,0.0,0.0,0.0,0.0,0.0,0.0,0.0,0.0,0.0,0.0,0.0,0.0,0.0,0.0,0.0,0.0,0.0,0.0,0.0,0.0,0.0,0.0,0.0,0.0,0.0,0.0,0.0,0.0,0.0,0.0,0.0,0.0,0.0,0.0,0.0,0.0,0.0,0.0,0.0,0.0,0.0,0.0,0.0,0.0,0.0,0.0,0.0,0.0,0.0,0.0,0.0,0.0,0.0,0.0,0.0,0.0,0.0,0.0,0.0,0.0,0.0,0.0,0.0,0.0,0.0,0.0,0.0,0.0,0.0,0.0,0.0,0.0,0.0,0.0,0.0,0.0,0.0,0.0,0.0,0.0,0.0,0.0,0.0,0.0,0.0,0.0,0.0,0.0,0.0,0.0,0.0,0.0,0.0,0.0,0.0,0.0,0.0,0.0,0.0,0.0,0.0,0.0,0.0,0.0,0.0,0.0,0.0,0.0,0.0,0.0,0.0,0.0,0.0,0.0,0.0,0.0,0.0,0.0,0.0,0.0,0.0,0.0,0.0,0.0,0.0,0.0,0.0,0.0,0.0,0.0,0.0,0.0,0.0,0.0,0.0,0.0,0.0,0.0,0.0,0.0,0.0,0.0,0.0,0.0,0.0,0.0,0.0,0.0,0.0,0.0,0.0,0.0,0.0,0.0,0.0,0.0,0.0,0.0,0.0,0.0,0.0,0.0,0.0,0.0,0.0,0.0,0.0,0.0,0.0,0.0,0.0,0.0,0.0,0.0,0.0,0.0,0.0,0.0,0.0,0.0,0.0,0.0,0.0,0.0,0.0,0.0,0.0,0.0,0.0,0.0,0.0,0.0,0.0,0.0,0.0,0.0,0.0,0.0,0.0,0.0,0.0,0.0,0.0,0.0,0.0,0.0,0.0,0.0,0.0,0.0,0.0,0.0,0.0,0.0,0.0,0.0,0.0,0.0,0.0,0.0,0.0,0.0,0.0,0.0,0.0,0.0,0.0,0.0,0.0,0.0,0.0,0.0,0.0,0.0,0.0,0.0,0.0,0.0,0.0,0.0,0.0,0.0,0.0,0.0,0.0,0.0,0.0,0.0,0.0,0.0,0.0,0.0,0.0,0.0,0.0,0.0,0.0,0.0,0.0,0.0,0.0,0.0,0.0,0.0,0.0,0.0,0.0,0.0,0.0,0.0,0.0,0.0,0.0,0.0,0.0,0.0,0.0,0.0,0.0,0.0,0.0,0.0,0.0,0.0,0.0,0.0,0.0,0.0,0.0,0.0,0.0,0.0,0.0,0.0,0.0,0.0,0.0,0.0,0.0,0.0,0.0,0.0,0.0,0.0,0.0,0.0,0.0,0.0,0.0,0.0,0.0,0.0,0.0,0.0,0.0,0.0,0.0,0.0,0.0,0.0,0.0,0.0,0.0,0.0,0.0,0.0,0.0,0.0,0.0,0.0,0.0,0.0,0.0,0.0,0.0,0.0,0.0,0.0,0.0,0.0,0.0,0.0,0.0,0.0,0.0,0.0,0.0,0.0,0.0,0.0,0.0,0.0,0.0,0.0,0.0,0.0,0.0,0.0,0.0,0.0,0.0,0.0,0.0,0.0,0.0,0.0,0.0,0.0,0.0,0.0,0.0,0.0,0.0,0.0,0.0,0.0,0.0,0.0,0.0,0.0,0.0,0.0,0.0,0.0,0.0,0.0,0.0,0.0,0.0,0.0,0.0,0.0,0.0,0.0,0.0,0.0,0.0,0.0,0.0,0.0,0.0,0.0,0.0,0.0,0.0,0.0,0.0,0.0,0.0,0.0,0.0,0.0,0.0,0.0,0.0,0.0,0.0,0.0,0.0,0.0,0.0,0.0,0.0,0.0,0.0,0.0,0.0,0.0,0.0,0.0,0.0,0.0,0.0,0.0,0.0,0.0,0.0,0.0,0.0,0.0,0.0,0.0,0.0,0.0,0.0,0.0,0.0,0.0,0.0,0.0,0.0,0.0,0.0,0.0,0.0,0.0,0.0,0.0,0.0,0.0,0.0,0.0,0.0,0.0,0.0,0.0,0.0,0.0,0.0,0.0,0.0,0.0,0.0,0.0,0.0,0.0,0.0,0.0,0.0,0.0,0.0,0.0,0.0,0.0,0.0,0.0,0.0,0.0,0.0,0.0,0.0,0.0,0.0,0.0,0.0,0.0,0.0,0.0,0.0,0.0,0.0,0.0,0.0,0.0,0.0,0.0,0.0,0.0,0.0,0.0,0.0,0.0,0.0,0.0,0.0,0.0,0.0,0.0,0.0,0.0,0.0,0.0,0.0,0.0,0.0,0.0,0.0,0.0,0.0,0.0,0.0,0.0,0.0,0.0,0.0,0.0,0.0,0.0,0.0,0.0,0.0,0.0,0.0,0.0,0.0,0.0,0.0,0.0,0.0,0.0,0.0,0.0,0.0,0.0,0.0,0.0,0.0,0.0,0.0,0.0,0.0,0.0,0.0,0.0,0.0,0.0,0.0,0.0,0.0,0.0,0.0,0.0,0.0,0.0,0.0,0.0,0.0,0.0,0.0,0.0,0.0,0.0,0.0,0.0,0.0,0.0,0.0,0.0,0.0,0.0,0.0,0.0,0.0,0.0,0.0,0.0,0.0,0.0,0.0,0.0,0.0,0.0,0.0,0.0,0.0,0.0,0.0,0.0,0.0,0.0,0.0,0.0,0.0,0.0,0.0,0.0,0.0,0.0,0.0,0.0,0.0,0.0,0.0,0.0,0.0,0.0,0.0,0.0,0.0,0.0,0.0,0.0,0.0,0.0,0.0,0.0,0.0,0.0,0.0,0.0,0.0,0.0,0.0,0.0,0.0,0.0,0.0,0.0,0.0,0.0,0.0,0.0,0.0,0.0,0.0,0.0,0.0,0.0,0.0,0.0,0.0,0.0,0.0,0.0,0.0,0.0,0.0,0.0,0.0,0.0,0.0,0.0,0.0,0.0,0.0,0.0,0.0,0.0,0.0,0.0,0.0,0.0,0.0,0.0,0.0,0.0,0.0,0.0,0.0,0.0,0.0,0.0,0.0,0.0,0.0,0.0,0.0,0.0,0.0,0.0,0.0,0.0,0.0,0.0,0.0,0.0,0.0,0.0,0.0,0.0,0.0,0.0,0.0,0.0,0.0,0.0,0.0,0.0,0.0,0.0,0.0,0.0,0.0,0.0,0.0,0.0,0.0,0.0,0.0,0.0,0.0,0.0,0.0,0.0,0.0,0.0,0.0,0.0,0.0,0.0,0.0,0.0,0.0,0.0,0.0,0.0,0.0,0.0,0.0,0.0,0.0,0.0,0.0,0.0,0.0,0.0,0.0,0.0,0.0,0.0,0.0,0.0,0.0,0.0,0.0,0.0,0.0,0.0,0.0,0.0,0.0,0.0,0.0,0.0,0.0,0.0,0.0,0.0,0.0,0.0,0.0,0.0,0.0,0.0,0.0,0.0,0.0,0.0,0.0,0.0,0.0,0.0,0.0,0.0,0.0,0.0,0.0,0.0,0.0,0.0,0.0,0.0,0.0,0.0,0.0,0.0,0.0,0.0,0.0,0.0,0.0,0.0,0.0,0.0,0.0,0.0,0.0,0.0,0.0,0.0,0.0,0.0,0.0,0.0,0.0,0.0,0.0,0.0,0.0,0.0,0.0,0.0,0.0,0.0,0.0,0.0,0.0,0.0,0.0,0.0,0.0,0.0,0.0,0.0,0.0,0.0,0.0,0.0,0.0,0.0,0.0,0.0,0.0,0.0,0.0,0.0,0.0,0.0,0.0,0.0,0.0,0.0,0.0,0.0,0.0,0.0,0.0,0.0,0.0,0.0,0.0,0.0,0.0,0.0,0.0,0.0,0.0,0.0,0.0,0.0,0.0,0.0,0.0,0.0,0.0,0.0,0.0,0.0,0.0,0.0,0.0,0.0,0.0,0.0,0.0,0.0,0.0,0.0,0.0,0.0,0.0,0.0,0.0,0.0,0.0,0.0,0.0,0.0,0.0,0.0,0.0,0.0,0.0,0.0,0.0,0.0,0.0,0.0,0.0,0.0,0.0,0.0,0.0,0.0,0.0,0.0,0.0,0.0,0.0,0.0,0.0,0.0,0.0,0.0,0.0,0.0,0.0,0.0,0.0,0.0,0.0,0.0,0.0,0.0,0.0,0.0,0.0,0.0,0.0,0.0,0.0,0.0,0.0,0.0,0.0,0.0,0.0,0.0,0.0,0.0,0.0,0.0,0.0,0.0,0.0,0.0,0.0,0.0,0.0,0.0,0.0,0.0,0.0,0.0,0.0,0.0,0.0,0.0,0.0,0.0,0.0,0.0,0.0,0.0,0.0,0.0,0.0,0.0,0.0,0.0,0.0,0.0,0.0,0.0,0.0,0.0,0.0,0.0,0.0,0.0,0.0,0.0,0.0,0.0,0.0,0.0,0.0,0.0,0.0,0.0,0.0,0.0,0.0,0.0,0.0,0.0,0.0,0.0,0.0,0.0,0.0,0.0,0.0,0.0,0.0,0.0,0.0,0.0,0.0,0.0,0.0,0.0,0.0,0.0,0.0,0.0,0.0,0.0,0.0,0.0,0.0,0.0,0.0,0.0,0.0,0.0,0.0,0.0,0.0,0.0,0.0,0.0,0.0,0.0,0.0,0.0,0.0,0.0,0.0,0.0,0.0,0.0,0.0,0.0,0.0,0.0,0.0,0.0,0.0,0.0,0.0,0.0,0.0,0.0,0.0,0.0,0.0,0.0,0.0,0.0,0.0,0.0,0.0,0.0,0.0,0.0,0.0,0.0,0.0,0.0,0.0,0.0,0.0,0.0,0.0,0.0,0.0,0.0,0.0,0.0,0.0,0.0,0.0,0.0,0.0,0.0,0.0,0.0,0.0,0.0,0.0,0.0,0.0,0.0,0.0,0.0,0.0,0.0,0.0,0.0,0.0,0.0,0.0,0.0,0.0,0.0,0.0,0.0,0.0,0.0,0.0,0.0,0.0,0.0,0.0,0.0,0.0,0.0,0.0,0.0,0.0,0.0,0.0,0.0,0.0,0.0,0.0,0.0,0.0,0.0,0.0,0.0,0.0,0.0,0.0,0.0,0.0,0.0,0.0,0.0,0.0,0.0,0.0,0.0,0.0,0.0,0.0,0.0,0.0,0.0,0.0,0.0,0.0,0.0,0.0,0.0,0.0,0.0,0.0,0.0,0.0,0.0,0.0,0.0,0.0,0.0,0.0,0.0,0.0,0.0,0.0,0.0,0.0,0.0,0.0,0.0,0.0,0.0,0.0,0.0,0.0,0.0,0.0,0.0,0.0,0.0,0.0,0.0,0.0,0.0,0.0,0.0,0.0,0.0,0.0,0.0,0.0,0.0,0.0,0.0,0.0,0.0,0.0,0.0,0.0,0.0,0.0,0.0,0.0,0.0,0.0,0.0,0.0,0.0,0.0,0.0,0.0,0.0,0.0,0.0,0.0,0.0,0.0,0.0,0.0,0.0,0.0,0.0,0.0,0.0,0.0,0.0,0.0,0.0,0.0,0.0,0.0,0.0,0.0,0.0,0.0,0.0,0.0,0.0,0.0,0.0,0.0,0.0,0.0,0.0,0.0,0.0,0.0,0.0,0.0,0.0,0.0,0.0,0.0,0.0,0.0,0.0,0.0,0.0,0.0,0.0,0.0,0.0,0.0,0.0,0.0,0.0,0.0,0.0,0.0,0.0,0.0,0.0,0.0,0.0,0.0,0.0,0.0,0.0,0.0,0.0,0.0,0.0,0.0,0.0,0.0,0.0,0.0,0.0,0.0,0.0,0.0,0.0,0.0,0.0,0.0,0.0,0.0,0.0,0.0,0.0,0.0,0.0,0.0,0.0,0.0,0.0,0.0,0.0,0.0,0.0,0.0,0.0,0.0,0.0,0.0,0.0,0.0,0.0,0.0,0.0,0.0,0.0,0.0,0.0,0.0,0.0,0.0,0.0,0.0,0.0,0.0,0.0,0.0,0.0,0.0,0.0,0.0,0.0,0.0,0.0,0.0,0.0,0.0,0.0,0.0,0.0,0.0,0.0,0.0,-1.5542,0.0,0.0,0.0,0.0,0.0,0.0,0.0,0.0,0.0,0.0,0.0,0.0,0.0,0.0,0.0,0.0,0.0,0.0,0.0,0.0,0.0,0.0,0.0,0.0,0.4405,0.4649,0.4367,0.3962,0.3674,0.3575,0.0,0.0,0.0,0.0,0.0,0.1791,0.0418,-0.2472,-0.6927,-0.4861,-0.4621,-0.6083,-0.6067,-0.6217,-0.6468,0.0,0.0,0.0,0.0,0.0,0.0,0.0,0.0,0.0,0.0,0.0,0.0,0.0,0.0,0.0,0.0,0.0,0.0,0.0,0.0,0.0,0.0,0.0,0.0,0.0,0.0,0.0,0.0,0.0,0.0,0.0,0.0,0.0,0.0,0.0,0.0,0.0,0.0,0.0,0.0,0.0,0.0,0.0,0.0,0.0,0.0,0.0,0.0,0.0,0.0,0.0,0.0,0.0,0.0,0.0,0.0,0.0,0.0,0.0,0.0,0.0,0.0,0.0,0.0,0.0,0.0,0.0,0.0,0.0,0.0,0.0,-1.5544,0.0,0.0,0.0,0.0,0.0,0.0,0.0,0.0,0.0,0.0,0.0,0.0,0.0,0.0,0.0,0.0,0.0,0.0,0.0,0.0,0.0,0.3498,0.3495,0.4981,0.5702,0.5068,0.4732,0.4408,0.4006,0.3014,0.0,0.0,0.0,0.2434,0.2323,0.0569,-0.1652,-0.4329,-0.4418,-0.5082,-0.63,-0.702,-0.7646,-0.8047,-0.6147,0.0,0.0,0.0,0.0,0.0,0.0,0.0,0.0,0.0,0.0,0.0,0.0,0.0,0.0,0.0,0.0,0.0,0.0,0.0,0.0,0.0,0.0,0.0,0.0,0.0,0.0,0.0,0.0,0.0,0.0,0.0,0.0,0.0,0.0,0.0,0.0,0.0,0.0,0.0,0.0,0.0,0.0,0.0,0.0,0.0,0.0,0.0,0.0,0.0,0.0,0.0,0.0,0.0,0.0,0.0,0.0,0.0,0.0,0.0,0.0,0.0,0.0,0.0,-1.2257,-1.285,-1.3466,-1.3994,-1.4809,-1.5806,-1.5354,-1.5325,-1.5553,0.0,0.0,0.0,0.0,0.0,0.0,0.0,0.0,0.0,0.0,0.0,0.0,0.0,0.0,0.0,0.0,0.0,0.0,0.0,0.0,0.35,0.351,0.3731,0.4532,0.6125,0.5594,0.4732,0.3649,0.368,0.0,0.0,0.457,0.4937,0.4416,0.1975,-0.0332,-0.246,-0.5283,-0.6513,-0.6222,-0.691,-0.7169,-0.7074,-0.6657,-0.6499,-0.6468,0.0,0.0,0.0,0.0,0.0,0.0,0.0,0.0,0.0,0.0,0.0,0.0,0.0,0.0,0.0,0.0,0.0,0.0,0.0,0.0,0.0,0.0,0.0,0.0,0.0,0.0,0.0,0.0,0.0,0.0,0.0,0.0,0.0,0.0,0.0,0.0,0.0,0.0,0.0,0.0,0.0,-0.5272,-0.7449,0.0,0.0,0.0,0.0,0.0,0.0,0.0,0.0,0.0,0.0,0.0,0.0,0.0,-0.9698,-0.9756,-1.126,-1.2047,-1.2148,-1.2602,-1.3419,-1.4507,-1.4575,-1.5286,-1.6409,-1.6333,0.0,-1.5701,-1.6101,0.0,0.0,0.0,0.0,0.0,0.0,0.0,0.0,0.0,0.0,0.0,0.0,0.0,0.0,0.0,0.0,0.0,0.0,0.0,0.0,0.0,0.7803,0.8281,0.6325,0.6449,0.6055,0.46,0.5349,0.7024,0.9665,0.7925,0.6387,0.5332,0.2517,-0.0306,-0.3106,-0.541,-0.6222,-0.5664,-0.6435,-0.6706,-0.652,-0.6832,-0.7249,-0.7674,-0.7469,0.0,0.0,0.0,0.0,0.0,0.0,0.0,0.0,0.0,0.0,0.0,0.0,0.0,0.0,0.0,0.0,0.0,0.0,0.0,0.0,0.0,0.0,0.0,0.0,0.0,0.0,0.0,0.0,0.0,0.0,0.0,0.0,0.0,0.0,0.0,0.0,0.0,0.0,0.0,-0.0722,-0.4013,-0.5524,-0.6742,-0.736,0.0,0.0,0.0,0.0,0.0,0.0,0.0,0.0,0.0,-0.9174,-0.9424,-0.9723,-1.0092,-1.1325,-1.2177,-1.2598,-1.3148,-1.3884,-1.4698,-1.5062,-1.5688,-1.6522,-1.6522,-1.6384,-1.6158,-1.6354,-1.6105,-1.5672,0.0,0.0,0.0,0.0,-1.6766,-1.6515,0.0,0.0,0.0,0.0,0.0,0.0,0.0,0.0,0.0,0.0,0.0,0.0,0.8206,1.0692,1.0474,0.6074,0.5724,0.52,0.0,0.0,0.7491,1.1062,0.8437,0.6508,0.5723,0.2666,-0.0487,-0.3662,-0.502,-0.5483,-0.509,-0.5992,-0.6358,-0.63,-0.6924,-0.7807,-0.8822,-0.8937,-0.9118,0.0,0.0,0.0,0.0,0.0,0.0,0.0,0.0,0.0,0.0,0.0,0.0,0.0,0.0,0.0,0.0,0.0,0.0,0.0,0.0,0.0,0.0,0.0,0.0,0.0,0.0,0.0,0.0,0.0,0.0,0.0,0.0,0.0,0.0,0.0,0.0,0.0,0.0,-0.0173,-0.2355,-0.3547,-0.4946,-0.595,0.0,0.0,0.0,0.0,0.0,0.0,-0.9826,-0.9834,-0.9596,-0.9129,-0.9516,-0.9984,-1.0514,-1.1532,-1.2344,-1.2929,-1.3382,-1.3967,-1.4709,-1.5141,-1.5776,-1.6522,-1.6522,-1.6522,-1.6522,-1.6522,-1.6271,-1.5948,-1.6209,-1.6454,-1.6582,-1.6912,-1.6803,-1.6555,0.0,0.0,0.0,0.0,0.0,0.0,0.0,0.0,0.0,0.0,0.0,0.832,0.9821,0.9468,0.8058,0.538,0.2232,0.0244,0.0,0.0,0.2164,0.2334,0.3653,0.48,0.5687,0.2436,-0.0507,-0.3039,-0.4083,-0.4642,-0.4751,-0.5693,-0.6257,-0.6511,-0.6975,-0.799,-0.9392,-0.9829,-1.0653,-1.1548,0.0,0.0,0.0,0.0,0.0,0.0,0.0,0.0,0.0,0.0,0.0,0.0,0.0,0.0,0.0,0.0,0.0,0.0,0.0,0.0,0.0,0.0,0.0,0.0,0.0,0.0,0.0,0.0,0.0,0.0,0.0,0.0,0.0,0.0,0.0,0.0,0.0,0.0,0.0,-0.3247,-0.5027,0.0,0.0,0.0,0.0,-0.8633,-0.932,-0.9889,-1.0148,-1.0164,-1.0025,-0.9754,-1.0383,-1.0738,-1.0788,-1.2138,-1.2871,-1.2881,-1.2929,-1.3563,-1.4698,-1.4744,-1.5377,-1.6522,-1.6522,-1.6522,-1.6522,-1.6522,-1.6497,-1.6471,-1.6471,-1.6815,-1.7261,-1.7261,-1.7261,-1.7181,0.0,0.0,0.0,0.0,0.0,0.2594,0.4943,0.8028,0.9465,0.7758,0.8347,0.9089,0.0,0.8949,0.811,0.694,0.3672,0.044,-0.2457,0.0,0.2052,0.2031,0.3677,0.4415,0.4034,0.1707,-0.0398,-0.2235,-0.3406,-0.4139,-0.448,-0.558,-0.6189,-0.6335,-0.7071,-0.8094,-0.9315,-0.9816,-1.0719,-1.178,-1.1678,-1.1319,0.0,0.0,0.0,0.0,0.0,0.0,0.0,0.0,0.0,0.0,0.0,0.0,0.0,0.0,0.0,0.0,0.0,0.0,0.0,0.0,0.0,0.0,0.0,0.0,0.0,0.0,0.0,0.0,0.0,0.0,0.0,0.0,0.0,0.0,0.0,0.0,0.0,-0.3221,-0.4347,0.0,-0.6357,-0.7234,-0.8069,-0.8737,-0.9802,-1.0294,-0.9981,-1.0332,-1.0442,-1.0128,-1.0862,-1.122,-1.1116,-1.2545,-1.3154,-1.2881,-1.2881,-1.3334,-1.4143,-1.4514,-1.5152,-1.5952,-1.6324,-1.6522,-1.6522,-1.6522,-1.6522,-1.6522,-1.6522,-1.6837,-1.7312,-1.7312,-1.7312,-1.7286,0.0,0.0,0.0,0.0,0.099,0.2546,0.4769,0.7788,0.9446,0.8339,0.8914,0.9355,0.9116,0.8771,0.8316,0.769,0.4986,0.148,-0.2809,0.0,0.1278,0.058,0.2972,0.3848,0.2812,0.1341,-0.0112,-0.1499,-0.2632,-0.3538,-0.4193,-0.5268,-0.5946,-0.6335,-0.7134,-0.8169,-0.9364,-1.0149,-1.1141,-1.2234,-1.2555,-1.2521,-1.2186,0.0,0.0,0.0,0.0,0.0,0.0,0.0,0.0,0.0,0.0,0.0,0.0,0.0,0.0,0.0,0.0,0.0,0.0,0.0,0.0,0.0,0.0,0.0,0.0,0.0,0.0,0.0,0.0,0.0,0.0,0.0,0.0,0.0,0.0,0.0,-0.2819,-0.3604,-0.4541,-0.5529,-0.6529,-0.7509,-0.8262,-0.8752,-0.9918,-1.0441,-0.9978,-1.0498,-1.0662,-1.0464,-1.0958,-1.1331,-1.1485,-1.2552,-1.3106,-1.3096,-1.2949,-1.3238,-1.3826,-1.4352,-1.5072,-1.5894,-1.6288,-1.6578,-1.6798,-1.6597,-1.6522,-1.6522,-1.6522,-1.671,-1.7034,-1.7034,-1.7034,-1.7034,0.0,0.0,0.0,-0.02,0.1002,0.2564,0.4845,0.732,0.881,0.8455,0.8935,0.9202,0.8939,0.8907,0.8476,0.7427,0.5749,0.3035,-0.101,-0.0337,-0.0644,-0.2584,0.1208,0.3015,0.2263,0.1364,0.033,-0.0861,-0.1757,-0.2767,-0.3915,-0.4729,-0.5613,-0.6528,-0.7213,-0.8243,-0.9553,-1.0856,-1.2008,-1.2977,-1.332,-1.3476,-1.3445,0.0,0.0,0.0,0.0,0.0,0.0,0.0,0.0,0.0,0.0,0.0,0.0,0.0,0.0,0.0,0.0,0.0,0.0,0.0,0.0,0.0,0.0,0.0,0.0,0.0,0.0,0.0,0.0,0.0,0.0,0.0,0.0,0.0,-0.2065,-0.2706,-0.3444,-0.4391,-0.5719,-0.6588,-0.6598,-0.7943,-0.8765,-0.8831,-0.9721,-1.026,-1.0275,-1.0565,-1.0686,-1.0694,-1.0751,-1.1141,-1.1911,-1.2227,-1.2733,-1.3506,-1.3076,-1.319,-1.3789,-1.4192,-1.5103,-1.6349,-1.6303,-1.6699,-1.7313,-1.6748,-1.6522,-1.6522,-1.6522,-1.6522,-1.6522,-1.6522,-1.6522,-1.6522,0.0,0.0,-0.1408,-0.0221,0.1007,0.3006,0.6581,0.8629,0.9525,0.8848,0.9123,0.9345,0.9278,0.9082,0.8742,0.8149,0.6589,0.5133,0.3938,0.0,-0.3113,-0.2028,0.0961,0.2773,0.3146,0.1858,0.0728,-0.0242,-0.1362,-0.249,-0.3633,-0.479,-0.5738,-0.6545,-0.7503,-0.8211,-0.8834,-1.0795,-1.1783,-1.2189,-1.3724,-1.4359,-1.4298,0.0,0.0,0.0,0.0,0.0,0.0,0.0,0.0,0.0,0.0,0.0,0.0,0.0,0.0,0.0,0.0,0.0,0.0,0.0,0.0,0.0,0.0,0.0,0.0,0.0,0.0,0.0,0.0,0.0,0.0,0.0,0.0,-0.0159,-0.1959,-0.2815,-0.3531,-0.4401,-0.5277,-0.6096,-0.6865,-0.7612,-0.8431,-0.9349,-0.9964,-1.0144,-0.9881,-1.0415,-1.0567,-1.0279,-1.1445,-1.215,-1.2258,-1.3177,-1.359,-1.3506,-1.3076,-1.2968,-1.3162,-1.4006,-1.4698,-1.52,-1.5963,-1.6481,-1.6735,-1.6584,-1.6522,-1.6522,-1.6522,-1.6522,-1.6522,-1.6522,-1.6522,-1.6522,0.0,-0.1798,-0.1408,-0.0221,0.1006,0.3268,0.765,0.9242,0.9773,0.9306,0.9214,0.9195,0.9196,0.9153,0.9054,0.8867,0.8018,0.7188,0.6523,0.0,-0.2687,-0.1064,0.1223,0.2783,0.3475,0.2189,0.1014,0.0,-0.1209,-0.2421,-0.3653,-0.4848,-0.5883,-0.6789,-0.7694,-0.8274,-0.8681,-1.0446,-1.1234,-1.1452,-1.3348,-1.4312,-1.4581,-1.4202,-1.4031,-1.3937,-1.3497,-1.3311,-1.3363,-1.3651,0.0,0.0,0.0,0.0,0.0,0.0,0.0,0.0,0.0,0.0,0.0,0.0,0.0,0.0,0.0,0.0,0.0,0.0,0.0,0.0,0.0,0.0,0.0,0.0,0.1074,0.0325,-0.1894,-0.2587,-0.3234,-0.4349,-0.5386,-0.628,-0.7007,-0.7859,-0.8731,-0.9646,-1.0029,-1.0128,-0.9853,-1.0384,-1.0537,-1.0294,-1.1267,-1.2046,-1.2644,-1.3142,-1.3523,-1.3769,-1.334,-1.3047,-1.2949,-1.3681,-1.4412,0.0,-1.5646,-1.6276,-1.6861,-1.6622,-1.6522,0.0,0.0,0.0,0.0,0.0,-1.6522,-1.6522,0.0,-0.1661,-0.1341,-0.0199,0.1102,0.3575,0.8275,0.9422,0.9756,0.9753,0.0,0.9,0.903,0.9208,0.9399,0.9519,0.9552,0.8844,0.0,0.0,0.0,0.0552,0.2124,0.3135,0.3485,0.2445,0.1252,-0.011,-0.1165,-0.2412,-0.3822,-0.4934,-0.6053,-0.713,-0.785,-0.8399,-0.8885,-1.0017,-1.0603,-1.0857,-1.2617,-1.375,-1.4382,-1.4619,-1.4697,-1.4697,-1.4859,-1.4945,-1.5111,-1.5908,0.0,0.0,0.0,0.0,0.0,0.0,0.0,0.0,0.0,0.0,0.0,0.0,0.0,0.0,0.0,0.0,0.0,0.0,0.0,0.0,0.0,0.0,0.0,0.0,0.1044,0.0224,-0.185,-0.225,-0.2867,-0.4353,-0.5769,-0.6738,-0.7105,-0.8409,-0.9392,-0.976,-0.9993,-1.0134,-1.0167,0.0,0.0,0.0,0.0,-1.1483,-1.3009,-1.2713,-1.309,-1.4077,-1.3711,-1.3281,-1.29,-1.3359,-1.4285,-1.5485,-1.5434,-1.6162,-1.7338,-1.676,-1.6522,-1.6522,-1.6522,-1.6522,-1.6522,-1.6522,-1.6522,-1.6522,0.0,-0.0736,-0.0846,-0.0132,0.176,0.4607,0.8886,0.9813,1.0047,1.0103,0.9782,0.9617,0.9771,0.969,0.9628,0.9668,0.9867,0.8717,0.0,0.0,0.4804,0.4147,0.4461,0.4289,0.3527,0.2859,0.1455,-0.0728,-0.0966,-0.2007,-0.3822,-0.5225,-0.6318,-0.7145,-0.8093,-0.8622,-0.8885,-1.0138,-1.0712,-1.0948,-1.2734,-1.3493,-1.3621,-1.4396,-1.4635,-1.4578,-1.4804,-1.4909,-1.4965,-1.5243,-1.5843,-1.6479,-1.6579,0.0,0.0,0.0,0.0,0.0,0.0,0.0,0.0,0.0,0.0,0.0,0.0,0.0,0.0,0.0,0.0,0.0,0.0,0.0,0.0,0.1102,0.0511,-0.0348,-0.1449,-0.2491,-0.3431,-0.4379,-0.5769,-0.6799,-0.7379,-0.8519,-0.9559,-1.0334,-1.0221,-1.0221,-1.0461,-1.0528,0.0,-1.0624,-1.1226,-1.202,-1.3009,-1.3243,-1.3597,-1.4077,0.0,0.0,-1.291,-1.3662,-1.4522,-1.5508,-1.5753,-1.6441,-1.7338,-1.676,-1.6522,-1.6522,-1.6522,-1.6522,-1.6522,-1.6522,-1.6522,-1.6522,0.1027,0.0423,0.02,0.0795,0.2789,0.5371,0.8554,0.9529,0.9889,0.9853,0.9726,0.9668,0.9746,0.9844,0.9851,0.972,0.8409,0.0,0.0,0.6807,0.6845,0.6521,0.5352,0.4192,0.3131,0.2156,0.0853,-0.0751,-0.1422,-0.2515,-0.402,-0.5399,-0.6553,-0.7475,-0.8252,-0.8773,-0.9109,-0.9834,-1.0461,-1.1071,-1.2408,-1.3146,-1.3551,-1.4466,-1.4756,-1.4707,-1.4859,-1.4919,-1.5033,-1.5529,-1.6062,-1.6631,-1.7401,-1.7665,-1.7653,0.0,0.0,0.0,0.0,0.0,0.0,0.0,0.0,0.0,0.0,0.0,0.0,0.0,0.0,0.089,0.0,0.0,0.0336,-0.0057,-0.0176,-0.0777,-0.2216,-0.2734,-0.3394,-0.441,-0.5102,-0.6111,-0.7547,-0.8859,-0.986,-1.0577,-1.0421,-1.0408,-1.0618,-1.0624,-1.0624,-1.0624,-1.0989,-1.1779,-1.3009,-1.3186,-1.3561,-1.4077,-1.3926,-1.3486,-1.2891,-1.3311,-1.4233,-1.5485,-1.5389,-1.6115,-1.7338,-1.676,-1.6522,-1.6522,-1.6522,-1.6522,-1.6522,-1.6522,-1.6522,-1.6522,0.1798,0.141,0.1225,0.1714,0.3467,0.5493,0.7557,0.8677,0.934,0.9519,0.9499,0.9531,0.9649,0.9842,0.9658,0.0,0.0,0.0,0.0,0.8105,0.8027,0.8241,0.6078,0.4191,0.2735,0.1244,0.0086,-0.0726,-0.2103,-0.3316,-0.4388,-0.5711,-0.6889,-0.7935,-0.8636,-0.9192,-0.9637,-0.9984,-1.0625,-1.1462,-1.2322,-1.3076,-1.3743,-1.463,-1.4919,-1.4904,-1.4955,-1.4992,-1.5121,-1.5868,-1.6277,-1.6714,-1.7946,-1.827,-1.8096,-1.7661,-1.6607,0.0,0.0,0.0,0.0,0.0,0.0,0.0,0.0,0.0,0.18,0.1067,0.0806,0.0541,-0.0111,-0.0458,-0.0818,-0.146,-0.1264,-0.1542,-0.3153,-0.3294,-0.368,-0.4996,-0.5062,-0.5727,-0.7788,-0.9242,-1.0172,-1.0598,-1.0624,-1.0624,-1.0624,-1.0624,-1.0624,-1.0624,-1.0624,-1.1358,-1.3009,-1.3009,-1.3351,-1.4077,-1.4077,-1.3691,-1.2881,-1.2969,-1.3952,-1.5511,-1.5302,-1.6001,-1.7174,-1.671,-1.6522,-1.6522,-1.6522,-1.6522,-1.6522,-1.6522,-1.6522,-1.6522,0.0,0.1743,0.1714,0.1781,0.2852,0.4208,0.5759,0.7041,0.8274,0.9511,0.9321,0.9355,1.0137,0.9813,0.8497,0.0,0.0,0.0,0.9968,0.9948,0.9777,0.9511,0.7815,0.5556,0.2758,0.0977,-0.0318,-0.1141,-0.2644,-0.3922,-0.4933,-0.6453,-0.7557,-0.8307,-0.9626,-1.0394,-1.0777,-1.1704,-1.2192,-1.2426,-1.3284,-1.3736,-1.3956,-1.4839,-1.5064,-1.493,-1.5171,-1.5171,-1.5125,-1.5344,-1.5894,-1.6516,-1.6617,-1.7023,-1.7161,-1.5899,0.0,-1.3266,-1.0855,-0.7581,-0.4364,-0.2421,-0.1003,0.0143,0.0,0.0,0.1814,0.1214,0.0555,-0.0111,-0.0837,-0.1663,-0.2286,-0.2344,-0.3075,-0.357,-0.357,-0.4437,-0.5705,-0.7428,-0.6979,-0.705,-0.832,-0.945,-1.0241,-1.0598,-1.0624,-1.0624,-1.0624,-1.0624,-1.0624,-1.0624,-1.0624,-1.1358,-1.3009,-1.3009,-1.3351,-1.4077,-1.4077,-1.3691,-1.2891,-1.3271,-1.4181,-1.5581,-1.6638,-1.6891,-1.6609,-1.6547,-1.6522,-1.6522,-1.6522,-1.6522,-1.6522,-1.6522,-1.6522,-1.6522,0.0,0.1563,0.1791,0.1806,0.2588,0.3585,0.4656,0.5875,0.721,0.8739,0.8913,0.8959,0.9182,0.917,0.8048,0.0,0.0,0.0,1.0042,1.0187,1.0001,0.9552,0.8365,0.6733,0.4607,0.226,0.0466,-0.073,-0.2599,-0.4173,-0.5498,-0.6852,-0.7876,-0.865,-0.997,-1.0713,-1.1023,-1.2112,-1.2871,-1.3361,-1.3758,-1.4247,-1.4747,-1.5118,-1.521,-1.5157,-1.5267,-1.5268,0.0,0.0,-1.5513,-1.584,-1.6136,-1.5863,-1.525,-1.4263,-1.2498,0.0,-0.6796,-0.4123,-0.1986,0.0,0.0,0.072,0.0949,0.1243,0.1287,0.0611,0.0224,-0.0279,-0.1172,-0.2214,-0.3197,0.0,-0.4436,-0.4801,-0.4668,-0.5051,-0.5693,-0.6428,-0.6691,-0.7278,-0.8546,-0.9109,-0.9454,-0.9843,-0.9849,-1.004,-1.0561,-1.0624,-1.0624,-1.0624,-1.0624,-1.117,-1.2266,-1.2765,-1.3108,-1.3422,-1.3863,-1.3691,-1.2891,-1.3066,-1.3841,-1.5116,-1.6312,-1.67,-1.6522,-1.6522,-1.6522,-1.6522,-1.6522,-1.6522,-1.6522,-1.6522,-1.6522,-1.6522,0.0,0.1178,0.1541,0.1759,0.2285,0.2927,0.3732,0.5013,0.6466,0.8049,0.8291,0.8171,0.7798,0.7818,0.7106,0.5258,0.0,0.0,0.0,0.9921,0.9897,0.9626,0.9026,0.8112,0.6872,0.4123,0.136,-0.1399,-0.3549,-0.5339,-0.6757,-0.7749,-0.8606,-0.9369,-1.0423,-1.1096,-1.15,-1.2834,-1.3725,-1.4266,-1.4307,-1.4702,-1.5268,-1.5268,-1.5287,-1.5306,-1.5306,-1.5297,0.0,0.0,-1.5096,-1.5285,-1.5174,-1.4569,-1.3659,-1.2298,-0.9646,-0.6486,-0.3388,-0.163,0.0,0.0,0.0613,0.0959,0.0691,0.0919,0.0899,0.0165,0.0,-0.0221,-0.0947,-0.2456,-0.3901,-0.4607,-0.5068,-0.5315,-0.5422,-0.5428,-0.5491,-0.5752,-0.6359,-0.7168,-0.8112,-0.8366,-0.8559,-0.8833,-0.9093,-0.9479,-1.0114,-1.0451,-1.0624,-1.0624,-1.0624,-1.0989,-1.1764,-1.2485,-1.2839,-1.2922,-1.3578,-1.3584,-1.2929,-1.3248,-1.3884,-1.4766,-1.5901,-1.6463,-1.6522,-1.6522,-1.6522,-1.6522,-1.6522,-1.6522,-1.6522,-1.6522,-1.6522,-1.6522,0.0,0.0,0.0883,0.1667,0.1825,0.2087,0.2823,0.4464,0.6165,0.7709,0.7418,0.682,0.6244,0.5603,0.5192,0.5115,0.0,0.0,0.8829,0.9299,0.9712,1.0155,1.0215,0.9901,0.9211,0.6436,0.2079,-0.3882,-0.6239,-0.7968,-0.91,-0.9534,-1.005,-1.066,-1.1151,-1.1779,-1.2569,-1.4354,-1.5136,-1.5156,-1.5156,-1.5176,-1.5195,-1.5195,-1.5234,-1.5293,-1.5293,0.0,0.0,0.0,-1.4603,-1.4998,-1.3257,-1.3077,0.0,-0.9751,-0.5976,-0.2545,-0.1471,0.0,-0.004,0.0,0.0448,0.0762,0.0143,0.064,0.097,0.0159,0.0,0.0,-0.0056,-0.2466,-0.434,-0.3914,-0.4537,-0.5189,-0.5342,-0.5428,-0.5686,-0.6588,-0.6715,-0.6715,0.0,-0.7264,-0.7586,-0.7737,-0.8505,-0.9009,-0.907,-1.0019,-1.0624,-1.0624,-1.0624,-1.0989,-1.1764,-1.2186,-1.2586,-1.2913,-1.3294,-1.3301,-1.2929,-1.4107,-1.4663,-1.4744,-1.5988,-1.6491,-1.6522,-1.6522,-1.6522,-1.6522,-1.6522,-1.6522,-1.6522,-1.6522,-1.6522,-1.6522,0.0,0.0,0.0,0.161,0.1794,0.1873,0.2138,0.3588,0.5247,0.683,0.6854,0.0,0.0,0.0,0.0,0.0,0.0,0.6109,0.7297,0.8457,0.9289,0.9714,0.9758,0.9425,0.8725,0.8296,0.5037,-0.1218,-0.4584,-0.6721,-0.7702,-0.9093,-1.0017,-1.0531,-1.1548,-1.219,-1.2606,-1.4333,-1.5061,-1.5061,-1.5061,-1.498,-1.4882,-1.4882,-1.4798,-1.4707,0.0,0.0,0.0,-1.4782,-1.4883,-1.5005,-1.4138,0.0,0.0,-0.5649,-0.225,0.0066,0.0414,0.0,0.1405,0.1117,0.1286,0.1424,0.1228,0.1202,0.1137,0.0842,0.0372,0.0,0.0,-0.1493,-0.2669,-0.2505,-0.3082,-0.3561,-0.36,-0.3613,-0.3946,-0.4806,-0.4857,0.0,0.0,0.0,0.0,-0.6813,-0.7623,-0.8299,-0.8687,-0.9736,-1.018,-0.9987,-0.998,-1.0152,-1.0377,-1.1075,-1.1527,-1.1871,-1.2716,-1.3018,-1.2929,-1.3344,-1.3931,-1.4698,-1.5107,-1.5744,-1.6522,-1.6522,-1.6522,-1.6522,-1.6522,-1.6522,-1.6522,-1.6522,-1.6522,-1.6522,0.0,0.0,0.0,0.0,0.0,0.0,0.0,0.0,0.0,0.0,0.0,0.0,0.0,0.0,0.0,0.0,0.0,0.0,0.0,0.0,0.8013,0.8415,0.8241,0.7819,0.7122,0.769,0.4905,-0.1409,-0.3535,-0.563,-0.7709,-1.0457,-1.1664,-1.1529,-1.1945,-1.215,-1.2325,-1.389,-1.4571,-1.4563,-1.4492,-1.4386,-1.4265,-1.4143,-1.4015,0.0,0.0,0.0,0.0,-1.4335,-1.465,-1.4723,-1.316,-1.0111,-0.6248,-0.2019,0.0643,0.22,0.2069,0.222,0.233,0.1911,0.1967,0.2066,0.1845,0.1721,0.147,0.091,0.0362,0.0,0.0,-0.0903,-0.1692,-0.1625,-0.2169,-0.2617,-0.2692,-0.2727,-0.2878,-0.348,-0.3488,-0.3803,0.0,0.0,0.0,-0.5884,-0.6684,-0.7441,-0.808,-0.9069,-0.963,-0.9693,-0.9686,-0.9686,-0.9686,-1.0568,-1.1315,-1.186,-1.2594,-1.2881,-1.2929,-1.3104,-1.3647,-1.4376,-1.4606,-1.5242,-1.6194,-1.6194,-1.6293,-1.6522,-1.6522,-1.6522,-1.6522,-1.6522,-1.6522,-1.6522,0.0,0.0,0.0,0.0,0.0,0.0,0.0,0.0,0.0,0.0,0.0,0.0,0.0,0.0,0.0,0.0,0.0,0.0,0.0,0.0,0.0,0.6378,0.5896,0.5369,0.4793,0.4871,0.2018,-0.3942,-0.3027,-0.4649,-0.8766,-1.2969,-1.4319,-1.3163,-1.2228,-1.1773,-1.1778,-1.2981,-1.3526,-1.3574,-1.3401,-1.3356,-1.3341,-1.3016,0.0,0.0,0.0,0.0,0.0,0.0,0.0,0.0,0.0,0.0,-0.0907,0.0937,0.2687,0.3891,0.3505,0.3196,0.2908,0.2449,0.2589,0.2627,0.2051,0.219,0.195,0.0377,0.0049,0.0,0.0,0.0,-0.1301,-0.1112,-0.1749,-0.2298,-0.2431,-0.2433,-0.2542,0.0,0.0,0.0,0.0,0.0,0.0,-0.4951,0.0,-0.6524,-0.7215,-0.8122,-0.8897,-0.9639,-0.9639,-0.9639,-0.9639,-1.0708,-1.18,-1.2822,-1.2881,-1.2881,-1.2929,-1.3505,-1.3768,-1.3815,-1.4422,-1.5017,-1.5543,-1.5588,-1.5964,-1.6479,-1.6479,-1.6522,-1.6522,-1.6522,-1.6522,-1.6522,0.0,0.0,0.0,0.0,0.0,0.0,0.0,0.0,0.0,0.0,0.0,0.0,0.0,0.0,0.0,0.0,0.0,0.0,0.0,0.0,0.0,0.0,0.0,0.4589,0.4444,0.3254,0.0,0.0,0.0,-0.1936,-0.4376,-0.7377,-0.8892,-0.9185,-1.1,-1.1794,-1.1667,-0.9919,-0.9804,-1.086,0.0,-1.1343,-1.1477,0.0,0.0,0.0,0.0,0.0,0.0,0.0,0.0,0.0,0.0,-0.3445,-0.0493,0.2051,0.0,0.4914,0.4683,0.468,0.4638,0.4394,0.4165,0.3949,0.377,0.3055,0.2112,0.1088,0.0401,0.021,0.0,0.0,0.0,0.1383,0.1344,0.0,0.1313,0.0732,0.0,-0.0601,0.0,-0.2009,-0.2945,-0.2992,0.0,0.0,-0.559,-0.6554,-0.7004,-0.7905,-0.8655,-0.8991,-0.9031,-0.9031,-0.9031,-1.0285,-1.1319,-1.208,-1.2618,-1.2881,-1.2929,-1.3065,-1.3372,-1.3815,-1.3956,-1.4376,-1.496,-1.541,-1.5676,-1.5864,-1.6337,-1.6522,-1.6522,-1.6522,-1.6522,-1.6522,0.0,0.0,0.0,0.0,0.0,0.0,0.0,0.0,0.0,0.0,0.0,0.0,0.0,0.0,0.0,0.0,0.0,0.0,0.0,0.0,0.0,0.0,0.0,0.4131,0.3956,0.3017,0.0,0.0,0.0,0.0,0.0,-0.2991,-0.43,-0.5531,-0.7101,-0.7814,-0.7742,-0.6949,0.0,0.0,0.0,0.0,0.0,0.0,0.0,0.0,0.0,0.0,0.0,0.0,0.0,-0.7591,-0.2808,0.0219,0.231,0.3961,0.0,0.5508,0.5388,0.5168,0.5001,0.4999,0.4717,0.4347,0.4092,0.3312,0.242,0.1612,0.121,0.0,0.1692,0.1957,0.0,0.0,0.0,0.0,0.2633,0.1828,0.1119,0.0,-0.0197,0.0,-0.1975,-0.2062,-0.2598,0.0,-0.4778,-0.5751,-0.6953,-0.748,-0.8072,-0.8765,-0.8804,-0.8962,-0.9263,-1.0261,-1.1166,-1.1814,-1.2559,-1.2881,-1.2881,-1.2881,-1.3055,-1.342,0.0,-1.3742,-1.4329,-1.496,-1.5365,-1.5676,-1.6238,-1.6522,-1.6522,-1.6522,-1.6522,-1.6522,0.0,0.0,0.0,0.0,0.0,0.0,0.0,0.0,0.0,0.0,0.0,0.0,0.0,0.0,0.0,0.0,0.0,0.0,0.0,0.0,0.0,0.0,0.0,0.3866,0.3417,0.3454,0.0,0.0,0.0,0.0,0.0,0.0,0.0,0.0,0.0,0.0,0.0,0.0,0.0,0.0,0.0,0.0,0.0,0.0,0.0,0.0,0.0,0.0,0.0,0.0,0.0421,-0.139,0.2182,0.454,0.6003,0.5914,0.5767,0.5645,0.5637,0.5185,0.4773,0.4999,0.4782,0.4391,0.3836,0.3284,0.2721,0.1994,0.0,0.2389,0.2473,0.3077,0.3597,0.3616,0.0,0.3588,0.2885,0.2139,0.1599,0.1472,0.0708,-0.0194,-0.1031,-0.1118,-0.178,-0.3339,-0.3575,-0.4578,-0.679,-0.6899,-0.7478,-0.8765,-0.8804,-0.9106,-0.9814,-1.0364,-1.1065,-1.1814,-1.2452,-1.2822,-1.2881,-1.2881,-1.2881,-1.2881,0.0,0.0,-1.3732,-1.4329,-1.4869,-1.541,-1.6095,-1.638,-1.638,-1.6466,-1.6522,-1.6522,0.0,0.0,0.0,0.0,0.0,0.0,0.0,0.0,0.0,0.0,0.7322,0.7726,0.0,0.0,0.0,0.0,0.0,0.0,0.0,0.0,0.0,0.0,0.0,0.0,0.0,0.0,0.0,0.0,0.0,0.0,0.0,0.0,0.0,0.0,0.0,0.0,0.0,0.0,0.0,0.0,0.0,0.0,0.0,0.0,0.0,0.0,0.0,0.0,0.0,0.0,0.3134,0.418,0.711,0.7825,0.7384,0.6227,0.5383,0.4891,0.5282,0.5374,0.5433,0.5866,0.554,0.4995,0.4378,0.3575,0.0,0.0,0.2571,0.332,0.3915,0.4638,0.5171,0.5341,0.5366,0.5166,0.4591,0.0,0.2973,0.0,0.0,0.0,0.0,0.0,0.0,0.0,0.0,-0.3716,-0.5884,-0.6587,-0.7478,-0.8765,-0.8804,-0.9106,-0.9814,-0.9917,-1.0568,-1.1814,-1.1922,-1.2295,-1.2881,-1.2881,-1.2881,-1.2881,-1.2881,0.0,-1.3104,-1.3684,-1.4003,-1.4226,-1.532,-1.5776,-1.582,-1.6337,-1.6522,-1.6522,0.0,0.0,0.0,0.0,0.0,0.0,0.0,0.1073,0.2869,0.4656,0.6645,0.793,0.8067,0.7357,0.6895,0.0,0.0,0.0,0.0,0.0,0.0,0.0,0.0,0.0,0.0,0.0,0.0,0.0,0.0,0.0,0.0,0.0,0.0,0.0,0.0,0.0,0.0,0.0,0.0,0.0,0.0,0.0,0.0,0.0,0.0,0.0,0.0,0.0,0.0,0.0,0.5216,0.7015,0.9261,0.9549,0.865,0.6728,0.5169,0.4063,0.4049,0.3502,0.3102,0.3755,0.3912,0.3789,0.3187,0.0,0.0,0.0,0.3297,0.4569,0.4919,0.5886,0.0,0.6774,0.6553,0.6147,0.5486,0.0,0.0,0.0,0.0,0.0,0.0,0.0,0.0,0.0,0.0,-0.3209,-0.5128,-0.6565,-0.7792,-0.8758,-0.8804,-0.8956,-0.9256,-0.9614,-1.0115,-1.0771,-1.1466,-1.1972,-1.2344,-1.2715,-1.2881,-1.2881,-1.2881,0.0,-1.2978,-1.3552,-1.4003,-1.4376,-1.5276,-1.5776,-1.6095,-1.638,-1.6522,-1.6522,0.0,0.0,0.0,0.0,0.0,0.0,0.0,0.1696,0.3393,0.4273,0.6611,0.8273,0.8527,0.8038,0.7704,0.0,0.0,0.0,0.0,0.0,0.0,0.0,0.0,0.0,0.0,0.0,0.0,0.0,0.0,0.0,0.0,0.0,0.0,0.0,0.0,0.0,0.0,0.0,0.0,0.0,0.0,0.0,0.0,0.0,0.0,0.0,0.0,0.0,0.0,0.0,0.7515,0.901,1.0635,1.0719,0.9695,0.6924,0.4828,0.3231,0.2415,0.1135,0.0246,0.1034,0.1787,0.2234,0.1928,0.296,0.0,0.0,0.4095,0.5806,0.5936,0.7042,0.7937,0.0,0.7439,0.6783,0.588,0.0,0.0,0.0,0.0,0.0,0.0,0.0,0.0,0.0,0.0,0.0,-0.5008,-0.6609,-0.7883,-0.8752,-0.8804,-0.8804,-0.8804,-0.9309,-0.9666,-0.9814,-1.1015,-1.1665,-1.1814,-1.2559,-1.2881,-1.2881,-1.2881,0.0,0.0,-1.342,-1.3873,-1.4387,-1.5096,-1.5688,-1.6163,-1.638,-1.6522,-1.6522,0.0,0.0,0.0,0.0,0.0,0.0,0.0,0.5102,0.7207,0.7297,0.8715,0.9223,0.7936,0.7723,0.7703,0.0,0.0,0.0,0.0,0.0,0.0,0.0,0.0,0.0,0.0,0.0,0.0,0.0,0.0,0.0,0.0,0.0,0.0,0.0,0.0,0.0,0.0,0.0,0.0,0.0,0.0,0.0,0.0,0.0,0.0,0.0,0.0,0.0,0.0,0.0,0.0,1.1278,1.2284,1.1864,1.0236,0.6349,0.0,0.0,0.0437,-0.0879,-0.1474,-0.0755,0.0297,0.1297,0.1838,0.0,0.3852,0.3297,0.4973,0.6681,0.7287,0.8125,0.8685,0.8639,0.0,0.7155,0.0,0.0,0.0,0.0,0.0,0.0,0.0,0.0,0.0,0.0,0.0,0.0,-0.6282,-0.6598,-0.7343,-0.8752,-0.8804,-0.8804,-0.8804,-0.8857,-0.9211,-0.9814,-1.0517,-1.1216,-1.1814,-1.2559,-1.2881,-1.2881,-1.2881,0.0,0.0,-1.2968,-1.3017,-1.3152,-1.434,-1.4835,-1.5017,-1.6107,-1.6522,-1.6522,0.0,0.0,0.0,0.0,0.0,0.0,0.0921,0.3144,0.5405,0.7424,0.8995,0.9343,0.7867,0.863,0.886,0.7775,0.0,0.0,0.0,0.0,0.0,0.0,0.0,0.0,0.0,0.0,0.0,0.0,0.0,0.0,0.0,0.0,0.0,0.0,0.0,0.0,0.0,0.0,0.0,0.0,0.0,0.0,0.0,0.0,0.0,0.0,0.0,0.0,0.0,0.0,0.0,0.0,1.4148,1.3329,0.0,0.0,0.3365,0.0137,-0.1743,-0.3965,-0.537,-0.3787,-0.2384,-0.1014,0.0554,0.0,0.3859,0.3415,0.5034,0.6691,0.6945,0.7984,0.8798,0.8778,0.8143,0.7343,0.6308,0.0,0.0,0.0,0.0,0.0,0.0,0.0,0.0,0.0,0.0,0.0,-0.5144,-0.614,-0.7074,-0.8103,-0.8586,-0.8804,-0.8804,-0.8804,-0.8956,-0.9211,-0.9865,-1.0568,-1.1216,-1.1931,-1.2501,-1.2881,-1.2881,0.0,0.0,-1.2881,-1.3104,-1.3505,-1.3967,-1.4595,-1.5276,-1.5776,-1.6194,-1.6522,0.0,0.0,0.0,0.0,0.0,0.0613,0.0887,0.1772,0.3359,0.5904,0.8003,0.8866,0.7805,0.9255,0.9805,0.8579,0.8005,0.0,0.0,0.0,0.0,0.0,0.0,0.0,0.0,0.0,0.0,0.0,0.0,0.0,0.0,0.0,0.0,0.0,0.0,0.0,0.0,0.0,0.0,0.0,0.0,0.0,0.0,0.0,0.0,0.0,0.0,0.0,0.0,0.0,0.0,0.0,0.0,0.0,0.0,0.0,0.3609,-0.0509,-0.3123,-0.626,-0.8401,-0.672,-0.4883,-0.2832,0.0,0.2394,0.4268,0.3986,0.5556,0.6907,0.6897,0.7931,0.8857,0.9061,0.8474,0.767,0.675,0.6145,0.0,0.0,0.0,0.0,0.0,0.0,0.0,0.0,0.0,0.0,0.0,-0.5479,-0.6691,-0.767,-0.8209,-0.8586,-0.8804,-0.8804,-0.8804,-0.8811,-0.9465,-1.0064,-1.0517,-1.1416,-1.208,-1.2608,0.0,0.0,0.0,-1.2881,-1.3152,-1.3552,-1.392,-1.4595,-1.5365,-1.5732,-1.6139,-1.6522,0.0,0.0,0.0,0.0,0.0,0.0,0.2939,0.234,0.2031,0.268,0.5662,0.7711,0.7689,0.9257,1.0294,1.0282,0.8685,0.0,0.0,0.0,0.0,0.0,0.0,0.0,0.0,0.0,0.0,0.0,0.0,0.0,0.0,0.0,0.0,0.0,0.0,0.0,0.0,0.0,0.0,0.0,0.0,0.0,0.0,0.0,0.0,0.0,0.0,0.0,0.0,0.0,0.0,0.0,0.0,0.0,0.0,0.0,0.5076,0.1251,-0.3347,-0.7213,-0.983,-0.9294,-0.6884,-0.3756,-0.0142,0.2998,0.5148,0.5408,0.6681,0.7652,0.7611,0.8237,0.9008,0.9666,0.9211,0.8262,0.6804,0.6588,0.0,0.0,0.0,0.0,0.0,0.0,0.0,0.0,0.0,0.0,0.0,-0.4772,-0.6195,-0.767,-0.7723,-0.8049,-0.8804,-0.8804,-0.8804,-0.8811,-0.9465,-0.9814,-0.9865,-1.1216,-1.1814,0.0,0.0,0.0,0.0,-1.2881,-1.2881,-1.3017,-1.4201,-1.4698,-1.4835,-1.6064,-1.6466,-1.6522,0.0,0.0,0.0,0.0,0.0,0.0,0.0,0.0755,0.109,0.2507,0.3625,0.5018,0.7005,0.9068,1.0283,1.0318,0.98,0.0,0.0,0.0,0.0,0.0,0.0,0.0,0.0,0.0,0.2253,0.13,-0.0349,-0.1595,0.0,0.0,0.0,0.0,0.0,0.0,0.0,0.0,0.0,0.0,0.0,0.0,0.0,0.0,0.0,0.0,0.0,0.0,0.0,0.0,0.0,0.0,0.0,0.0,0.0,1.3611,0.0,0.0,-0.1359,-0.4796,-0.7167,-0.7532,-0.5877,-0.321,0.0428,0.3257,0.5299,0.6119,0.7015,0.7717,0.7652,0.8309,0.8857,0.9061,0.8956,0.0,0.0,0.0,0.0,0.0,0.0,0.0,0.0,0.0,0.0,0.0,0.0,0.0,0.0,-0.4006,-0.5496,-0.6912,-0.745,-0.8049,-0.8804,-0.8804,-0.8804,-0.8804,-0.9008,-0.9614,-1.0517,-1.0914,0.0,0.0,0.0,0.0,0.0,-1.2881,-1.3152,-1.3552,-1.392,-1.4595,-1.5365,-1.5732,-1.6151,-1.6522,0.0,0.0,0.0,0.0,0.0,0.0,0.0,0.0557,0.0394,0.1535,0.2289,0.3813,0.6699,0.8977,1.0288,1.0312,0.9935,0.0,0.0,0.0,0.0,0.0,0.0,0.0,0.0,0.3135,0.2421,0.1811,0.0612,-0.0753,-0.2255,-0.2722,-0.3152,0.0,0.0,0.0,0.0,0.0,0.0,0.0,0.0,0.0,0.0,0.0,0.0,0.0,0.0,0.0,0.0,0.0,0.0,0.0,0.0,0.0,0.0,0.0,1.253,0.7383,0.0,-0.1435,-0.3943,-0.464,-0.3374,-0.1066,0.2207,0.4602,0.6378,0.722,0.7765,0.8049,0.7723,0.8321,0.8804,0.8804,0.8586,0.0,0.0,0.0,0.0,0.0,0.0,0.0,0.0,0.0,0.0,0.0,0.0,0.0,0.0,-0.34,-0.4728,-0.615,-0.6907,-0.7616,-0.8374,-0.8646,-0.8804,-0.8804,-0.8804,-0.9263,-1.0064,-1.0568,0.0,0.0,0.0,0.0,0.0,-1.2881,-1.3104,-1.3505,-1.3956,-1.4595,-1.532,-1.5776,-1.6194,-1.6522,0.0,0.0,0.0,0.0,0.0,0.0,0.0,0.1578,0.0084,0.0,0.1575,0.377,0.6586,0.8939,1.0299,1.0293,0.0,0.0,0.0,0.0,0.0,0.0,0.0,0.0,0.0,0.3155,0.2728,0.2696,0.1002,0.0134,-0.0045,-0.1337,-0.2546,-0.3605,0.0,0.0,0.0,0.0,0.0,0.0,0.0,0.0,0.0,0.0,0.0,0.0,0.0,0.0,0.0,0.0,0.0,0.0,0.0,0.0,0.0,0.0,0.0,0.0,0.0,0.284,-0.026,-0.0951,0.0192,0.2216,0.487,0.6748,0.0,0.8635,0.8758,0.8593,0.7883,0.8321,0.8804,0.8804,0.8156,0.0,0.0,0.0,0.0,0.0,0.0,0.0,0.0,0.0,0.0,0.0,0.0,0.0,0.0,-0.2954,-0.4006,-0.532,-0.6091,-0.6912,-0.767,-0.8427,-0.8804,-0.8804,-0.8804,-0.8804,-0.891,-1.0167,0.0,0.0,0.0,0.0,0.0,-1.2881,-1.2929,-1.3065,-1.4247,-1.4744,-1.4926,-1.6064,-1.6522,-1.6522,0.0,0.0,0.0,0.0,0.0,0.0,0.0,0.0,0.0,0.0,0.1567,0.3483,0.5473,0.8441,1.0283,0.0,0.0,0.0,0.0,0.0,0.0,0.0,0.0,0.0,0.0,0.3357,0.2921,0.2688,0.2291,0.1344,-0.0045,-0.219,-0.3322,-0.3598,-0.3598,0.0,0.0,0.0,0.0,0.0,0.0,0.0,0.0,0.0,0.0,0.0,0.0,1.4696,0.0,0.0,0.0,0.0,0.0,0.0,0.0,0.0,1.6957,1.5124,1.2734,0.0,0.4447,0.2167,0.2601,0.4049,0.0,0.7119,0.8119,0.8905,0.894,0.8752,0.8586,0.8699,0.8804,0.8804,0.8156,0.745,0.0,0.0,0.0,0.0,0.0,0.0,0.0,0.0,0.0,0.0,0.0,0.0,0.0,-0.2619,-0.3453,-0.3782,-0.5101,-0.6362,-0.767,-0.8427,-0.8804,-0.8804,-0.8804,-0.9061,-0.9562,-0.9917,0.0,0.0,0.0,0.0,-1.2881,-1.2881,-1.3152,-1.3637,-1.4422,-1.4971,-1.5499,-1.6238,-1.6522,-1.6522,0.0,0.0,0.0,0.0,0.0,0.0,0.0,0.0,0.0,0.0,0.0,0.5364,0.6301,0.8378,0.0,0.0,0.0,0.0,0.0,0.0,0.0,0.0,0.0,0.0,0.3862,0.3511,0.3242,0.3128,0.3104,0.0956,-0.3226,-0.4555,-0.5154,-0.5144,-0.4428,0.0,0.0,0.0,0.0,0.0,0.0,0.0,0.0,0.0,0.0,0.0,1.5702,1.613,0.0,1.7575,1.8317,1.9035,0.0,0.0,0.0,0.0,1.6573,1.5347,1.4256,1.1733,0.8889,0.6861,0.6881,0.7585,0.8318,0.8654,0.9034,0.9682,0.0,0.0,0.9445,0.9364,0.0,0.0,0.8362,0.0,0.0,0.0,0.0,0.0,0.0,0.0,0.0,0.0,0.0,0.0,0.0,0.0,0.0,-0.2174,-0.2954,-0.3345,-0.4772,-0.6032,-0.7182,-0.7943,-0.848,-0.8804,-0.8804,-0.9008,-0.9361,-0.9666,-1.0364,0.0,0.0,0.0,-1.2881,-1.2881,-1.3104,-1.3467,-1.434,-1.4926,-1.5276,-1.6194,-1.6522,-1.6522,0.0,0.0,0.0,0.0,0.0,0.0,0.0,0.0,0.0,0.0,0.0,0.0,0.0,0.0,0.0,0.0,0.0,0.0,0.0,0.0,0.0,0.0,0.0,0.5915,0.3652,0.3951,0.4127,0.4132,0.4125,0.0308,-0.7001,-0.7001,-0.6988,-0.6949,-0.5407,-0.4372,0.0,0.0,0.0,0.0,0.0,0.0,0.0,0.0,0.0,0.0,0.0,0.0,0.0,1.901,1.9292,1.923,1.8816,0.0,0.0,0.0,0.0,0.0,1.4164,1.3498,1.2673,1.1469,1.1195,1.1221,1.1098,0.0,0.0,0.0,0.0,0.0,0.0,1.0023,0.0,0.0,0.0,0.0,0.0,0.0,0.0,0.0,0.0,0.0,0.0,0.0,0.0,0.0,0.0,0.0,0.0,-0.1563,-0.2397,-0.3178,-0.4494,-0.5597,-0.6421,-0.7289,-0.799,-0.8646,-0.8752,-0.8804,-0.8804,-0.9361,-1.0012,0.0,0.0,0.0,-1.2725,-1.2832,-1.2881,-1.3017,-1.4247,-1.4698,-1.4835,-1.6064,-1.6522,-1.6522,0.0,0.0,0.0,0.0,0.0,0.0,0.0,0.0,0.0,0.0,0.0,0.0,0.0,0.0,0.0,0.0,0.0,0.0,0.0,0.0,0.0,0.0,0.6987,0.5947,0.3641,0.5497,0.6471,0.6489,0.6477,0.1872,-0.6981,-0.6981,-0.6993,-0.6935,-0.5392,-0.4815,-0.4741,0.0,0.0,0.0,0.0,0.0,0.0,0.0,0.0,0.0,0.0,0.0,0.0,1.8496,1.8992,1.9167,1.8809,0.0,0.0,0.0,0.0,0.0,1.5693,1.5386,1.4588,1.2776,1.2281,1.2257,1.2245,1.1615,0.0,0.0,0.0,0.0,0.0,1.023,0.9814,0.0,0.0,0.0,0.0,0.0,0.0,0.0,0.0,0.0,0.0,0.0,0.0,0.0,0.0,0.0,0.0,-0.0502,-0.1619,-0.2343,-0.3174,-0.4278,-0.5651,-0.7015,-0.7777,-0.7883,-0.848,-0.8804,-0.8804,-0.891,-0.9309,0.0,0.0,-1.1316,-1.203,-1.2657,-1.2881,-1.3017,-1.4247,-1.4698,-1.4835,-1.6064,-1.6522,-1.6522,0.0,0.0,0.0,0.0,0.0,0.0,0.0,0.0,0.0,0.0,0.0,0.0,0.0,0.0,0.0,0.0,0.0,0.0,0.0,0.0,0.0,0.7009,0.699,0.6495,0.5479,0.6463,0.7569,0.8799,0.7568,0.2819,-0.5191,-0.6027,-0.6273,-0.6053,-0.5566,-0.4252,-0.2194,0.167,0.0,0.0,0.0,0.0,0.0,0.0,0.0,0.0,0.0,0.0,0.0,0.0,1.9002,1.8889,1.8142,0.0,0.0,0.0,0.0,0.0,1.5247,1.5592,1.5724,1.4798,1.4241,1.3749,1.342,1.286,0.0,0.0,0.0,0.0,0.0,0.0,0.0,0.0,0.0,0.0,0.0,0.0,0.0,0.0,0.0,0.0,0.0,0.0,0.0,0.0,0.0,0.0,0.0,0.0,-0.144,-0.2169,-0.2927,-0.3824,-0.4948,-0.5977,-0.6902,-0.7723,-0.8049,-0.8427,-0.8804,-0.8804,-0.9159,-0.9814,0.0,-1.1166,-1.1864,-1.2608,-1.2744,-1.2691,-1.415,-1.4552,-1.4573,-1.5954,-1.6522,-1.6522,0.0,0.0,0.0,0.0,0.0,0.0,0.0,0.0,0.0,0.0,0.0,0.0,0.0,0.0,0.0,0.0,0.0,0.0,0.0,0.0,0.7314,0.7024,0.7506,0.7794,0.7788,0.8231,0.9029,1.0198,0.8172,0.3695,-0.3034,-0.4444,-0.5266,-0.5486,-0.514,-0.28,0.1057,0.446,0.9472,0.0,0.0,0.0,0.0,0.0,0.0,0.0,0.0,0.0,0.0,0.0,0.0,0.0,0.0,0.0,0.0,1.5565,1.5255,1.5224,1.506,1.5618,1.6257,1.641,0.0,1.5061,1.4724,1.4055,0.0,0.0,0.0,0.0,0.0,0.0,0.0,0.0,0.0,0.0,0.0,0.0,0.0,0.0,0.0,0.0,0.0,0.0,0.0,0.0,0.0,0.0,0.0,0.0,-0.1024,-0.1905,-0.2645,-0.3444,-0.4236,-0.4948,-0.5977,-0.745,-0.7616,-0.8103,-0.8804,-0.8804,-0.9061,-0.9614,-1.0261,-1.0965,-1.1607,-1.2241,-1.2435,-1.2496,-1.3987,-1.4607,-1.4818,-1.6059,-1.6522,-1.6522,0.0,0.0,0.0,0.0,0.0,0.0,0.0,0.0,0.0,0.0,0.0,0.0,0.0,0.0,0.0,0.0,0.0,0.0,0.0,0.0,0.8283,0.7072,0.8952,1.0057,1.006,1.1827,1.1846,0.9938,0.8399,0.4607,-0.1207,-0.2315,-0.401,-0.6013,-0.3446,-0.0172,0.3601,0.7692,1.3448,0.0,0.0,0.0,0.0,0.0,0.0,0.0,0.0,0.0,0.0,0.0,0.0,0.0,0.0,0.0,1.6659,1.5955,1.5741,1.5875,1.6412,1.6276,1.6141,1.6727,1.6193,1.5702,1.6131,1.5026,0.0,1.3719,0.0,0.0,0.0,0.0,0.0,0.0,0.0,0.0,0.0,0.0,0.0,0.0,0.0,0.0,0.0,0.0,0.0,0.0,0.0,0.0,0.0,0.0,0.0,-0.1113,-0.1906,-0.2692,-0.3456,-0.4181,-0.5281,-0.6696,-0.7396,-0.8103,-0.8804,-0.8804,-0.8804,-0.891,-0.9562,-1.0261,-1.0889,-1.1186,-1.1939,-1.2938,-1.3804,-1.5042,-1.633,-1.6454,-1.6522,-1.6522,0.0,0.0,0.0,0.0,0.0,0.0,0.0,0.0,0.0,0.0,0.0,0.0,0.0,0.0,0.0,0.0,0.0,0.0,0.0,0.0,1.0781,1.2589,1.5026,1.6276,1.6219,1.6098,1.5227,1.355,0.9079,0.5342,0.2293,-0.0451,-0.3242,-0.5666,0.0452,0.4151,0.6215,1.315,1.6883,1.8173,0.0,0.0,0.0,0.0,0.0,0.0,0.0,0.0,0.0,0.0,1.7517,1.7383,0.0,1.6446,1.688,1.5748,1.5759,1.6113,1.6128,1.6604,1.7096,1.7346,1.7028,0.0,0.0,1.5889,1.5405,1.5005,1.4903,0.0,0.0,0.0,0.0,0.0,0.0,0.0,0.0,0.0,0.0,0.0,0.0,0.0,0.0,0.0,0.0,0.0,0.0,0.0,0.0,0.0,0.0,-0.0494,-0.1535,-0.2421,-0.3193,-0.3871,-0.4698,-0.5668,-0.6559,-0.7396,-0.8156,-0.8593,-0.8711,-0.8588,-0.9615,-1.0067,-1.0184,-1.1077,-1.1714,-1.2252,-1.3587,-1.5073,-1.6552,-1.6879,-1.6795,-1.6552,0.0,0.0,0.0,0.0,0.0,0.0,0.0,0.0,0.0,0.0,0.0,0.0,0.0,0.0,0.0,0.0,0.0,0.0,1.0562,1.1143,1.2756,1.5625,1.7912,1.9304,1.9734,1.8261,1.693,1.5853,1.0011,0.5839,0.3285,0.0687,-0.1876,-0.3956,0.2726,0.6804,0.9011,1.5597,1.7939,1.7346,1.8461,1.8838,0.0,0.0,0.0,0.0,0.0,0.0,0.0,0.0,1.6378,0.0,0.0,0.0,0.0,0.0,1.6009,1.6292,1.627,1.6668,1.7206,1.7593,0.0,0.0,1.6596,1.6408,1.6126,1.5684,1.532,0.0,0.0,0.0,0.0,0.0,0.0,0.0,0.0,0.0,0.0,0.0,0.0,0.0,0.0,0.0,0.0,0.0,0.0,0.0,0.0,0.0,0.0,0.0,-0.09,-0.1837,-0.2763,-0.3418,-0.4062,-0.4755,-0.5873,-0.6801,-0.7534,-0.8056,-0.8265,-0.8279,-0.9275,-0.969,-0.9786,-1.0829,-1.1709,-1.2536,-1.4003,-1.5238,-1.63,-1.6803,-1.6762,-1.6542,0.0,0.0,0.0,0.0,0.0,0.0,0.0,0.0,0.0,0.0,0.0,0.0,0.0,0.0,0.0,0.0,0.0,0.0,1.2033,1.2899,1.3895,1.498,1.6433,1.7956,1.9559,1.7755,1.6519,1.5992,1.1111,0.6113,0.1101,0.0931,0.0237,-0.0635,0.2918,0.7246,1.1981,1.4182,1.6291,1.8172,1.8103,1.8086,0.0,0.0,0.0,0.0,0.0,0.0,0.0,0.0,1.5415,1.5308,0.0,0.0,0.0,1.6683,1.6554,1.644,1.7122,1.6571,1.6113,1.7369,0.0,0.0,1.6958,1.6376,1.5678,1.5624,0.0,1.3815,1.3815,0.0,0.0,0.0,0.0,0.0,0.0,0.0,0.0,0.0,0.0,0.0,0.0,0.0,0.0,0.0,0.0,0.0,0.0,0.0,0.0,0.0,0.019,-0.0772,-0.2009,-0.2711,-0.3412,-0.4016,-0.5336,-0.6358,-0.7092,-0.7098,-0.7385,-0.7923,-0.8468,-0.9098,-0.9732,-1.0382,-1.1989,-1.4211,-1.521,-1.5624,-1.5734,-1.6138,-1.6363,-1.6426,0.0,0.0,0.0,0.0,0.0,0.0,0.0,0.0,0.0,0.0,0.0,0.0,0.0,0.0,0.0,0.0,0.0,0.0,1.4313,1.4641,1.5363,1.6623,1.7473,1.8354,1.9294,1.7906,1.6238,1.4389,1.0943,0.624,0.0336,-0.2706,-0.0476,0.5997,0.6035,0.9106,1.4345,1.5518,1.6028,1.614,1.6827,1.6744,0.0,0.0,0.0,0.0,0.0,0.0,0.0,0.0,0.0,0.0,0.0,0.0,0.0,1.635,1.6506,1.6654,1.6616,1.6527,0.0,1.7473,0.0,0.0,0.0,1.7007,0.0,0.0,1.5599,1.496,0.0,0.0,0.0,0.0,0.0,0.0,0.0,0.0,0.0,0.0,0.0,0.0,0.0,0.0,0.0,0.0,0.0,0.0,0.0,0.0,0.0,0.0,0.0499,-0.0639,-0.1852,-0.2498,-0.3101,-0.371,-0.4119,-0.5027,-0.6363,-0.7248,-0.7662,-0.7693,-0.858,-0.8968,-0.9157,-1.1142,-1.2786,-1.4177,-1.4791,-1.532,-1.5724,-1.584,-1.5658,-1.5466,0.0,0.0,0.0,0.0,0.0,0.0,0.0,0.0,0.0,0.0,0.0,0.0,0.0,0.0,0.0,0.0,0.0,0.0,0.0,1.6079,1.6626,1.7795,1.8505,1.8822,1.8698,1.7629,1.6006,1.3849,1.1178,0.6619,0.025,-0.5267,-0.2879,0.6039,0.5858,0.9171,1.4873,1.4961,1.468,1.4193,1.4615,1.4564,1.4305,0.0,0.0,0.0,0.0,0.0,0.0,0.0,0.0,0.0,1.4336,0.0,1.6297,1.6571,1.702,1.741,1.7322,1.7142,0.0,1.8242,1.7739,1.713,1.7676,0.0,0.0,0.0,0.0,0.0,0.0,0.0,0.0,0.0,0.0,0.0,0.0,0.0,0.0,0.0,0.0,0.0,0.0,0.0,0.0,0.0,0.0,0.0,0.0,0.0,0.0,0.0,0.1335,0.0134,-0.1069,-0.1916,-0.2632,-0.3262,-0.37,-0.4427,-0.5381,-0.6407,-0.7013,-0.7375,-0.8446,-0.9165,-0.974,-1.1716,-1.3145,-1.4143,-1.4666,-1.5154,-1.562,-1.5603,-1.5694,-1.5841,0.0,0.0,0.0,0.0,0.0,0.0,0.0,0.0,0.0,0.0,0.0,0.0,0.0,0.0,0.0,0.0,0.0,0.0,0.0,0.0,1.7501,1.8378,1.9335,1.9263,1.804,1.7224,1.5963,1.4278,1.1687,0.7055,0.0508,-0.657,-0.5787,0.1637,0.3118,0.7597,1.3945,1.3107,1.2603,1.2368,1.203,1.2108,1.2496,1.3091,0.0,0.0,0.0,0.0,0.0,0.0,0.0,0.0,1.4643,1.5502,1.6266,1.7082,1.7757,1.8372,1.868,1.8079,1.7773,1.928,1.8355,0.0,1.7344,1.6951,1.6552,1.6522,0.0,0.0,0.0,0.0,0.0,0.0,0.0,0.0,0.0,0.0,0.0,0.0,0.0,0.0,0.0,0.0,0.0,0.0,0.0,0.0,0.0,0.0,0.0,0.3544,0.249,0.1336,0.0,-0.1069,-0.2006,0.0,-0.377,-0.4343,-0.4522,-0.5087,-0.5996,-0.7147,-0.8226,-0.9491,-1.0908,-1.2099,-1.3144,-1.4084,-1.4597,-1.5082,-1.5443,-1.543,-1.6072,-1.6934,0.0,0.0,0.0,0.0,0.0,0.0,0.0,0.0,0.0,0.0,0.0,0.0,0.0,0.0,0.0,0.0,0.0,0.0,0.0,0.0,1.6869,1.7668,1.8819,1.9292,1.9,1.7948,1.6828,1.5666,1.2187,0.6716,-0.0546,-0.4721,-0.4066,0.0555,-0.0531,0.4069,1.2577,1.1743,1.1191,1.087,1.1585,1.1905,1.205,1.2967,1.3265,0.0,0.0,0.0,0.0,0.0,0.0,0.0,1.4387,1.5068,1.5652,1.6946,1.7395,1.7691,1.8313,1.7912,0.0,0.0,1.8976,1.8361,1.7997,1.7504,1.6993,1.6595,0.0,0.0,0.0,0.0,0.0,0.0,0.0,0.0,0.0,0.0,0.0,0.0,0.0,0.0,0.0,0.0,0.0,0.0,0.0,0.0,0.0,0.0,0.0,0.3544,0.3281,0.2127,0.0,-0.0267,-0.1157,0.0,-0.2937,-0.377,-0.513,-0.5739,-0.6641,-0.7746,-0.8398,-0.9286,-1.0391,-1.198,-1.2889,-1.3467,-1.4034,-1.4505,-1.4875,-1.491,-1.5318,-1.5966,0.0,0.0,0.0,0.0,0.0,0.0,0.0,0.0,0.0,0.0,0.0,0.0,0.0,0.0,0.0,0.0,0.0,0.0,0.0,0.0,1.7285,1.8186,1.8447,1.8546,1.8486,1.7622,1.6901,1.6358,1.4032,0.9338,0.2503,0.0253,-0.1499,-0.2617,-0.0451,0.4631,1.1529,1.0899,1.0475,1.0342,1.0912,1.125,1.1501,1.2278,1.271,1.2908,1.3129,0.0,0.0,0.0,0.0,0.0,0.0,0.0,1.558,1.6495,1.7288,1.7906,1.8275,0.0,0.0,1.8945,0.0,1.901,1.8462,1.7693,1.6894,0.0,0.0,0.0,0.0,0.0,0.0,0.0,0.0,0.0,0.0,0.0,0.0,0.0,0.0,0.0,0.0,0.0,0.0,0.0,0.0,0.0,0.0,0.6927,0.6143,0.5219,0.4105,0.2791,0.1287,0.0444,-0.0623,-0.1828,-0.2406,-0.3595,-0.5346,-0.6209,-0.707,-0.7919,-0.848,-0.911,-0.994,-1.1559,-1.2485,-1.2947,-1.3484,-1.4082,-1.473,-1.5114,-1.5513,-1.6028,0.0,0.0,0.0,0.0,0.0,0.0,0.0,0.0,0.0,0.0,0.0,0.0,0.0,0.0,0.0,0.0,0.0,0.0,0.0,1.6853,1.8024,1.9169,1.8449,1.7963,1.7844,1.7255,1.6909,1.6832,1.6274,1.3411,0.8377,0.587,0.1693,-0.3475,0.1589,0.6443,1.0781,1.0391,1.0244,1.0283,1.0283,1.0572,1.1057,1.159,1.2102,1.2544,1.3012,1.3198,1.3198,1.3198,0.0,0.0,0.0,0.0,1.5577,1.5985,1.7098,1.8235,1.829,0.0,1.8634,1.8836,1.9104,0.0,1.8634,1.7728,1.6758,0.0,0.0,0.0,0.0,0.0,0.0,0.0,0.0,0.0,0.0,0.0,0.0,0.0,0.0,0.0,0.0,0.0,0.0,0.0,0.0,0.0,0.8056,0.7353,0.6922,0.6799,0.4777,0.3377,0.2732,0.1086,-0.0088,-0.0797,-0.2262,-0.3811,-0.5346,-0.6465,-0.728,-0.7787,-0.8431,-0.8958,-0.9478,-1.1046,-1.1934,-1.2373,-1.289,-1.3623,-1.4542,-1.5478,-1.6027,-1.6431,0.0,0.0,0.0,0.0,0.0,0.0,0.0,0.0,0.0,0.0,0.0,1.1775,1.1463,1.1228,0.0,0.0,0.0,0.0,1.4325,0.0,0.0,1.9958,1.9331,1.8858,1.8715,1.825,1.7919,1.774,1.7935,1.7807,1.7196,0.92,0.5505,0.5564,0.4515,0.6394,1.0361,1.0303,1.0273,1.0283,1.0283,1.0572,1.1057,1.159,1.2102,1.2544,1.3012,1.3198,1.3198,1.3198,1.3232,0.0,0.0,0.0,0.0,1.5577,1.6507,1.7576,1.8219,0.0,1.9203,0.0,1.8845,1.8773,0.0,0.0,0.0,0.0,0.0,0.0,0.0,0.0,0.0,0.0,0.0,0.0,0.0,0.0,0.0,0.0,0.0,0.0,0.0,0.0,0.0,0.0,0.0,0.0,0.8176,0.7303,0.6582,0.6052,0.5017,0.3936,0.2884,0.1867,0.0813,-0.0338,-0.291,-0.4548,-0.5346,-0.6465,-0.7021,-0.7189,-0.8218,-0.8756,-0.8918,-1.0475,-1.1164,-1.133,-1.2233,-1.2896,-1.3552,-1.5646,-1.629,-1.6358,0.0,0.0,0.0,0.0,0.0,0.0,0.0,0.0,0.0,0.0,0.0,1.2299,1.205,1.1187,0.0,0.0,0.0,0.0,1.4915,1.6314,0.0,0.0,1.8279,1.8003,1.7669,1.6905,1.6881,1.7626,1.7631,1.829,1.943,1.4715,1.2622,1.2772,0.9934,0.9767,1.146,1.056,1.021,1.0283,1.0283,1.0577,1.0983,1.1238,1.1819,1.2482,1.2722,1.2978,1.3198,1.3198,1.3198,1.3232,1.3459,0.0,0.0,0.0,1.5943,1.6892,1.7813,1.8568,1.9068,0.0,1.8712,1.8524,1.8343,0.0,0.0,0.0,0.0,0.0,0.0,0.0,0.0,0.0,0.0,0.0,0.0,0.0,0.0,0.0,0.0,0.0,0.0,0.0,0.0,0.0,0.0,0.8558,0.8323,0.7861,0.7471,0.7213,0.5965,0.491,0.4093,0.2898,0.1314,-0.071,-0.1864,-0.344,-0.5308,-0.5819,-0.6592,-0.753,-0.8349,-0.8878,-0.9239,-1.0475,-1.1169,-1.1505,-1.221,-1.2779,-1.3373,-1.5264,-1.5654,-1.5549,0.0,0.0,0.0,0.0,0.0,0.0,0.0,0.0,0.0,0.0,0.0,0.0,1.2735,0.0,0.0,0.0,0.0,0.0,1.5508,0.0,0.0,0.0,0.0,1.6915,1.6904,1.6125,1.6313,1.7548,1.7596,1.8523,2.023,1.8871,1.8126,1.782,1.4449,1.2729,1.2205,1.1057,1.051,1.0439,1.0439,1.0625,1.092,1.1213,1.1773,1.2377,1.247,1.277,1.3163,0.0,1.3094,0.0,0.0,0.0,0.0,0.0,0.0,0.0,0.0,0.0,1.8722,1.8722,1.8518,1.8326,0.0,0.0,0.0,0.0,0.0,0.0,0.0,0.0,0.0,0.0,0.0,0.0,0.0,0.0,0.0,0.0,0.0,0.0,0.0,0.0,0.0,0.0,0.0,0.8814,0.8521,0.8228,0.8057,0.8057,0.6654,0.5618,0.505,0.3602,0.1596,-0.0862,-0.1068,-0.2488,-0.486,-0.5303,-0.6374,-0.7897,-0.8472,-0.8918,-0.9399,-1.0514,-1.1244,-1.1653,-1.2366,-1.2871,-1.3395,-1.5031,-1.5302,-1.4992,0.0,0.0,0.0,0.0,0.0,0.0,0.0,0.0,0.0,0.0,0.0,0.0,0.0,0.0,0.0,0.0,0.0,0.0,0.0,0.0,0.0,0.0,0.0,0.0,1.7417,1.7221,1.7378,1.7983,1.8849,1.994,2.1196,1.9789,1.9448,1.9896,1.6402,1.3712,1.1753,1.1773,1.1419,1.0879,1.0879,1.0889,1.0989,1.1912,1.2246,1.2289,1.2388,1.2728,0.0,0.0,0.0,0.0,0.0,1.3514,1.4,0.0,0.0,0.0,0.0,1.8009,0.0,1.8236,1.8218,0.0,0.0,0.0,0.0,0.0,0.0,0.0,0.0,0.0,0.0,0.0,0.0,0.0,0.0,0.0,0.0,0.0,0.0,0.0,0.0,0.0,0.0,0.0,0.0,0.88,0.8778,0.8111,0.7725,0.7725,0.6474,0.5609,0.5182,0.3543,0.1708,-0.0274,-0.1381,-0.2542,-0.3672,-0.5384,-0.6748,-0.7837,-0.8456,-0.8716,-0.8878,-1.0389,-1.1019,-1.1196,-1.2554,-1.3073,-1.334,-1.5347,-1.5664,-1.5233,0.0,0.0,0.0,0.0,0.0,0.0,0.0,0.0,0.0,0.0,0.0,0.0,0.0,1.2058,1.1423,1.149,0.0,0.0,0.0,0.0,0.0,0.0,0.0,0.0,0.0,1.7312,1.754,1.8763,1.8724,1.9351,2.056,1.9116,1.8631,1.8871,1.6474,1.4976,1.4253,1.2787,1.2069,0.0,1.1489,1.1504,1.1738,1.182,1.2236,1.2728,1.2436,0.0,0.0,0.0,0.0,0.0,1.3094,1.3514,1.4136,1.5257,1.6327,0.0,0.0,0.0,0.0,1.8187,1.833,1.8391,0.0,0.0,0.0,0.0,0.0,0.0,0.0,0.0,0.0,0.0,0.0,0.0,0.0,0.0,0.0,0.0,0.0,0.0,0.0,0.0,0.0,0.0,0.0,0.0,0.8789,0.8557,0.8315,0.8099,0.7394,0.6425,0.5206,0.4181,0.2786,0.1071,0.016,-0.1252,-0.3139,-0.4058,-0.5326,-0.6833,-0.7728,-0.8907,-1.0234,-1.0781,-1.1394,-1.2054,-1.2798,-1.3323,-1.3742,-1.4991,-1.5291,-1.5193,0.0,0.0,0.0,0.0,0.0,0.0,0.0,0.0,0.0,1.4967,0.0,0.0,0.0,0.0,1.1617,1.1775,1.3002,1.3885,1.4189,0.0,0.0,0.0,0.0,0.0,0.0,1.7228,1.7422,1.9173,1.8406,1.878,2.0165,1.8926,1.8377,1.8419,1.6585,1.575,1.5648,1.414,0.0,1.2668,0.0,1.2123,1.2171,1.2061,1.225,1.2556,0.0,0.0,0.0,0.0,0.0,0.0,1.3654,1.4238,1.484,1.5749,1.6677,0.0,1.7726,0.0,0.0,0.0,0.0,1.8679,0.0,0.0,0.0,0.0,0.0,0.0,0.0,0.0,0.0,0.0,0.0,0.0,0.0,0.0,0.0,0.0,0.0,0.0,0.0,0.0,0.0,0.0,0.0,0.0,0.917,0.9062,0.88,0.8319,0.7898,0.7041,0.566,0.4901,0.3784,0.2283,0.1287,-0.0245,-0.2323,-0.3249,-0.4568,-0.624,-0.7407,-0.8827,-1.0273,-1.0971,-1.1653,-1.2354,-1.3221,-1.3782,-1.4214,-1.5043,-1.5404,-1.5551,0.0,0.0,0.0,0.0,0.0,0.0,0.0,0.0,1.6838,1.4418,0.0,0.0,0.0,0.0,0.0,1.211,1.3224,1.4046,1.427,1.4878,0.0,0.0,0.0,0.0,0.0,1.7062,1.7081,1.9076,1.8045,1.8435,2.0138,1.9363,1.8949,1.8802,1.6952,1.595,1.5621,1.5716,1.472,1.3165,0.0,1.2746,1.2295,0.0,1.2452,0.0,1.2139,1.2105,0.0,1.2914,0.0,0.0,0.0,1.5679,1.6133,1.5773,1.6637,1.7732,0.0,0.0,0.0,0.0,0.0,0.0,0.0,0.0,0.0,0.0,0.0,0.0,0.0,0.0,0.0,0.0,0.0,0.0,0.0,0.0,0.0,0.0,0.0,0.0,0.0,0.0,0.0,0.0,0.0,1.051,0.9956,0.9581,0.9074,0.8336,0.7927,0.7336,0.6537,0.566,0.4607,0.3341,0.1871,0.0395,-0.108,-0.3017,-0.4674,-0.6121,-0.7523,-0.832,-0.8861,-1.096,-1.1811,-1.2018,-1.3815,-1.4501,-1.4627,-1.5477,-1.6011,-1.6301,0.0,0.0,0.0,0.0,0.0,2.076,1.948,1.8248,1.6722,0.0,0.0,0.0,1.084,1.01,0.9573,0.9262,1.0221,1.107,1.1617,1.2627,1.362,1.4584,1.4687,1.5256,1.6371,1.6145,1.6869,1.8596,1.8544,1.8779,1.9243,1.8717,1.8346,1.8071,1.7312,1.6637,1.6016,1.4852,0.0,1.423,1.3398,1.3149,0.0,0.0,0.0,0.0,0.0,1.2433,1.226,0.0,1.3546,1.3631,0.0,1.5891,1.6318,1.695,1.7562,1.8107,1.833,0.0,0.0,0.0,0.0,0.0,0.0,0.0,0.0,0.0,0.0,0.0,0.0,0.0,0.0,0.0,0.0,0.0,0.0,0.0,0.0,0.0,0.0,0.0,0.0,0.0,0.0,0.0,1.1492,1.1187,1.0311,0.9699,0.9289,0.9101,0.8434,0.7829,0.7375,0.6219,0.53,0.466,0.3029,0.1625,0.0449,-0.1086,-0.2772,-0.4636,-0.5751,-0.7032,-0.8528,-1.0824,-1.2175,-1.2879,-1.4044,-1.469,-1.5029,-1.5868,-1.6219,-1.6367,0.0,0.0,0.0,0.0,2.2169,2.1517,1.9916,1.8529,1.6745,0.0,0.0,0.0,0.9664,0.8766,0.8179,0.7947,0.8941,0.9709,1.0118,1.126,1.2082,1.2434,1.2611,1.3081,1.3843,1.3371,1.4277,1.6695,1.6612,1.7053,1.8018,1.7798,1.7522,1.7153,1.6833,1.6351,1.5725,1.4578,0.0,0.0,1.3883,0.0,0.0,1.3017,1.2715,0.0,0.0,0.0,1.2262,1.3734,1.4606,0.0,0.0,0.0,0.0,1.7507,1.82,0.0,1.8673,0.0,0.0,0.0,0.0,0.0,0.0,1.9287,0.0,0.0,0.0,0.0,0.0,0.0,0.0,0.0,0.0,0.0,0.0,0.0,0.0,0.0,0.0,0.0,0.0,0.0,0.0,1.2573,1.2338,1.1769,1.0683,1.0333,0.9995,0.9571,0.9112,0.8623,0.8163,0.7123,0.6362,0.5937,0.428,0.2849,0.16,0.0147,-0.1587,-0.3502,-0.463,-0.6088,-0.7809,-0.995,-1.1607,-1.2923,-1.4237,-1.4984,-1.5375,-1.605,-1.6549,-1.6937,0.0,0.0,2.2039,2.2921,2.2908,2.2029,1.9771,1.8663,1.6808,0.0,1.2152,1.0708,0.8334,0.7773,0.7466,0.7307,0.8279,0.8958,0.9031,1.0089,1.0668,1.0541,1.0348,1.0499,1.104,0.9654,1.0541,1.3894,1.3466,1.4415,1.6644,1.6773,1.6635,1.6203,1.5983,1.5566,1.5074,1.4798,0.0,1.3933,1.4339,1.3928,0.0,0.0,1.2501,1.2021,1.2666,1.2501,1.2209,1.4075,1.5994,0.0,0.0,0.0,0.0,0.0,1.8727,0.0,1.8999,1.9152,0.0,0.0,0.0,0.0,1.9734,1.9526,0.0,0.0,0.0,0.0,0.0,0.0,0.0,0.0,0.0,0.0,0.0,0.0,0.0,0.0,0.0,0.0,0.0,1.474,1.4592,1.3738,1.318,1.2366,1.1226,1.1345,1.102,1.0007,0.9982,0.9638,0.8969,0.8227,0.7627,0.7155,0.5623,0.4131,0.2709,0.1152,-0.0575,-0.2408,-0.3774,-0.5299,-0.6911,-0.878,-1.0708,-1.2596,-1.4367,-1.533,-1.5775,-1.6289,-1.7028,-1.7815,0.0,2.163,2.2477,2.3392,2.3339,2.2685,2.1198,1.9207,1.6814,1.3903,1.0586,0.7745,0.5808,0.5413,0.5153,0.4757,0.5124,0.5647,0.622,0.6798,0.7093,0.6985,0.6955,0.6962,0.7044,0.7483,0.8945,1.141,1.2512,1.3898,1.5526,1.6222,1.6276,1.5749,1.6077,1.5782,1.5131,1.5605,0.0,1.377,1.3451,0.0,1.4247,1.3296,1.2822,1.2715,1.2832,1.2822,1.29,1.4236,1.5823,1.7283,0.0,0.0,0.0,1.9628,1.9621,1.9517,1.9753,0.0,0.0,0.0,0.0,0.0,1.9805,1.9328,1.8639,0.0,0.0,0.0,0.0,0.0,0.0,0.0,0.0,0.0,0.0,0.0,0.0,0.0,0.0,0.0,0.0,1.6035,1.6111,1.5383,1.4505,1.362,1.2801,1.2599,1.2051,1.1047,1.0996,1.0692,1.0008,0.9265,0.8736,0.8344,0.7115,0.6021,0.5009,0.3678,0.192,-0.0166,-0.2117,-0.4155,-0.6219,-0.8886,-1.0937,-1.2539,-1.417,-1.5472,-1.6568,-1.7327,-1.7854,-1.8353,2.0593,2.1683,2.2685,2.3587,2.3314,2.2327,2.0541,1.8028,1.5383,1.276,0.9196,0.6526,0.555,0.4853,0.4313,0.4019,0.4116,0.4198,0.4183,0.4369,0.4308,0.3932,0.3623,0.3738,0.4278,0.5047,0.6921,0.995,1.1271,1.3057,1.5246,1.5621,1.5913,1.6159,1.6076,1.5977,1.5886,0.0,1.5346,1.4896,1.4458,0.0,1.382,1.347,1.3152,1.2881,1.2881,1.3107,1.3499,1.4171,1.5439,0.0,0.0,1.8952,1.9794,0.0,2.0529,2.0534,2.0048,0.0,0.0,1.9435,0.0,0.0,0.0,1.9725,1.9296,1.8375,0.0,0.0,0.0,0.0,0.0,0.0,0.0,0.0,0.0,0.0,0.0,0.0,0.0,0.0,0.0,1.7362,1.7086,1.6271,1.5856,1.5204,1.4249,1.3945,1.3311,1.2275,1.1991,1.1561,1.0968,1.0416,1.0003,0.9692,0.8581,0.7619,0.6805,0.5389,0.4027,0.2681,0.0348,-0.2272,-0.511,-0.7715,-1.073,-1.3756,-1.4883,-1.5947,-1.7016,-1.7931,-1.852,-1.8965,2.0016,2.1057,2.2008,2.2986,2.2553,2.135,1.9128,1.6506,1.3784,1.1008,0.8212,0.6345,0.5967,0.5007,0.4313,0.4114,0.3899,0.3532,0.2962,0.2793,0.2364,0.1649,0.1181,0.1357,0.2346,0.3023,0.5115,0.8714,0.9905,1.1993,1.4868,1.4924,1.5572,1.6558,1.6159,0.0,0.0,0.0,0.0,1.625,0.0,1.4838,1.3525,1.3854,1.3548,1.2916,1.2704,1.3068,1.3662,1.3835,1.4903,1.6409,1.7734,1.9186,0.0,0.0,0.0,0.0,0.0,0.0,0.0,0.0,0.0,1.9611,0.0,0.0,0.0,1.9223,0.0,0.0,0.0,0.0,0.0,0.0,0.0,0.0,0.0,0.0,0.0,0.0,0.0,0.0,0.0,1.8425,1.7934,1.7095,1.7211,1.6858,1.5699,1.528,1.4605,1.3544,1.2918,1.238,1.1902,1.1572,1.1314,1.1103,1.0194,0.9367,0.8687,0.7394,0.6457,0.5726,0.3427,0.0471,-0.2928,-0.554,-0.9602,-1.4255,-1.5516,-1.6614,-1.7563,-1.8383,-1.9045,-1.9514,1.7751,1.8524,1.9211,2.0561,2.0505,1.9688,1.7941,1.5768,1.3006,0.9438,0.8155,0.7015,0.5694,0.0,0.0,0.0,0.0,0.0,0.3089,0.0,0.1647,0.1045,0.0915,0.0946,0.1086,0.2219,0.4188,0.7006,0.8658,1.0774,1.3274,1.4166,1.5139,1.6166,1.6468,0.0,0.0,0.0,1.6809,0.0,1.6424,1.5857,0.0,1.4767,1.3976,1.2972,1.2059,1.2141,1.2733,0.0,1.4374,1.5892,0.0,1.8734,2.0075,0.0,0.0,0.0,0.0,0.0,0.0,0.0,1.8465,0.0,0.0,0.0,1.8992,1.9084,0.0,0.0,0.0,0.0,0.0,0.0,0.0,0.0,0.0,0.0,0.0,0.0,0.0,0.0,0.0,0.0,1.879,1.8573,1.8573,1.8216,1.7276,1.6535,1.5676,1.4658,1.3814,1.3274,1.3008,1.2698,1.2564,1.2639,1.2228,1.1793,1.137,1.1015,1.0121,0.8804,0.7163,0.4696,0.1574,-0.203,-0.6654,-1.1777,-1.5056,-1.7337,-1.8801,-1.8981,-1.9383,-1.9803,1.6193,1.7178,1.7805,1.9084,1.8273,1.7054,1.5774,1.3359,1.0971,0.902,0.8143,0.0,0.0,0.0,0.0,0.0,0.0,0.3038,0.0,0.0,0.1081,0.0404,0.0397,0.0681,0.1426,0.2546,0.4771,0.8098,0.9547,1.1655,1.4275,1.474,1.5707,1.7025,1.7091,0.0,1.8648,0.0,1.7623,0.0,0.0,0.0,0.0,1.5061,1.3883,1.2527,1.1541,1.1747,1.2484,0.0,1.3654,0.0,0.0,0.0,0.0,0.0,0.0,0.0,0.0,0.0,0.0,0.0,0.0,0.0,1.8181,0.0,1.9126,0.0,0.0,0.0,0.0,0.0,0.0,0.0,0.0,0.0,0.0,0.0,0.0,0.0,0.0,0.0,0.0,0.0,0.0,0.0,0.0,1.9197,1.8617,1.7514,1.6583,1.5922,1.4746,1.4039,1.385,1.3699,1.3609,1.3529,1.3201,1.2889,1.2598,1.1998,1.1464,1.0903,0.84,0.5808,0.3042,-0.1075,-0.5424,-0.9753,-1.2282,-1.4819,-1.7147,-1.8111,-1.8727,-1.9076,1.3985,0.0,1.575,1.6625,1.5661,1.4355,1.3186,1.1178,0.9562,0.891,0.0,0.0,0.6696,0.6145,0.0,0.0,0.3624,0.2813,0.0,0.0,0.0586,0.0,0.0,0.0505,0.1521,0.2711,0.4978,0.8429,1.0004,1.2153,1.4854,1.5162,1.607,1.7489,1.7486,1.8207,1.9355,0.0,1.853,1.8326,1.815,1.7404,1.6231,1.5032,1.3868,1.2634,1.1369,1.1473,1.2251,1.2339,1.2963,0.0,1.6152,0.0,0.0,0.0,0.0,0.0,1.674,0.0,0.0,0.0,0.0,0.0,0.0,0.0,0.0,0.0,0.0,0.0,0.0,0.0,0.0,0.0,0.0,0.0,0.0,0.0,0.0,0.0,0.0,0.0,0.0,0.0,0.0,0.0,0.0,0.0,1.9557,1.8153,1.7206,1.6904,1.5468,1.4625,1.4467,1.4463,1.4392,1.423,1.4001,1.3788,1.3597,1.2939,1.2672,1.257,1.0096,0.7655,0.5109,0.1027,-0.3049,-0.6907,-0.8742,-1.1176,-1.391,-1.6097,-1.7261,-1.7711,1.0542,1.1522,0.0,1.2363,1.249,1.2013,1.023,0.9858,0.9562,0.891,0.0,0.0,0.0,0.0,0.0,0.0,0.0,0.223,0.2227,0.0,0.0,0.0,0.0,0.0265,0.0,0.2113,0.4077,0.6772,0.9017,1.145,1.3971,1.4866,1.5887,1.6938,1.7456,1.8321,1.9386,1.937,1.9712,2.0122,1.9023,1.7741,1.6297,0.0,1.407,1.3757,1.1741,0.0,0.0,1.1833,1.239,0.0,0.0,0.0,0.0,0.0,0.0,0.0,0.0,0.0,0.0,1.3242,0.0,0.0,0.0,0.0,1.8093,0.0,0.0,0.0,0.0,0.0,0.0,0.0,0.0,0.0,0.0,0.0,0.0,0.0,0.0,0.0,0.0,0.0,0.0,0.0,0.0,0.0,1.9898,1.8359,1.7459,1.7385,1.5823,1.4954,1.4873,1.4873,1.4873,1.4862,1.4862,1.4785,1.4642,1.4562,1.4342,1.3994,1.3179,1.1496,0.9071,0.5656,0.1591,-0.2696,-0.4694,-0.6813,-0.917,-1.2776,-1.4828,-1.5729,0.0,0.0,0.0,0.0,0.0,1.0146,0.9273,0.9159,0.9061,0.0,0.0,0.0,0.0,0.6145,0.5492,0.0,0.0,0.2174,0.2174,0.0839,0.0,0.0,0.0,0.0273,0.0,0.2166,0.3996,0.6416,0.8943,1.1135,1.3055,1.4252,1.5379,1.6341,0.0,1.8484,0.0,0.0,0.0,0.0,0.0,1.8381,1.7775,0.0,0.0,1.3397,1.2035,1.1664,0.0,1.1811,1.2187,1.2857,1.3781,1.4452,1.4945,1.5301,1.5162,0.0,0.0,0.0,1.2361,1.188,0.0,0.0,0.0,0.0,0.0,0.0,0.0,0.0,0.0,0.0,0.0,0.0,0.0,0.0,0.0,0.0,0.0,0.0,0.0,0.0,0.0,0.0,0.0,0.0,0.0,0.0,0.0,1.9049,1.8239,1.7687,1.6581,1.5706,1.5101,1.5058,1.5033,1.5032,1.4842,1.4739,1.4694,1.4247,1.3943,1.3636,1.2256,1.0855,0.9253,0.6224,0.3384,0.0661,-0.2295,-0.4149,-0.5709,-1.0026,-1.2567,-1.3832,0.5907,0.0,0.0,0.0,0.0,0.8294,0.8072,0.0,0.0,0.0,0.8049,0.0,0.647,0.0,0.5328,0.0,0.3345,0.2508,0.2232,0.1062,0.0,0.0,0.0,0.0,0.0,0.1653,0.3247,0.5373,0.8116,1.0352,1.2037,1.3609,1.4765,1.5548,0.0,1.8063,1.9509,2.0543,2.0985,0.0,0.0,1.9146,0.0,0.0,1.4802,1.37,0.0,1.2066,1.2029,1.1847,1.1993,1.2366,1.2976,1.3272,1.3432,1.374,1.351,1.2882,1.1802,1.1293,0.0,1.0462,1.0486,0.0,1.1616,0.0,0.0,0.0,0.0,0.0,0.0,0.0,0.0,0.0,0.0,0.0,0.0,0.0,0.0,0.0,0.0,0.0,0.0,0.0,1.9247,1.9486,0.0,0.0,0.0,0.0,1.8531,1.7754,1.6857,1.5969,1.509,1.5059,1.497,1.4857,1.468,1.454,1.4391,1.3864,1.3424,1.3035,1.1546,1.0261,0.9032,0.6632,0.4562,0.2666,0.0032,-0.1846,-0.3639,-0.782,-1.0445,-1.1923,0.0,0.0,0.0,0.0,0.6438,0.0,0.0,0.0,0.7396,0.0,0.783,0.7984,0.614,0.5864,0.5487,0.457,0.3846,0.3121,0.2286,0.1507,0.0,0.0,0.0,0.0,0.0,0.0651,0.1852,0.0,0.0,0.0,1.1,1.2892,1.4086,1.4635,1.5833,0.0,1.8529,2.021,2.1213,2.1552,2.0682,2.0058,1.9385,1.7312,1.5878,1.4726,1.3095,1.2508,1.2401,1.192,1.1774,1.1836,1.2153,1.2307,1.2235,1.1778,1.1643,1.1352,1.0037,0.9645,0.9514,0.9066,0.0,0.0,0.0,0.0,1.1864,0.0,0.0,0.0,0.0,0.0,0.0,0.0,0.0,0.0,0.0,0.0,0.0,0.0,0.0,0.0,0.0,0.0,1.8623,1.9363,1.9449,0.0,0.0,0.0,1.8378,1.7615,1.6717,1.5802,1.4897,1.487,1.4689,1.4371,1.4378,1.4197,1.387,1.3459,1.2935,1.2304,1.1176,0.9917,0.8546,0.7021,0.5291,0.3479,0.2303,0.0066,-0.2878,-0.6201,-0.8496,-0.9919,0.5412,0.6114,0.6498,0.0,0.7031,0.7235,0.0,0.0,0.0,0.0,0.6848,0.6573,0.6421,0.5496,0.4791,0.4515,0.4349,0.0,0.0,0.0,0.0,0.0838,0.028,0.0,0.0,0.1219,0.0,0.3428,0.0,0.0,1.0077,1.1676,1.3162,0.0,0.0,0.0,1.8606,1.988,2.1054,2.2032,2.115,2.0518,0.0,0.0,1.6332,1.5291,1.3609,1.2579,1.1872,1.1313,1.1175,1.1095,1.0506,1.0818,1.1343,1.0937,1.0819,1.0587,0.955,0.9025,0.869,0.8224,0.7716,0.748,0.0,0.0,0.0,0.0,0.0,0.0,0.0,0.0,0.0,0.0,0.0,0.0,0.0,0.0,0.0,0.0,0.0,0.0,0.0,0.0,1.8195,1.8181,0.0,0.0,0.0,0.0,0.0,1.7497,1.7017,1.6119,1.4682,1.4437,1.4251,1.4168,1.3912,1.3674,1.3443,1.3001,1.245,1.1824,1.0815,0.9577,0.8157,0.6904,0.5792,0.4672,0.3086,0.0541,-0.2612,-0.5423,-0.6743,-0.7201,0.521,0.0,0.0,0.6642,0.0,0.0,0.6253,0.0,0.0,0.615,0.6204,0.0,0.5719,0.4956,0.4519,0.4519,0.4519,0.0,0.3345,0.0,0.0,0.1118,0.0727,0.0504,0.0504,0.1619,0.0,0.3274,0.0,0.0,0.8656,1.0646,0.0,0.0,0.0,1.6009,1.7424,1.9387,2.0782,2.1691,2.0975,0.0,0.0,1.7914,1.6662,1.5825,1.4119,1.2779,1.1737,1.1398,1.1035,1.0568,0.982,1.0006,1.034,0.9745,0.9584,0.9424,0.8684,0.8188,0.7835,0.7565,0.6985,0.6609,0.7078,0.7048,0.7105,0.0,0.0,0.0,0.0,0.0,0.0,0.0,0.0,0.0,0.0,0.0,0.0,0.0,0.0,0.0,0.0,0.0,0.0,0.0,0.0,0.0,0.0,0.0,0.0,1.706,1.6798,1.5926,1.4319,1.4116,1.3966,1.3884,1.3689,1.3443,1.3158,1.2781,1.2209,1.1483,1.0837,0.9741,0.8359,0.7521,0.6537,0.534,0.3445,0.1249,-0.1086,-0.2941,-0.4389,-0.5553,0.5479,0.0,0.0,0.0,0.0,0.0,0.0,0.5433,0.0,0.457,0.0,0.5882,0.4625,0.4519,0.4519,0.4519,0.0,0.4181,0.3511,0.2732,0.2063,0.1396,0.1284,0.1229,0.1229,0.1952,0.0,0.0,0.0,0.6781,0.7324,0.9818,0.0,0.0,0.0,0.0,0.0,1.8822,2.0371,2.0846,2.04,2.0246,2.0058,1.7929,1.6835,1.6285,1.4547,1.2998,1.1763,1.1659,1.0972,1.0107,0.951,0.9391,0.9281,0.8525,0.8291,0.8213,0.7802,0.7373,0.702,0.702,0.6631,0.6246,0.6236,0.5846,0.5582,0.6011,0.539,0.5413,0.0,0.0,0.0,0.0,0.0,0.0,0.0,0.0,0.0,0.0,0.0,0.0,0.0,0.0,0.0,0.0,0.0,0.0,0.0,0.0,0.0,1.6658,1.6385,0.0,1.4032,0.0,1.3754,1.357,1.357,1.3345,1.2942,1.2722,1.2128,1.1275,1.0963,1.0059,0.8739,0.8312,0.7172,0.5522,0.3552,0.2126,0.1014,0.0149,-0.1802,-0.4037,0.0,0.0,0.0,0.0,0.0,0.6912,0.5977,0.5167,0.4625,0.4519,0.4736,0.4791,0.4515,0.4519,0.4519,0.4519,0.4519,0.0,0.0,0.0,0.0,0.2899,0.2343,0.2009,0.2009,0.2732,0.3176,0.0,0.5529,0.6913,0.7582,0.0,0.0,0.0,0.0,0.0,1.6943,1.8432,0.0,2.0289,1.9889,1.9939,2.0058,1.7929,1.6835,1.6285,1.4547,1.2998,1.167,1.0823,1.018,0.95,0.8271,0.8215,0.8496,0.7988,0.7812,0.7793,0.7725,0.7166,0.6609,0.6609,0.5774,0.4922,0.4933,0.4595,0.4214,0.3903,0.3846,0.3854,0.3854,0.0,0.0,0.0,0.0,0.0,0.0,0.0,0.0,0.0,0.0,0.0,0.0,0.0,0.0,0.0,0.0,0.0,0.0,0.0,0.0,0.0,1.6466,0.0,0.0,0.0,1.3462,1.3429,1.3429,1.3174,1.2668,1.263,1.2123,1.1273,1.0661,0.9767,0.8661,0.8047,0.6815,0.5161,0.3876,0.2957,0.2281,0.1287,0.0489,-0.0434,0.0,0.0,0.0,0.0,0.0,0.0,0.0,0.5281,0.0,0.4519,0.4519,0.4519,0.4519,0.4519,0.4519,0.4519,0.4519,0.4519,0.4519,0.379,0.3345,0.3345,0.2954,0.0,0.2788,0.3511,0.4119,0.4443,0.5873,0.6897,0.7494,0.0,0.0,1.0398,0.0,1.3873,0.0,0.0,0.0,1.9075,1.8896,1.8948,1.8987,1.7327,1.6438,1.5896,1.4446,1.3135,1.2057,1.1273,1.0597,0.9793,0.8603,0.8318,0.8291,0.7832,0.7695,0.7695,0.7695,0.7255,0.6751,0.654,0.5875,0.5099,0.4441,0.4151,0.3793,0.3138,0.2869,0.2874,0.3263,0.5478,0.0,0.0,0.0,0.0,0.0,0.0,0.0,0.0,0.0,0.0,0.0,0.0,0.0,0.0,0.0,0.0,0.0,0.0,0.0,0.0,0.0,0.0,0.0,0.0,0.0,1.3396,1.3396,1.3191,1.2797,1.2668,1.2204,1.1468,1.0865,1.0095,0.9198,0.8132,0.7082,0.6044,0.5071,0.4278,0.3569,0.2531,0.2121,0.1802,0.0,0.8804,0.0,0.0,0.8315,0.0,0.6312,0.5226,0.4519,0.4519,0.4519,0.4519,0.4519,0.4519,0.4519,0.4519,0.4519,0.4519,0.4519,0.3959,0.3624,0.3624,0.3566,0.3566,0.3566,0.4181,0.4842,0.0,0.0,0.0,0.0,0.0,0.0,0.0,0.0,0.0,0.0,0.0,1.6718,1.772,1.772,1.7825,1.7788,1.6638,1.5906,1.5339,1.417,1.3263,1.2566,1.2037,1.1138,1.0067,0.9078,0.8531,0.8174,0.7802,0.7695,0.7695,0.7695,0.7403,0.7029,0.67,0.6183,0.5501,0.4494,0.4053,0.3663,0.2973,0.2543,0.2646,0.389,0.5262,0.0,0.0,0.0,0.0,0.0,0.0,0.0,0.0,0.0,0.0,0.0,0.0,0.0,0.0,0.0,0.0,0.0,0.0,0.0,0.0,0.0,1.5477,1.4749,0.0,1.3566,0.0,1.3396,1.326,1.2995,1.2778,1.2364,1.1779,1.1281,1.0589,0.9703,0.8541,0.7685,0.7066,0.6332,0.5545,0.4748,0.3836,0.3577,0.3471,0.0,0.0,0.0,0.0,0.0,0.0,0.4736,0.457,0.4519,0.4519,0.4519,0.4519,0.4519,0.4519,0.4519,0.4519,0.4519,0.4519,0.4519,0.4463,0.4405,0.4405,0.4405,0.4405,0.4405,0.446,0.4842,0.0,0.0,0.0,0.0,0.0,0.0,0.0,0.0,0.0,0.0,1.4389,1.552,1.6549,1.6549,1.6902,1.7259,1.6157,1.5398,1.4761,1.3642,1.3198,1.3042,1.2526,1.1207,0.9615,0.8666,0.8065,0.7754,0.7715,0.7695,0.7695,0.7695,0.7403,0.708,0.705,0.6159,0.5237,0.5111,0.4189,0.3327,0.3257,0.3192,0.3672,0.5212,0.5693,0.6495,0.0,0.0,0.0,0.0,0.0,0.0,0.0,0.0,0.0,0.0,0.0,0.0,0.0,0.0,0.0,0.0,0.0,0.0,1.7743,0.0,1.6241,1.5494,1.4783,1.4056,1.3396,1.3396,1.326,1.3013,1.2961,1.2665,1.2133,1.1779,1.0922,0.9754,0.9339,0.8541,0.7579,0.7095,0.6405,0.5631,0.5228,0.5091,0.5012,0.0,0.0,0.0,0.0,0.0,0.0,0.0,0.7069,0.7069,0.7069,0.555,0.4736,0.5273,0.5328,0.5273,0.5113,0.5109,0.4948,0.4515,0.4519,0.4519,0.4519,0.4519,0.4519,0.4519,0.4893,0.5437,0.0,0.0,0.7616,0.8368,0.0,0.0,0.0,0.0,1.1886,1.287,1.3747,1.463,1.5398,1.5784,1.604,1.6214,1.5479,1.5055,1.471,1.3617,1.3198,1.3076,1.2249,1.1337,1.041,0.9708,0.9046,0.8447,0.8193,0.8258,0.8309,0.7822,0.7763,0.7715,0.7237,0.6532,0.5829,0.5331,0.461,0.4011,0.3756,0.4097,0.4634,0.5294,0.597,0.6909,0.0,0.0,0.0,0.0,0.0,0.0,0.0,0.0,0.0,0.0,0.0,0.0,0.0,0.0,0.0,0.0,0.0,0.0,1.7839,0.0,1.59,1.5595,1.4428,1.3684,1.3396,1.3396,1.3346,1.3226,1.3067,1.261,1.19,1.1764,1.1238,1.0407,0.9843,0.9339,0.8885,0.8094,0.7434,0.6911,0.6624,0.6158,0.5632,0.8646,0.0,0.8804,0.0,0.8804,0.8804,0.8804,0.8804,0.8804,0.8804,0.7009,0.6036,0.6681,0.6519,0.6195,0.5869,0.5651,0.5324,0.4842,0.4625,0.4519,0.4519,0.4519,0.0,0.4519,0.5164,0.5869,0.6588,0.7343,0.0,0.8804,0.0,0.0,0.0,1.0415,1.1358,1.2288,1.315,1.4014,1.4744,1.5141,1.5448,1.5593,1.5271,1.4953,1.4563,1.3747,1.3336,1.3067,1.2217,1.1744,1.1343,1.0399,0.9688,0.9137,0.887,0.8953,0.8969,0.8426,0.827,0.8166,0.7589,0.6961,0.6328,0.5736,0.5061,0.4564,0.4403,0.4801,0.5324,0.5698,0.6521,0.7505,0.8617,0.0,0.0,0.0,0.0,0.0,0.0,1.8162,1.8993,1.8993,0.0,0.0,0.0,0.0,0.0,0.0,0.0,0.0,0.0,0.0,0.0,0.0,1.4401,1.3733,1.3462,1.3462,1.3429,1.3379,1.3121,1.2652,1.2056,1.1927,1.1578,1.1089,1.0489,1.0058,0.9728,0.9027,0.8549,0.8208,0.7838,0.7408,0.6929,0.8804,0.8804,0.8804,0.8804,0.8804,0.8804,0.8804,0.8804,0.8804,0.8804,0.8752,0.8752,0.8752,0.7943,0.7187,0.6642,0.5923,0.5487,0.5483,0.4897,0.4519,0.0,0.0,0.4519,0.4519,0.5164,0.5869,0.6588,0.0,0.0,0.8804,0.0,0.8804,0.8857,1.0218,1.0813,1.0922,1.2314,1.361,1.4698,1.4698,1.5128,1.5706,1.5693,1.5054,1.4097,1.4072,1.3697,1.3129,1.265,1.2496,1.2166,1.0219,0.9655,0.971,0.9677,0.9656,0.9574,0.9574,0.8938,0.829,0.829,0.7384,0.6488,0.6488,0.5501,0.4718,0.5118,0.5206,0.5574,0.6841,0.7413,0.8119,0.9454,0.0,0.0,0.0,0.0,0.0,0.0,1.6104,1.7394,1.8856,0.0,0.0,0.0,0.0,0.0,0.0,0.0,0.0,1.7488,1.74,0.0,1.5017,1.5,1.452,1.3601,1.3601,1.3524,1.3379,1.3121,1.2979,1.2942,1.2412,1.2014,1.1679,1.1394,1.0695,0.9805,0.9779,0.9713,0.95,0.8902,0.9069,0.93,0.8804,0.8804,0.8804,0.8804,0.8804,0.8804,0.8804,0.8804,0.8804,0.8804,0.8804,0.8804,0.8804,0.854,0.8103,0.0,0.7122,0.6794,0.0,0.5601,0.5382,0.5932,0.5441,0.5437,0.5932,0.6632,0.7122,0.7348,0.0,0.0,0.0,0.8804,0.9061,0.951,1.0415,1.1065,1.1566,1.2957,1.3732,1.4143,1.5005,1.5448,1.5617,1.5666,1.5241,1.4601,1.4223,1.3697,1.3129,1.265,1.2508,1.2342,1.1404,1.1091,1.1061,1.0764,1.0538,1.0309,0.9754,0.934,0.8937,0.8421,0.7801,0.7237,0.6961,0.6388,0.5929,0.6045,0.6523,0.7041,0.7443,0.8021,0.8815,0.9937,1.0614,0.0,0.0,0.0,0.0,0.0,1.5344,1.6465,0.0,1.8342,0.0,0.0,0.0,0.0,0.0,0.0,0.0,0.0,1.6905,0.0,1.5,1.4503,1.41,1.3795,1.3795,1.3709,1.3524,1.3346,1.3173,1.2995,1.2626,1.2316,1.1993,1.1498,1.1376,1.1435,1.0703,1.044,1.0444,1.0019,0.9518,0.8966,0.8804,0.8804,0.8804,0.8804,0.8804,0.8804,0.8804,0.8804,0.8804,0.8804,0.8804,0.8804,0.8804,0.8804,0.0,0.8156,0.7883,0.7503,0.702,0.6308,0.6091,0.6588,0.6145,0.6145,0.6588,0.0,0.0,0.7723,0.8427,0.8804,0.8804,0.8804,0.9159,0.9814,1.0517,1.1308,1.2248,1.3331,1.4039,1.4538,1.532,1.5732,1.5915,1.5994,1.5668,1.5155,1.4588,1.4047,1.3426,1.271,1.2615,1.2685,1.221,1.2174,1.2224,1.1757,1.1529,1.1231,1.0552,1.003,0.9537,0.8884,0.8202,0.7559,0.699,0.6691,0.6548,0.6691,0.7237,0.7744,0.7898,0.854,0.9368,1.039,1.0939,1.1658,1.2861,0.0,0.0,0.0,0.0,0.0,0.0,1.7489,0.0,0.0,0.0,0.0,0.0,0.0,0.0,1.7894,1.7361,0.0,1.5831,1.5292,1.4827,1.4453,1.4066,1.378,1.3601,1.3509,1.3346,1.3138,1.2759,1.2494,1.2327,1.1985,1.1947,1.2024,1.1602,1.1471,1.1383,1.0798,1.0324,0.9836,0.8804,0.8804,0.0,0.0,0.8804,0.0,0.8804,0.8804,0.8804,0.8804,0.8804,0.8857,0.891,0.8962,0.891,0.8857,0.0,0.0,0.0,0.7074,0.6696,0.675,0.6696,0.6696,0.675,0.745,0.7777,0.7777,0.848,0.8804,0.8804,0.8857,0.9211,0.9917,1.0559,1.1598,1.2918,1.3569,1.4538,1.5588,1.5632,1.6008,1.6522,1.6522,1.617,1.5618,1.5104,1.4563,1.3924,1.2902,1.2838,1.3116,1.2685,1.2873,1.3163,1.2685,1.2494,1.2291,1.1789,1.0964,1.0092,0.9575,0.8606,0.7589,0.6841,0.6661,0.6751,0.7139,0.753,0.7917,0.8308,0.8999,0.9845,1.0925,1.1418,1.2219,1.3742,0.0,0.0,0.0,0.0,0.0,0.0,1.6996,1.8178,0.0,0.0,0.0,0.0,0.0,2.0276,1.8642,1.8488,1.8012,1.7209,1.7008,1.6433,1.5488,1.4484,1.3897,1.3702,1.3634,1.3542,1.3363,1.2818,1.2642,1.268,1.2756,1.2439,1.1974,1.2567,1.2668,1.2377,1.1399,1.1359,1.1542,0.0,0.0,0.8804,0.8804,0.8804,0.8804,0.8804,0.8804,0.8804,0.8804,0.8804,0.9211,1.021,1.032,1.0115,0.9614,0.8949,0.8533,0.8533,0.783,0.767,0.8262,0.7723,0.7723,0.8268,0.8427,0.8533,0.8533,0.8699,0.8804,0.8804,0.9309,0.9917,1.061,1.1266,1.2297,1.3616,1.4236,1.4915,1.5632,1.6095,1.638,1.6522,1.6522,1.617,1.5618,1.5104,1.4563,1.3997,1.3281,1.3094,1.3198,1.3082,1.3344,1.3635,1.3185,1.2743,1.2379,1.2253,1.1397,1.05,1.0113,0.9266,0.8501,0.8294,0.8266,0.8284,0.8378,0.8723,0.9035,0.9128,0.9839,1.0719,1.1761,1.2346,1.3055,1.4201,1.4374,0.0,0.0,1.4438,1.4914,1.6016,1.6391,1.7476,0.0,0.0,0.0,0.0,2.0708,1.9902,1.8644,1.8572,1.8129,1.7209,1.7144,1.6923,1.6525,1.5524,1.4927,1.4715,1.3937,1.3542,1.3363,1.2818,1.2895,1.333,1.2955,1.3302,1.4053,1.3854,1.364,1.3396,1.2805,1.2,1.1084,0.8804,0.8804,0.9218,1.0438,1.0685,1.0233,0.9008,0.988,1.0685,1.0685,1.0685,1.0685,1.0762,1.1375,1.1334,1.0364,0.9666,0.9113,0.8804,0.8427,0.8527,0.9211,0.8883,0.8981,0.971,0.971,0.9562,0.9263,0.9562,0.9562,0.9256,0.9969,1.061,1.1266,1.1953,1.2976,1.4236,1.4869,1.5466,1.6051,1.638,1.6522,1.6522,1.6522,1.6333,1.6007,1.5442,1.4928,1.4412,1.4021,1.3732,1.3547,1.3735,1.3967,1.4117,1.3868,1.3579,1.3322,1.3045,1.2535,1.1801,1.0737,0.9852,0.9189,0.886,0.8789,0.8789,0.8789,0.9313,0.9765,0.9765,1.0638,1.165,1.2446,1.2984,1.3676,1.4637,1.4783,0.0,1.4783,1.4783,1.5051,1.5813,1.6074,1.7032,1.908,0.0,0.0,2.0182,1.9916,1.9646,1.9394,1.9288,1.9008,1.848,1.7989,1.7467,1.689,1.6351,1.5791,1.5243,1.5053,1.4837,1.4572,1.4163,1.4031,1.4078,1.3991,1.4145,1.4493,1.4544,1.4262,1.3782,1.3264,1.2342,1.1282,0.8804,0.9113,1.0131,1.2471,1.2881,1.2107,0.9777,1.1401,1.2881,1.2881,1.2881,1.2461,1.1225,1.2157,1.2363,1.1065,1.0415,0.9814,0.9159,0.9113,0.9361,0.9917,0.9961,1.0218,1.0762,1.0813,1.0517,0.9961,1.0517,1.0517,0.9969,1.0669,1.1316,1.2003,1.2628,1.3632,1.488,1.5365,1.5964,1.6522,1.6522,1.6552,1.6637,1.6637,1.668,1.6676,1.6115,1.5657,1.5235,1.5056,1.4666,1.4352,1.4699,1.4772,1.4735,1.4735,1.4728,1.4578,1.397,1.3762,1.3284,1.1528,1.0662,1.0108,0.9532,0.9396,0.9396,0.9396,1.0041,1.0595,1.0595,1.167,1.27,1.3135,1.3682,1.432,1.5107,0.0,1.5195,1.5195,1.5168,1.5257,1.5677,1.6018,1.6767,1.8171,1.8651,1.8832,0.0,1.8834,1.919,1.991,1.9888,1.9907,1.9993,1.8934,1.7962,1.7127,1.6977,1.6443,1.56,1.6287,1.638,1.5992,1.5723,1.5325,1.4865,1.518,1.4917,1.44,1.4978,1.4752,1.4019,1.3491,1.2706,1.1836,0.8804,1.0685,1.2421,1.2832,1.2881,1.2783,1.2314,1.2627,1.2881,1.2881,1.2881,1.2832,1.2618,1.2774,1.2559,1.1715,1.1566,1.1216,1.0517,1.0466,1.0517,1.0669,1.0669,1.0712,1.0813,1.0813,1.0771,1.0669,1.0771,1.0771,1.0661,1.1316,1.2003,1.2677,1.3369,1.4307,1.5454,1.5543,1.5964,1.6522,1.6522,1.6752,1.7188,1.7188,1.7463,1.7785,1.7224,1.6989,1.6862,1.6366,1.6173,1.6125,1.616,1.6047,1.5862,1.5862,1.5752,1.5433,1.4609,1.4051,1.3512,1.2678,1.2402,1.2306,1.2211,1.2184,1.2184,1.2184,1.2293,1.2389,1.2389,1.3452,1.427,1.4113,1.5016,1.5732,1.5698,0.0,1.5697,1.5697,1.5385,1.5465,1.6142,1.6205,1.6747,1.802,1.795,1.8079,1.859,1.8116,1.7979,1.8253,1.8901,1.9485,1.9993,1.8934,1.8323,1.8168,1.7314,1.6734,1.6414,1.654,1.638,1.5992,1.5723,1.5587,1.5527,1.5383,1.5381,1.5563,1.5667,1.5359,1.4876,1.4456,1.3424,1.2259,1.0998,1.2008,1.2881,1.2881,1.2881,1.2881,1.2881,1.2881,1.2881,1.2881,1.2881,1.2881,1.2881,1.2881,1.2774,1.2403,1.2706,1.2735,1.2444,1.1408,1.0965,1.1316,1.1366,1.1525,1.19,1.195,1.1742,1.1366,1.1742,1.1733,1.1366,1.2395,1.3034,1.3369,1.4354,1.5084,1.5632,1.6275,1.6672,1.6951,1.7229,1.7504,1.7747,1.7747,1.7867,1.8064,1.7827,1.756,1.7316,1.7241,1.7071,1.687,1.7089,1.7067,1.689,1.6537,1.6263,1.5996,1.5579,1.5019,1.4443,1.3997,1.3489,1.3084,1.3123,1.2977,1.2869,1.307,1.3219,1.3276,1.3276,1.4475,1.5313,1.4803,1.5664,0.0,0.0,1.5799,1.5799,1.5799,1.5805,1.5998,1.6523,1.6433,1.6741,1.7654,1.7415,1.7225,1.7245,1.7092,1.707,1.7195,1.8433,1.9188,1.9358,1.9212,1.8908,1.8392,1.8269,1.7925,1.7432,1.7851,1.7814,1.7397,1.7287,1.6965,1.6524,1.6219,1.6087,1.6067,1.5885,1.5389,1.4752,1.4564,1.3617,1.2401,1.2881,1.2881,1.2881,1.2881,1.2881,1.2881,1.2881,1.2881,1.2881,1.2881,1.3065,1.32,1.32,1.3344,1.343,1.3344,1.3742,1.4003,1.4003,1.257,1.1935,1.2444,1.2483,1.2657,1.3104,1.3104,1.2745,1.208,1.2608,1.2706,1.2307,1.3331,1.3956,1.4272,1.5174,1.5764,1.6058,1.6925,1.7394,1.7504,1.7947,1.8185,1.8302,1.8302,1.838,1.8458,1.8458,1.82,1.7902,1.8209,1.8033,1.7744,1.8078,1.814,1.7979,1.7467,1.7068,1.6732,1.6495,1.6046,1.5598,1.5329,1.4671,1.4143,1.4165,1.3956,1.3823,1.4139,1.4315,1.4414,1.4414,1.5565,1.626,1.5492,0.0,0.0,0.0,1.5885,1.5913,1.5913,1.6053,1.6355,1.6876,1.6758,1.6921,1.7629,1.714,1.6687,1.6393,1.6232,1.6198,1.6325,1.8122,1.9039,1.8869,1.9326,1.9194,1.8453,1.8874,1.8728,1.8133,1.8922,1.9031,1.8585,1.8585,1.8111,1.7256,1.6942,1.6607,1.6274,1.5926,1.5329,1.4627,1.4533,1.3729,1.2603,1.2881,1.2881,1.2881,1.2881,1.2881,1.2881,1.2881,1.2881,1.2881,1.2881,1.3563,1.4014,1.4014,1.4663,1.4983,1.4606,1.4606,1.4652,1.4652,1.4503,1.4411,1.4468,1.4514,1.4236,1.3721,1.3732,1.3409,1.2822,1.2881,1.3152,1.3674,1.3768,1.4411,1.5487,1.5543,1.6188,1.7188,1.7271,1.7585,1.8027,1.8066,1.8419,1.8855,1.8855,1.9169,1.9566,1.9566,1.9573,1.9528,1.9579,1.9534,1.9504,1.954,1.9417,1.9276,1.9229,1.876,1.8025,1.7043,1.6732,1.6684,1.6658,1.6584,1.6553,1.6553,1.6527,1.6511,1.6553,1.6559,1.6564,1.6564,1.7183,1.7342,1.6366,0.0,0.0,1.5975,1.6067,1.6274,1.6274,1.5961,1.6152,1.7158,1.7131,1.7458,1.8425,1.7286,1.6726,1.7198,1.5812,1.5152,1.5487,1.7847,1.9095,1.9078,1.895,1.8774,1.8583,1.8509,1.8331,1.8133,1.8922,1.9031,1.8585,1.8585,1.8111,1.7256,1.6942,1.6607,1.6274,1.5926,1.5507,1.5013,1.4627,1.39,1.3079,1.2881,1.2881,1.2881,1.2881,1.3286,1.36,1.3457,1.3789,1.4025,1.4025,1.4294,1.4468,1.4468,1.4744,1.4892,1.4698,1.505,1.5276,1.5276,1.5599,1.5478,1.4744,1.4698,1.4606,1.4376,1.4376,1.4247,1.4025,1.4025,1.4107,1.4376,1.4732,1.5174,1.5632,1.6361,1.687,1.7353,1.8027,1.8419,1.8612,1.8968,1.9207,1.9406,1.9406,1.953,1.969,1.969,1.969,1.969,1.969,1.969,1.9747,2.0,2.0023,1.9964,2.0063,1.9593,1.9045,1.8833,1.7963,1.7101,1.7101,1.6952,1.6866,1.7052,1.6952,1.6866,1.7076,1.6926,1.6789,1.6789,1.7338,1.755,1.6744,0.0,1.7479,1.6557,1.6528,1.6607,1.6607,1.666,1.6936,1.7489,1.7383,1.7488,1.8002,1.6941,1.6336,1.6533,1.5658,1.521,1.5331,1.7267,1.8298,1.8295,1.9127,1.9477,1.9349,1.9201,1.9036,1.8849,1.902,1.8931,1.8585,1.843,1.8065,1.7572,1.7018,1.6712,1.6554,1.6011,1.5359,1.4721,1.4564,1.3762,1.2709,1.3152,1.3017,1.3017,1.3382,1.3779,1.4003,1.405,1.4422,1.4698,1.4698,1.488,1.4971,1.4971,1.5152,1.5242,1.5242,1.5644,1.5864,1.5864,1.6281,1.6107,1.5299,1.5242,1.5197,1.4971,1.4971,1.488,1.4698,1.4698,1.4789,1.5005,1.541,1.572,1.5908,1.6883,1.7394,1.7626,1.8535,1.9006,1.9169,1.9566,1.969,1.969,1.969,1.9782,1.9874,1.9874,1.998,2.0085,1.9945,1.998,2.0139,2.0246,2.0483,2.0767,2.099,2.0572,2.0087,2.0305,1.9361,1.8222,1.7885,1.7477,1.7216,1.7516,1.7344,1.7199,1.7516,1.7344,1.7117,1.7117,1.7483,1.761,1.7057,1.7423,1.7568,1.6879,1.6892,1.6968,1.6968,1.701,1.7248,1.7803,1.7638,1.768,1.8127,1.7077,1.6224,1.5814,1.5483,1.5302,1.5331,1.6935,1.7801,1.7801,1.9338,2.0002,1.9809,1.972,1.9536,1.9289,1.9084,1.8843,1.8603,1.831,1.8057,1.7743,1.7068,1.6789,1.6738,1.6052,1.5255,1.4501,1.4501,1.386,1.3011,1.3684,1.3324,1.3296,1.4479,1.419,1.4003,1.4617,1.4698,1.4698,1.4698,1.5231,1.5588,1.5588,1.6139,1.6522,1.6522,1.6522,1.6522,1.6522,1.6522,1.6522,1.6522,1.6522,1.6238,1.5632,1.5588,1.532,1.4698,1.4698,1.5017,1.5588,1.5588,1.5908,1.6522,1.7076,1.7585,1.8145,1.8688,1.9207,1.969,1.969,1.969,1.9711,1.9711,1.9929,2.0314,2.0314,2.0583,2.0926,2.0449,2.0616,2.0926,2.0449,2.0894,2.1688,2.218,2.1769,2.1221,2.1221,2.0881,2.0258,1.9175,1.8352,1.7878,1.8163,1.8009,1.7917,1.8163,1.7992,1.7811,1.7811,1.7811,1.7681,1.7368,1.7572,1.7566,1.6917,1.7101,1.732,1.732,1.6842,1.6974,1.8097,1.7915,1.8125,1.9127,1.7916,1.6523,1.5197,1.5245,1.5351,1.5413,1.6967,1.782,1.782,1.9478,2.0135,1.979,1.979,1.9619,1.9289,1.9102,1.8843,1.8585,1.831,1.804,1.7726,1.7068,1.6789,1.6738,1.6067,1.5255,1.4501,1.4501,1.4326,1.416,1.3779,1.4014,1.4294,1.4663,1.4915,1.5129,1.532,1.5688,1.5976,1.5976,1.6107,1.6238,1.6238,1.638,1.6522,1.6522,1.6522,1.6522,1.6522,1.6522,1.6522,1.6522,1.6522,1.6423,1.6238,1.6238,1.6151,1.5976,1.5976,1.6064,1.6238,1.6238,1.6527,1.7076,1.7626,1.8185,1.8688,1.9244,1.9566,1.969,1.969,1.9874,2.0124,2.0124,2.0382,2.0797,2.0797,2.0894,2.0959,2.0829,2.0894,2.1023,2.1165,2.1628,2.2147,2.2483,2.2418,2.2255,2.2255,2.1951,2.1369,2.0298,1.986,1.9779,2.0093,1.9918,1.9579,1.9113,1.8966,1.868,1.794,1.7949,1.804,1.7936,1.8018,1.8018,1.781,1.7871,1.7936,1.7936,1.7962,1.8169,1.8698,1.8762,1.8944,1.9444,1.8747,1.7925,1.7113,1.7107,1.7137,1.7148,1.8167,1.8701,1.8711,1.9759,2.0135,1.979,1.979,1.9619,1.9289,1.8895,1.8678,1.8566,1.8103,1.7732,1.7415,1.6993,1.6659,1.6367,1.5609,1.4968,1.447,1.4181,1.3848,1.3629,1.4457,1.4595,1.4835,1.5344,1.5511,1.5676,1.5908,1.6281,1.6522,1.6522,1.6522,1.6522,1.6522,1.6522,1.6522,1.6522,1.6522,1.6595,1.6795,1.6837,1.6909,1.7105,1.7105,1.6909,1.6522,1.6522,1.6522,1.6522,1.6522,1.6522,1.6522,1.671,1.6993,1.7353,1.8066,1.8612,1.893,1.9479,1.969,1.969,1.969,1.9929,2.0314,2.0314,2.0682,2.1244,2.1244,2.1354,2.1493,2.1306,2.1244,2.1306,2.1735,2.2061,2.2349,2.2625,2.2695,2.2721,2.2873,2.2806,2.2589,2.1932,2.1216,2.0798,2.1093,2.0909,2.057,2.0096,2.0012,1.9699,1.8601,1.862,1.874,1.8423,1.8351,1.8351,1.8351,1.8351,1.8351,1.8351,1.8302,1.8431,1.8966,1.8932,1.8992,1.9254,1.9068,1.8614,1.7933,1.7899,1.789,1.7904,1.8686,1.9095,1.9109,1.9831,2.005,1.979,1.975,1.9572,1.9289,1.8807,1.8585,1.8566,1.8035,1.7612,1.7256,1.6942,1.6607,1.6231,1.5609,1.5013,1.4497,1.4484,1.4252,1.3982,1.5499,1.5197,1.5197,1.6293,1.6051,1.5864,1.6423,1.6522,1.6522,1.6522,1.6522,1.6522,1.6522,1.6522,1.6522,1.6522,1.6552,1.6795,1.7353,1.7394,1.7585,1.8066,1.8106,1.7626,1.668,1.6637,1.6637,1.6637,1.6637,1.6637,1.6637,1.7146,1.7394,1.7504,1.8458,1.893,1.9006,1.9515,1.9747,1.9747,1.9782,2.007,2.0416,2.0416,2.0943,2.1658,2.1658,2.1928,2.2237,2.1794,2.1658,2.1718,2.218,2.2338,2.2388,2.266,2.2772,2.2873,2.3165,2.35,2.3753,2.3714,2.2488,2.1368,2.1584,2.1429,2.1209,2.1075,2.1099,2.0806,1.9669,1.972,1.9674,1.8872,1.8748,1.8712,1.8641,1.8641,1.8641,1.8641,1.8162,1.8151,1.898,1.8754,1.8653,1.8915,1.9115,1.8916,1.8172,1.8125,1.8137,1.8115,1.8823,1.92,1.9181,1.9711,1.9933,1.9809,1.9656,1.9499,1.9289,1.8807,1.8585,1.8566,1.7997,1.7572,1.7224,1.6876,1.6554,1.6219,1.587,1.5298,1.4671,1.5106,1.5158,1.5015,1.5588,1.5876,1.6194,1.6466,1.638,1.6337,1.6466,1.6522,1.6522,1.6522,1.6522,1.6522,1.6522,1.6522,1.6522,1.6522,1.6879,1.7353,1.7907,1.7947,1.7987,1.8106,1.8106,1.7987,1.7747,1.7747,1.7747,1.7747,1.7747,1.7747,1.7747,1.7867,1.8145,1.8574,1.8817,1.9132,1.9551,2.0,2.0158,2.0177,2.0565,2.0959,2.1321,2.1321,2.1658,2.2152,2.2152,2.2209,2.2282,2.218,2.2152,2.218,2.2282,2.2436,2.2686,2.2996,2.3277,2.35,2.3566,2.3837,2.4016,2.3774,2.3603,2.3524,2.3581,2.3349,2.2944,2.2353,2.2247,2.1913,2.0823,2.0863,2.0785,1.9975,1.9849,1.9615,1.9004,1.8914,1.8914,1.8914,1.8937,1.9087,1.9438,1.9631,1.9819,2.0032,2.0133,2.0124,1.9955,1.9949,1.9885,1.9769,1.9951,1.9953,1.9809,1.9827,1.9824,1.9809,1.9656,1.9499,1.9289,1.8807,1.8585,1.8547,1.7766,1.7224,1.6876,1.6554,1.6219,1.587,1.5404,1.5468,1.5691,1.5053,1.5372,1.6022,1.6051,1.6281,1.6522,1.6522,1.6522,1.6522,1.6522,1.6522,1.6595,1.6837,1.6879,1.6993,1.7229,1.7271,1.7376,1.7695,1.7705,1.803,1.8894,1.8666,1.8612,1.8855,1.8855,1.8855,1.8855,1.8855,1.8612,1.8106,1.8106,1.8106,1.8106,1.838,1.8612,1.8893,1.9169,1.9442,1.9726,2.0124,2.0314,2.0348,2.0829,2.1244,2.1582,2.1582,2.1899,2.231,2.231,2.231,2.231,2.231,2.231,2.2321,2.2436,2.2573,2.2797,2.3282,2.3566,2.3735,2.3896,2.4074,2.4151,2.3996,2.4074,2.419,2.419,2.4074,2.3769,2.325,2.3258,2.3042,2.1911,2.1945,2.1899,2.1097,2.097,2.0841,2.0482,2.0097,1.989,1.9993,1.9727,1.9606,1.9767,1.9983,2.0186,2.0383,2.0426,2.0469,2.051,2.0438,2.0366,2.0294,2.021,2.0109,1.9993,1.979,1.9688,1.9707,1.9536,1.9335,1.915,1.8771,1.8528,1.8371,1.7783,1.7264,1.6789,1.6607,1.6246,1.58,1.5861,1.5939,1.6078,1.5907,1.5931,1.5932,1.6522,1.6637,1.6752,1.6637,1.671,1.6752,1.6752,1.6752,1.6909,1.7394,1.7422,1.7666,1.8204,1.8354,1.8698,1.9376,1.8779,1.8891,1.9976,1.942,1.9302,1.9854,1.9854,1.9891,1.9984,1.9984,1.9457,1.838,1.838,1.838,1.838,1.8817,1.908,1.914,1.9609,1.9854,1.9945,2.0348,2.0501,2.0567,2.1023,2.1415,2.1718,2.1718,2.1974,2.231,2.231,2.2321,2.236,2.236,2.2415,2.2508,2.2712,2.2822,2.2972,2.3544,2.3735,2.3855,2.4113,2.419,2.419,2.419,2.419,2.419,2.419,2.419,2.4113,2.3837,2.3996,2.3912,2.2964,2.3029,2.2942,2.2134,2.2039,2.2031,2.2014,2.1465,2.1105,2.1286,2.0705,2.027,2.0241,2.0315,2.0379,2.0409,2.0404,2.0425,2.0455,2.0357,2.0301,2.0308,2.0101,2.0003,1.9973,1.9713,1.9574,1.9499,1.9338,1.9166,1.8984,1.8734,1.845,1.8187,1.7861,1.7427,1.6965,1.6785,1.648,1.6144,1.6547,1.6644,1.6597,1.7093,1.6608,1.5664,1.6595,1.7229,1.7747,1.7271,1.7585,1.7867,1.7867,1.7867,1.7907,1.7987,1.7987,1.8219,1.8906,1.9503,2.0034,2.0595,2.0022,1.9904,2.054,1.9938,1.9871,2.0557,2.0572,2.0729,2.109,2.109,2.0563,1.9479,1.9479,1.9479,1.9479,1.9566,1.9788,2.0093,2.0177,2.0449,2.0862,2.1228,2.1413,2.146,2.1945,2.2152,2.2209,2.2209,2.2237,2.231,2.231,2.2436,2.2634,2.2634,2.284,2.3087,2.3117,2.3346,2.3588,2.3671,2.3896,2.4151,2.419,2.419,2.419,2.419,2.419,2.419,2.419,2.419,2.419,2.4151,2.417,2.4153,2.4004,2.4005,2.3768,2.2978,2.297,2.284,2.2103,2.2055,2.2105,2.213,2.2194,2.197,2.1278,2.1372,2.1184,2.0446,2.0445,2.045,2.0327,2.0299,2.0296,2.0296,2.0096,1.9934,1.9824,1.9669,1.9427,1.9086,1.9052,1.9018,1.8984,1.8734,1.845,1.8166,1.7625,1.7485,1.7598,1.6725,1.6797,1.7384,1.6891,1.7366,1.8303,1.8078,1.7234,1.6219,1.7422,1.7787,1.8027,1.7787,1.7947,1.8106,1.8106,1.8106,1.8224,1.8496,1.8846,1.9344,1.9908,2.0611,2.1231,2.1845,2.1285,2.1159,2.1784,2.1186,2.1069,2.1644,2.1659,2.1852,2.2362,2.2362,2.2114,2.1639,2.0839,2.0447,2.0447,2.0447,2.0532,2.0682,2.0682,2.0797,2.1039,2.143,2.1582,2.1658,2.2106,2.231,2.231,2.231,2.231,2.2338,2.2463,2.2599,2.2721,2.2923,2.3069,2.3236,2.3414,2.3566,2.3753,2.3917,2.4094,2.419,2.419,2.419,2.419,2.419,2.419,2.419,2.419,2.419,2.419,2.419,2.419,2.419,2.419,2.4284,2.4246,2.3894,2.4004,2.402,2.3731,2.336,2.2996,2.2609,2.268,2.2639,2.2272,2.2396,2.2303,2.1875,2.1872,2.1636,2.1068,2.1442,2.1424,2.0824,2.1122,2.0984,2.0356,2.0196,1.9779,1.9166,1.9469,1.9254,1.8565,1.8869,1.8853,1.8586,1.8316,1.8275,1.8355,1.7488,1.7344,1.7697,1.7772,1.8047,1.8355,1.8166,1.7409,1.6386]}]]